<?xml version="1.0" encoding="UTF-8" standalone="no" ?>
<gpx xmlns="http://www.topografix.com/GPX/1/1" xmlns:xsi="http://www.w3.org/2001/XMLSchema-instance" xsi:schemaLocation="http://www.topografix.com/GPX/1/1 http://www.topografix.com/GPX/1/1/gpx.xsd" version="1.1" creator="VisuGPX - https://www.visugpx.com">
  <metadata>
    <name>Pic et tour du Canigou </name>
    <desc><![CDATA[Trek effectué du dimanche 30/08/2020 vers 13h au jeudi 3 vers 10h.]]></desc>
  </metadata>
  <trk>
    <name><![CDATA[Pic et tour du Canigou _3]]></name>
    <extensions>
      <line xmlns="http://www.topografix.com/GPX/gpx_style/0/2">
        <color>00ff11</color>
        <opacity>1</opacity>
        <width>4</width>
      </line>
    </extensions>
    <trkseg>
      <trkpt lat="42.51806" lon="2.52448">
        <ele>1490.7</ele>
        <time>2020-09-01T05:00:00.000Z</time>
      </trkpt>
      <trkpt lat="42.51803" lon="2.52449">
        <ele>1491.6</ele>
        <time>2020-09-01T05:00:31.040Z</time>
      </trkpt>
      <trkpt lat="42.51803" lon="2.5246">
        <ele>1491</ele>
        <time>2020-09-01T05:00:33.944Z</time>
      </trkpt>
      <trkpt lat="42.51802" lon="2.52526">
        <ele>1483.5</ele>
        <time>2020-09-01T05:00:51.372Z</time>
      </trkpt>
      <trkpt lat="42.518" lon="2.52536">
        <ele>1483.9</ele>
        <time>2020-09-01T05:01:26.710Z</time>
      </trkpt>
      <trkpt lat="42.51799" lon="2.52546">
        <ele>1484</ele>
        <time>2020-09-01T05:01:48.808Z</time>
      </trkpt>
      <trkpt lat="42.51795" lon="2.52566">
        <ele>1483.8</ele>
        <time>2020-09-01T05:01:57.247Z</time>
      </trkpt>
      <trkpt lat="42.51793" lon="2.52575">
        <ele>1484</ele>
        <time>2020-09-01T05:02:21.783Z</time>
      </trkpt>
      <trkpt lat="42.5179" lon="2.52582">
        <ele>1484.3</ele>
        <time>2020-09-01T05:02:49.017Z</time>
      </trkpt>
      <trkpt lat="42.51787" lon="2.52588">
        <ele>1480.3</ele>
        <time>2020-09-01T05:02:50.931Z</time>
      </trkpt>
      <trkpt lat="42.51784" lon="2.52594">
        <ele>1480.6</ele>
        <time>2020-09-01T05:03:16.293Z</time>
      </trkpt>
      <trkpt lat="42.51784" lon="2.52594">
        <ele>1480.6</ele>
        <time>2020-09-01T05:03:16.293Z</time>
      </trkpt>
      <trkpt lat="42.51776" lon="2.52594">
        <ele>1481.7</ele>
        <time>2020-09-01T05:04:36.677Z</time>
      </trkpt>
      <trkpt lat="42.51768" lon="2.526">
        <ele>1482.3</ele>
        <time>2020-09-01T05:05:23.068Z</time>
      </trkpt>
      <trkpt lat="42.51754" lon="2.5261">
        <ele>1481.9</ele>
        <time>2020-09-01T05:05:30.632Z</time>
      </trkpt>
      <trkpt lat="42.51742" lon="2.52614">
        <ele>1488.8</ele>
        <time>2020-09-01T05:07:34.794Z</time>
      </trkpt>
      <trkpt lat="42.5173" lon="2.52616">
        <ele>1489.3</ele>
        <time>2020-09-01T05:08:25.496Z</time>
      </trkpt>
      <trkpt lat="42.51719" lon="2.52618">
        <ele>1490.2</ele>
        <time>2020-09-01T05:09:28.983Z</time>
      </trkpt>
      <trkpt lat="42.51708" lon="2.52624">
        <ele>1490.4</ele>
        <time>2020-09-01T05:10:05.512Z</time>
      </trkpt>
      <trkpt lat="42.51697" lon="2.52629">
        <ele>1490.6</ele>
        <time>2020-09-01T05:10:41.401Z</time>
      </trkpt>
      <trkpt lat="42.51685" lon="2.52634">
        <ele>1490.4</ele>
        <time>2020-09-01T05:10:48.093Z</time>
      </trkpt>
      <trkpt lat="42.51669" lon="2.52631">
        <ele>1491.7</ele>
        <time>2020-09-01T05:12:20.031Z</time>
      </trkpt>
      <trkpt lat="42.51649" lon="2.52635">
        <ele>1505.7</ele>
        <time>2020-09-01T05:15:43.162Z</time>
      </trkpt>
      <trkpt lat="42.51632" lon="2.52642">
        <ele>1507.1</ele>
        <time>2020-09-01T05:17:22.911Z</time>
      </trkpt>
      <trkpt lat="42.51622" lon="2.52651">
        <ele>1507.2</ele>
        <time>2020-09-01T05:17:56.756Z</time>
      </trkpt>
      <trkpt lat="42.51613" lon="2.52659">
        <ele>1507.1</ele>
        <time>2020-09-01T05:18:03.003Z</time>
      </trkpt>
      <trkpt lat="42.51603" lon="2.52662">
        <ele>1507.1</ele>
        <time>2020-09-01T05:18:29.683Z</time>
      </trkpt>
      <trkpt lat="42.51593" lon="2.52667">
        <ele>1492.2</ele>
        <time>2020-09-01T05:18:33.500Z</time>
      </trkpt>
      <trkpt lat="42.51584" lon="2.52671">
        <ele>1497.5</ele>
        <time>2020-09-01T05:20:08.661Z</time>
      </trkpt>
      <trkpt lat="42.51575" lon="2.5268">
        <ele>1499</ele>
        <time>2020-09-01T05:22:01.004Z</time>
      </trkpt>
      <trkpt lat="42.51567" lon="2.52684">
        <ele>1498</ele>
        <time>2020-09-01T05:22:04.058Z</time>
      </trkpt>
      <trkpt lat="42.51554" lon="2.52685">
        <ele>1498.8</ele>
        <time>2020-09-01T05:23:08.175Z</time>
      </trkpt>
      <trkpt lat="42.51539" lon="2.52694">
        <ele>1499.4</ele>
        <time>2020-09-01T05:24:12.433Z</time>
      </trkpt>
      <trkpt lat="42.5153" lon="2.527">
        <ele>1499.7</ele>
        <time>2020-09-01T05:24:48.417Z</time>
      </trkpt>
      <trkpt lat="42.51509" lon="2.52713">
        <ele>1499.4</ele>
        <time>2020-09-01T05:25:01.185Z</time>
      </trkpt>
      <trkpt lat="42.5149" lon="2.52724">
        <ele>1505.6</ele>
        <time>2020-09-01T05:28:28.754Z</time>
      </trkpt>
      <trkpt lat="42.51471" lon="2.5273">
        <ele>1505.3</ele>
        <time>2020-09-01T05:28:39.226Z</time>
      </trkpt>
      <trkpt lat="42.51459" lon="2.52737">
        <ele>1504.5</ele>
        <time>2020-09-01T05:28:43.696Z</time>
      </trkpt>
      <trkpt lat="42.51451" lon="2.52734">
        <ele>1504.5</ele>
        <time>2020-09-01T05:29:05.317Z</time>
      </trkpt>
      <trkpt lat="42.51448" lon="2.52727">
        <ele>1505.4</ele>
        <time>2020-09-01T05:30:05.289Z</time>
      </trkpt>
      <trkpt lat="42.51441" lon="2.52715">
        <ele>1507.6</ele>
        <time>2020-09-01T05:31:58.631Z</time>
      </trkpt>
      <trkpt lat="42.51432" lon="2.52694">
        <ele>1512.4</ele>
        <time>2020-09-01T05:34:58.545Z</time>
      </trkpt>
      <trkpt lat="42.51425" lon="2.52683">
        <ele>1516.2</ele>
        <time>2020-09-01T05:36:46.177Z</time>
      </trkpt>
      <trkpt lat="42.51414" lon="2.5266">
        <ele>1526</ele>
        <time>2020-09-01T05:40:09.242Z</time>
      </trkpt>
      <trkpt lat="42.51406" lon="2.52643">
        <ele>1530</ele>
        <time>2020-09-01T05:42:38.624Z</time>
        <extensions>
          <visugpx:TrkExtension xmlns:visugpx="https://www.visugpx.com/editgpx/">
            <visugpx:node>1</visugpx:node>
            </visugpx:TrkExtension>
        </extensions>
      </trkpt>
      <trkpt lat="42.51403" lon="2.52637">
        <ele>1531.3</ele>
        <time>2020-09-01T05:43:32.322Z</time>
      </trkpt>
      <trkpt lat="42.51392" lon="2.52617">
        <ele>1535.5</ele>
        <time>2020-09-01T05:46:37.143Z</time>
      </trkpt>
      <trkpt lat="42.51382" lon="2.52612">
        <ele>1535.1</ele>
        <time>2020-09-01T05:46:41.632Z</time>
      </trkpt>
      <trkpt lat="42.51364" lon="2.52609">
        <ele>1533.4</ele>
        <time>2020-09-01T05:46:48.127Z</time>
      </trkpt>
      <trkpt lat="42.51358" lon="2.52611">
        <ele>1532.8</ele>
        <time>2020-09-01T05:46:50.340Z</time>
      </trkpt>
      <trkpt lat="42.51351" lon="2.52608">
        <ele>1532.9</ele>
        <time>2020-09-01T05:47:12.190Z</time>
      </trkpt>
      <trkpt lat="42.51345" lon="2.52601">
        <ele>1534.4</ele>
        <time>2020-09-01T05:48:31.705Z</time>
      </trkpt>
      <trkpt lat="42.51341" lon="2.5259">
        <ele>1536.5</ele>
        <time>2020-09-01T05:50:02.552Z</time>
      </trkpt>
      <trkpt lat="42.51333" lon="2.52577">
        <ele>1543.3</ele>
        <time>2020-09-01T05:52:07.981Z</time>
      </trkpt>
      <trkpt lat="42.51321" lon="2.52568">
        <ele>1549</ele>
        <time>2020-09-01T05:54:25.756Z</time>
      </trkpt>
      <trkpt lat="42.51312" lon="2.52556">
        <ele>1553.6</ele>
        <time>2020-09-01T05:56:32.553Z</time>
      </trkpt>
      <trkpt lat="42.51303" lon="2.5255">
        <ele>1555.6</ele>
        <time>2020-09-01T05:58:13.315Z</time>
      </trkpt>
      <trkpt lat="42.51291" lon="2.52549">
        <ele>1555.9</ele>
        <time>2020-09-01T05:58:53.913Z</time>
      </trkpt>
      <trkpt lat="42.5128" lon="2.52548">
        <ele>1556</ele>
        <time>2020-09-01T05:59:25.235Z</time>
      </trkpt>
      <trkpt lat="42.51273" lon="2.52549">
        <ele>1555.6</ele>
        <time>2020-09-01T05:59:27.731Z</time>
      </trkpt>
      <trkpt lat="42.51269" lon="2.52544">
        <ele>1556.7</ele>
        <time>2020-09-01T06:00:22.383Z</time>
      </trkpt>
      <trkpt lat="42.51267" lon="2.52529">
        <ele>1561.5</ele>
        <time>2020-09-01T06:02:15.286Z</time>
      </trkpt>
      <trkpt lat="42.51263" lon="2.52523">
        <ele>1563.9</ele>
        <time>2020-09-01T06:03:15.205Z</time>
      </trkpt>
      <trkpt lat="42.51243" lon="2.52523">
        <ele>1564.9</ele>
        <time>2020-09-01T06:04:46.306Z</time>
      </trkpt>
      <trkpt lat="42.51238" lon="2.52515">
        <ele>1567.1</ele>
        <time>2020-09-01T06:06:03.992Z</time>
      </trkpt>
      <trkpt lat="42.51238" lon="2.525">
        <ele>1585.3</ele>
        <time>2020-09-01T06:07:55.092Z</time>
      </trkpt>
      <trkpt lat="42.51231" lon="2.52498">
        <ele>1588.1</ele>
        <time>2020-09-01T06:09:06.971Z</time>
      </trkpt>
      <trkpt lat="42.51221" lon="2.52493">
        <ele>1591</ele>
        <time>2020-09-01T06:10:54.058Z</time>
      </trkpt>
      <trkpt lat="42.51222" lon="2.52481">
        <ele>1593.2</ele>
        <time>2020-09-01T06:12:23.505Z</time>
      </trkpt>
      <trkpt lat="42.5121" lon="2.5248">
        <ele>1594.1</ele>
        <time>2020-09-01T06:13:28.924Z</time>
      </trkpt>
      <trkpt lat="42.512" lon="2.52481">
        <ele>1593.7</ele>
        <time>2020-09-01T06:13:33.052Z</time>
      </trkpt>
      <trkpt lat="42.51203" lon="2.52472">
        <ele>1595.6</ele>
        <time>2020-09-01T06:14:46.211Z</time>
      </trkpt>
      <trkpt lat="42.51206" lon="2.52463">
        <ele>1598</ele>
        <time>2020-09-01T06:15:59.371Z</time>
      </trkpt>
      <trkpt lat="42.51202" lon="2.52462">
        <ele>1598.1</ele>
        <time>2020-09-01T06:16:13.046Z</time>
      </trkpt>
      <trkpt lat="42.51198" lon="2.52467">
        <ele>1597</ele>
        <time>2020-09-01T06:16:14.994Z</time>
      </trkpt>
      <trkpt lat="42.51193" lon="2.52466">
        <ele>1597.1</ele>
        <time>2020-09-01T06:16:31.075Z</time>
      </trkpt>
      <trkpt lat="42.51184" lon="2.52463">
        <ele>1597.7</ele>
        <time>2020-09-01T06:17:17.803Z</time>
      </trkpt>
      <trkpt lat="42.51173" lon="2.52456">
        <ele>1600.2</ele>
        <time>2020-09-01T06:19:19.887Z</time>
      </trkpt>
      <trkpt lat="42.5117" lon="2.52451">
        <ele>1602</ele>
        <time>2020-09-01T06:20:07.638Z</time>
      </trkpt>
      <trkpt lat="42.51167" lon="2.52446">
        <ele>1603.7</ele>
        <time>2020-09-01T06:20:55.389Z</time>
      </trkpt>
      <trkpt lat="42.51165" lon="2.52445">
        <ele>1605.7</ele>
        <time>2020-09-01T06:21:16.807Z</time>
      </trkpt>
      <trkpt lat="42.51163" lon="2.52441">
        <ele>1606.8</ele>
        <time>2020-09-01T06:21:52.606Z</time>
      </trkpt>
      <trkpt lat="42.51162" lon="2.52437">
        <ele>1608.3</ele>
        <time>2020-09-01T06:22:23.891Z</time>
      </trkpt>
      <trkpt lat="42.5116" lon="2.52433">
        <ele>1609.7</ele>
        <time>2020-09-01T06:22:59.691Z</time>
      </trkpt>
      <trkpt lat="42.51158" lon="2.52429">
        <ele>1611</ele>
        <time>2020-09-01T06:23:35.490Z</time>
      </trkpt>
      <trkpt lat="42.51156" lon="2.52425">
        <ele>1611.7</ele>
        <time>2020-09-01T06:24:11.290Z</time>
      </trkpt>
      <trkpt lat="42.51154" lon="2.52422">
        <ele>1611.9</ele>
        <time>2020-09-01T06:24:26.583Z</time>
      </trkpt>
      <trkpt lat="42.51151" lon="2.5242">
        <ele>1611.2</ele>
        <time>2020-09-01T06:24:27.780Z</time>
      </trkpt>
      <trkpt lat="42.51147" lon="2.52418">
        <ele>1610.2</ele>
        <time>2020-09-01T06:24:29.307Z</time>
      </trkpt>
      <trkpt lat="42.51144" lon="2.52416">
        <ele>1628.3</ele>
        <time>2020-09-01T06:25:02.894Z</time>
      </trkpt>
      <trkpt lat="42.51141" lon="2.52413">
        <ele>1628.9</ele>
        <time>2020-09-01T06:25:40.343Z</time>
      </trkpt>
      <trkpt lat="42.51138" lon="2.52411">
        <ele>1629.3</ele>
        <time>2020-09-01T06:26:08.355Z</time>
      </trkpt>
      <trkpt lat="42.51135" lon="2.52408">
        <ele>1629.8</ele>
        <time>2020-09-01T06:26:45.804Z</time>
      </trkpt>
      <trkpt lat="42.51132" lon="2.52405">
        <ele>1630.2</ele>
        <time>2020-09-01T06:27:12.993Z</time>
      </trkpt>
      <trkpt lat="42.51129" lon="2.52403">
        <ele>1630.5</ele>
        <time>2020-09-01T06:27:33.581Z</time>
      </trkpt>
      <trkpt lat="42.51125" lon="2.52402">
        <ele>1630.4</ele>
        <time>2020-09-01T06:27:35.540Z</time>
      </trkpt>
      <trkpt lat="42.51122" lon="2.524">
        <ele>1630.3</ele>
        <time>2020-09-01T06:27:37.061Z</time>
      </trkpt>
      <trkpt lat="42.51118" lon="2.524">
        <ele>1629.9</ele>
        <time>2020-09-01T06:27:38.494Z</time>
      </trkpt>
      <trkpt lat="42.51111" lon="2.524">
        <ele>1628.6</ele>
        <time>2020-09-01T06:27:41.001Z</time>
      </trkpt>
      <trkpt lat="42.51107" lon="2.52401">
        <ele>1627.4</ele>
        <time>2020-09-01T06:27:42.458Z</time>
      </trkpt>
      <trkpt lat="42.51103" lon="2.52399">
        <ele>1626.9</ele>
        <time>2020-09-01T06:27:43.985Z</time>
      </trkpt>
      <trkpt lat="42.511" lon="2.52399">
        <ele>1626.1</ele>
        <time>2020-09-01T06:27:45.059Z</time>
      </trkpt>
      <trkpt lat="42.51095" lon="2.52398">
        <ele>1625.3</ele>
        <time>2020-09-01T06:27:46.869Z</time>
      </trkpt>
      <trkpt lat="42.51093" lon="2.52396">
        <ele>1625.7</ele>
        <time>2020-09-01T06:28:11.835Z</time>
      </trkpt>
      <trkpt lat="42.51091" lon="2.52394">
        <ele>1626.3</ele>
        <time>2020-09-01T06:28:36.801Z</time>
      </trkpt>
      <trkpt lat="42.51089" lon="2.52394">
        <ele>1626.3</ele>
        <time>2020-09-01T06:28:42.011Z</time>
      </trkpt>
      <trkpt lat="42.51086" lon="2.52394">
        <ele>1626</ele>
        <time>2020-09-01T06:28:43.086Z</time>
      </trkpt>
      <trkpt lat="42.51082" lon="2.52392">
        <ele>1630.1</ele>
        <time>2020-09-01T06:29:25.921Z</time>
      </trkpt>
      <trkpt lat="42.51078" lon="2.52388">
        <ele>1632.3</ele>
        <time>2020-09-01T06:30:15.853Z</time>
      </trkpt>
      <trkpt lat="42.51075" lon="2.52385">
        <ele>1634.3</ele>
        <time>2020-09-01T06:30:53.302Z</time>
      </trkpt>
      <trkpt lat="42.51071" lon="2.52382">
        <ele>1636</ele>
        <time>2020-09-01T06:31:39.227Z</time>
      </trkpt>
      <trkpt lat="42.51068" lon="2.52382">
        <ele>1636.5</ele>
        <time>2020-09-01T06:32:09.371Z</time>
      </trkpt>
      <trkpt lat="42.51065" lon="2.52383">
        <ele>1636.7</ele>
        <time>2020-09-01T06:32:24.947Z</time>
      </trkpt>
      <trkpt lat="42.51062" lon="2.52386">
        <ele>1636.1</ele>
        <time>2020-09-01T06:32:26.282Z</time>
      </trkpt>
      <trkpt lat="42.5106" lon="2.52389">
        <ele>1635.8</ele>
        <time>2020-09-01T06:32:27.350Z</time>
      </trkpt>
      <trkpt lat="42.51057" lon="2.52392">
        <ele>1635.5</ele>
        <time>2020-09-01T06:32:28.685Z</time>
      </trkpt>
      <trkpt lat="42.51054" lon="2.52396">
        <ele>1635.3</ele>
        <time>2020-09-01T06:32:30.299Z</time>
      </trkpt>
      <trkpt lat="42.51053" lon="2.52405">
        <ele>1633.7</ele>
        <time>2020-09-01T06:32:32.702Z</time>
      </trkpt>
      <trkpt lat="42.51054" lon="2.52409">
        <ele>1632.4</ele>
        <time>2020-09-01T06:32:33.818Z</time>
      </trkpt>
      <trkpt lat="42.5106" lon="2.52414">
        <ele>1629.1</ele>
        <time>2020-09-01T06:32:36.340Z</time>
      </trkpt>
      <trkpt lat="42.5107" lon="2.52419">
        <ele>1616.7</ele>
        <time>2020-09-01T06:32:40.157Z</time>
      </trkpt>
      <trkpt lat="42.51076" lon="2.52428">
        <ele>1616.5</ele>
        <time>2020-09-01T06:32:44.577Z</time>
      </trkpt>
      <trkpt lat="42.5108" lon="2.52441">
        <ele>1619.1</ele>
        <time>2020-09-01T06:34:28.918Z</time>
      </trkpt>
      <trkpt lat="42.51081" lon="2.52451">
        <ele>1620.2</ele>
        <time>2020-09-01T06:35:43.665Z</time>
      </trkpt>
      <trkpt lat="42.51081" lon="2.52459">
        <ele>1620.2</ele>
        <time>2020-09-01T06:35:59.027Z</time>
      </trkpt>
      <trkpt lat="42.51077" lon="2.52459">
        <ele>1620.7</ele>
        <time>2020-09-01T06:36:34.852Z</time>
      </trkpt>
      <trkpt lat="42.51072" lon="2.52453">
        <ele>1621.6</ele>
        <time>2020-09-01T06:37:41.928Z</time>
      </trkpt>
      <trkpt lat="42.51064" lon="2.52447">
        <ele>1623.1</ele>
        <time>2020-09-01T06:39:13.779Z</time>
      </trkpt>
      <trkpt lat="42.51062" lon="2.52442">
        <ele>1623.1</ele>
        <time>2020-09-01T06:39:24.703Z</time>
      </trkpt>
      <trkpt lat="42.51059" lon="2.5244">
        <ele>1624</ele>
        <time>2020-09-01T06:39:58.290Z</time>
      </trkpt>
      <trkpt lat="42.51057" lon="2.52442">
        <ele>1624.6</ele>
        <time>2020-09-01T06:40:23.256Z</time>
      </trkpt>
      <trkpt lat="42.51056" lon="2.52449">
        <ele>1625.1</ele>
        <time>2020-09-01T06:40:57.249Z</time>
      </trkpt>
      <trkpt lat="42.51056" lon="2.52457">
        <ele>1625.5</ele>
        <time>2020-09-01T06:41:27.664Z</time>
      </trkpt>
      <trkpt lat="42.51056" lon="2.52464">
        <ele>1625.3</ele>
        <time>2020-09-01T06:41:29.811Z</time>
      </trkpt>
      <trkpt lat="42.51055" lon="2.52472">
        <ele>1625.2</ele>
        <time>2020-09-01T06:41:32.970Z</time>
      </trkpt>
      <trkpt lat="42.51051" lon="2.52475">
        <ele>1626.6</ele>
        <time>2020-09-01T06:42:18.895Z</time>
      </trkpt>
      <trkpt lat="42.51049" lon="2.52473">
        <ele>1627.6</ele>
        <time>2020-09-01T06:42:43.861Z</time>
      </trkpt>
      <trkpt lat="42.51048" lon="2.5246">
        <ele>1628</ele>
        <time>2020-09-01T06:43:24.362Z</time>
      </trkpt>
      <trkpt lat="42.51046" lon="2.5245">
        <ele>1628.1</ele>
        <time>2020-09-01T06:43:46.971Z</time>
      </trkpt>
      <trkpt lat="42.51044" lon="2.52444">
        <ele>1628.5</ele>
        <time>2020-09-01T06:44:15.041Z</time>
      </trkpt>
      <trkpt lat="42.5104" lon="2.52443">
        <ele>1629.5</ele>
        <time>2020-09-01T06:44:55.910Z</time>
      </trkpt>
      <trkpt lat="42.5104" lon="2.52453">
        <ele>1630</ele>
        <time>2020-09-01T06:45:33.929Z</time>
      </trkpt>
      <trkpt lat="42.51041" lon="2.52466">
        <ele>1630.3</ele>
        <time>2020-09-01T06:46:09.043Z</time>
      </trkpt>
      <trkpt lat="42.5104" lon="2.52475">
        <ele>1631.2</ele>
        <time>2020-09-01T06:47:16.459Z</time>
      </trkpt>
      <trkpt lat="42.51036" lon="2.52486">
        <ele>1633.4</ele>
        <time>2020-09-01T06:48:47.309Z</time>
      </trkpt>
      <trkpt lat="42.51032" lon="2.52493">
        <ele>1636.2</ele>
        <time>2020-09-01T06:49:52.911Z</time>
      </trkpt>
      <trkpt lat="42.51025" lon="2.52507">
        <ele>1642.8</ele>
        <time>2020-09-01T06:51:58.212Z</time>
      </trkpt>
      <trkpt lat="42.51025" lon="2.52522">
        <ele>1640.9</ele>
        <time>2020-09-01T06:52:02.172Z</time>
      </trkpt>
      <trkpt lat="42.51024" lon="2.5253">
        <ele>1640.4</ele>
        <time>2020-09-01T06:52:04.315Z</time>
      </trkpt>
      <trkpt lat="42.51019" lon="2.52537">
        <ele>1641.8</ele>
        <time>2020-09-01T06:53:16.511Z</time>
      </trkpt>
      <trkpt lat="42.51013" lon="2.52555">
        <ele>1645.3</ele>
        <time>2020-09-01T06:55:42.834Z</time>
      </trkpt>
      <trkpt lat="42.51009" lon="2.52563">
        <ele>1649</ele>
        <time>2020-09-01T06:56:54.434Z</time>
      </trkpt>
      <trkpt lat="42.51008" lon="2.52572">
        <ele>1654.6</ele>
        <time>2020-09-01T06:58:01.850Z</time>
      </trkpt>
      <trkpt lat="42.51008" lon="2.52605">
        <ele>1649.5</ele>
        <time>2020-09-01T06:58:10.563Z</time>
      </trkpt>
      <trkpt lat="42.51003" lon="2.52632">
        <ele>1647.2</ele>
        <time>2020-09-01T06:58:17.914Z</time>
      </trkpt>
      <trkpt lat="42.50996" lon="2.52657">
        <ele>1680.6</ele>
        <time>2020-09-01T07:01:35.996Z</time>
      </trkpt>
      <trkpt lat="42.50993" lon="2.52675">
        <ele>1679.5</ele>
        <time>2020-09-01T07:01:40.869Z</time>
      </trkpt>
      <trkpt lat="42.50988" lon="2.52678">
        <ele>1684</ele>
        <time>2020-09-01T07:02:35.804Z</time>
      </trkpt>
      <trkpt lat="42.50984" lon="2.52703">
        <ele>1690.7</ele>
        <time>2020-09-01T07:05:45.290Z</time>
      </trkpt>
      <trkpt lat="42.50989" lon="2.52711">
        <ele>1689.6</ele>
        <time>2020-09-01T07:05:48.059Z</time>
      </trkpt>
      <trkpt lat="42.50992" lon="2.52723">
        <ele>1687.2</ele>
        <time>2020-09-01T07:05:51.405Z</time>
      </trkpt>
      <trkpt lat="42.50992" lon="2.52734">
        <ele>1683.2</ele>
        <time>2020-09-01T07:05:54.310Z</time>
      </trkpt>
      <trkpt lat="42.50992" lon="2.52748">
        <ele>1676.8</ele>
        <time>2020-09-01T07:05:58.006Z</time>
      </trkpt>
      <trkpt lat="42.50989" lon="2.5276">
        <ele>1675.5</ele>
        <time>2020-09-01T07:06:01.352Z</time>
      </trkpt>
      <trkpt lat="42.50987" lon="2.52771">
        <ele>1677.5</ele>
        <time>2020-09-01T07:07:25.270Z</time>
      </trkpt>
      <trkpt lat="42.50981" lon="2.52784">
        <ele>1678.9</ele>
        <time>2020-09-01T07:09:05.021Z</time>
      </trkpt>
      <trkpt lat="42.50971" lon="2.52793">
        <ele>1680.2</ele>
        <time>2020-09-01T07:10:33.498Z</time>
      </trkpt>
      <trkpt lat="42.50959" lon="2.52802">
        <ele>1682.2</ele>
        <time>2020-09-01T07:12:51.275Z</time>
      </trkpt>
      <trkpt lat="42.5094" lon="2.52808">
        <ele>1685.9</ele>
        <time>2020-09-01T07:16:07.292Z</time>
      </trkpt>
      <trkpt lat="42.50914" lon="2.52816">
        <ele>1706.5</ele>
        <time>2020-09-01T07:20:35.176Z</time>
      </trkpt>
      <trkpt lat="42.50896" lon="2.52821">
        <ele>1711.1</ele>
        <time>2020-09-01T07:23:39.792Z</time>
      </trkpt>
      <trkpt lat="42.50877" lon="2.52831">
        <ele>1717.4</ele>
        <time>2020-09-01T07:27:04.570Z</time>
      </trkpt>
      <trkpt lat="42.50866" lon="2.52835">
        <ele>1696.7</ele>
        <time>2020-09-01T07:27:08.649Z</time>
      </trkpt>
      <trkpt lat="42.50855" lon="2.52838">
        <ele>1702</ele>
        <time>2020-09-01T07:29:01.389Z</time>
      </trkpt>
      <trkpt lat="42.50845" lon="2.52843">
        <ele>1706.3</ele>
        <time>2020-09-01T07:30:48.477Z</time>
      </trkpt>
      <trkpt lat="42.50842" lon="2.52847">
        <ele>1705.4</ele>
        <time>2020-09-01T07:30:49.984Z</time>
      </trkpt>
      <trkpt lat="42.50836" lon="2.52856">
        <ele>1701</ele>
        <time>2020-09-01T07:30:53.188Z</time>
      </trkpt>
      <trkpt lat="42.50826" lon="2.52866">
        <ele>1718.7</ele>
        <time>2020-09-01T07:32:58.019Z</time>
      </trkpt>
      <trkpt lat="42.50803" lon="2.52886">
        <ele>1717.4</ele>
        <time>2020-09-01T07:33:08.499Z</time>
      </trkpt>
      <trkpt lat="42.50791" lon="2.52897">
        <ele>1718.9</ele>
        <time>2020-09-01T07:34:50.149Z</time>
      </trkpt>
      <trkpt lat="42.50781" lon="2.52903">
        <ele>1721.1</ele>
        <time>2020-09-01T07:36:40.019Z</time>
      </trkpt>
      <trkpt lat="42.50773" lon="2.52908">
        <ele>1722.8</ele>
        <time>2020-09-01T07:38:08.525Z</time>
      </trkpt>
      <trkpt lat="42.50765" lon="2.52923">
        <ele>1708.9</ele>
        <time>2020-09-01T07:38:13.413Z</time>
      </trkpt>
      <trkpt lat="42.50751" lon="2.52932">
        <ele>1709.5</ele>
        <time>2020-09-01T07:39:15.960Z</time>
      </trkpt>
      <trkpt lat="42.50733" lon="2.52941">
        <ele>1726.9</ele>
        <time>2020-09-01T07:42:28.719Z</time>
      </trkpt>
      <trkpt lat="42.50728" lon="2.52943">
        <ele>1727.4</ele>
        <time>2020-09-01T07:43:02.681Z</time>
      </trkpt>
      <trkpt lat="42.50723" lon="2.52944">
        <ele>1728.1</ele>
        <time>2020-09-01T07:43:53.464Z</time>
      </trkpt>
      <trkpt lat="42.50718" lon="2.52947">
        <ele>1728.7</ele>
        <time>2020-09-01T07:44:34.387Z</time>
      </trkpt>
      <trkpt lat="42.50711" lon="2.52952">
        <ele>1729.1</ele>
        <time>2020-09-01T07:45:10.556Z</time>
      </trkpt>
      <trkpt lat="42.50706" lon="2.52956">
        <ele>1729.6</ele>
        <time>2020-09-01T07:45:45.200Z</time>
      </trkpt>
      <trkpt lat="42.50701" lon="2.52961">
        <ele>1729.9</ele>
        <time>2020-09-01T07:46:13.182Z</time>
      </trkpt>
      <trkpt lat="42.50699" lon="2.52966">
        <ele>1729.3</ele>
        <time>2020-09-01T07:46:14.684Z</time>
      </trkpt>
      <trkpt lat="42.50695" lon="2.5297">
        <ele>1729.5</ele>
        <time>2020-09-01T07:46:35.189Z</time>
      </trkpt>
      <trkpt lat="42.50689" lon="2.52974">
        <ele>1730.1</ele>
        <time>2020-09-01T07:47:16.365Z</time>
      </trkpt>
      <trkpt lat="42.50686" lon="2.52978">
        <ele>1730.3</ele>
        <time>2020-09-01T07:47:35.222Z</time>
      </trkpt>
      <trkpt lat="42.50683" lon="2.52983">
        <ele>1730.5</ele>
        <time>2020-09-01T07:47:55.369Z</time>
      </trkpt>
      <trkpt lat="42.50679" lon="2.52991">
        <ele>1731</ele>
        <time>2020-09-01T07:48:32.770Z</time>
      </trkpt>
      <trkpt lat="42.50676" lon="2.52995">
        <ele>1731.7</ele>
        <time>2020-09-01T07:49:15.038Z</time>
      </trkpt>
      <trkpt lat="42.50674" lon="2.52999">
        <ele>1732.3</ele>
        <time>2020-09-01T07:49:50.839Z</time>
      </trkpt>
      <trkpt lat="42.5067" lon="2.53005">
        <ele>1726.1</ele>
        <time>2020-09-01T07:49:52.975Z</time>
      </trkpt>
      <trkpt lat="42.50667" lon="2.53008">
        <ele>1723.8</ele>
        <time>2020-09-01T07:49:54.310Z</time>
      </trkpt>
      <trkpt lat="42.50665" lon="2.53012">
        <ele>1736.6</ele>
        <time>2020-09-01T07:50:30.112Z</time>
      </trkpt>
      <trkpt lat="42.50665" lon="2.53015">
        <ele>1736.9</ele>
        <time>2020-09-01T07:50:52.334Z</time>
      </trkpt>
      <trkpt lat="42.50665" lon="2.53021">
        <ele>1737.1</ele>
        <time>2020-09-01T07:51:11.870Z</time>
      </trkpt>
      <trkpt lat="42.50665" lon="2.53029">
        <ele>1736.6</ele>
        <time>2020-09-01T07:51:13.982Z</time>
      </trkpt>
      <trkpt lat="42.50665" lon="2.53035">
        <ele>1735.8</ele>
        <time>2020-09-01T07:51:15.566Z</time>
      </trkpt>
      <trkpt lat="42.50663" lon="2.53041">
        <ele>1734.8</ele>
        <time>2020-09-01T07:51:17.305Z</time>
      </trkpt>
      <trkpt lat="42.50661" lon="2.53045">
        <ele>1734.2</ele>
        <time>2020-09-01T07:51:18.581Z</time>
      </trkpt>
      <trkpt lat="42.50657" lon="2.53047">
        <ele>1733.9</ele>
        <time>2020-09-01T07:51:20.108Z</time>
      </trkpt>
      <trkpt lat="42.50654" lon="2.53051">
        <ele>1733.6</ele>
        <time>2020-09-01T07:51:21.615Z</time>
      </trkpt>
      <trkpt lat="42.50649" lon="2.53053">
        <ele>1733.9</ele>
        <time>2020-09-01T07:51:46.596Z</time>
      </trkpt>
      <trkpt lat="42.50643" lon="2.53056">
        <ele>1734.9</ele>
        <time>2020-09-01T07:52:50.849Z</time>
      </trkpt>
      <trkpt lat="42.5064" lon="2.53058">
        <ele>1735.3</ele>
        <time>2020-09-01T07:53:18.861Z</time>
      </trkpt>
      <trkpt lat="42.50638" lon="2.53061">
        <ele>1735.2</ele>
        <time>2020-09-01T07:53:20.167Z</time>
      </trkpt>
      <trkpt lat="42.50637" lon="2.53066">
        <ele>1734.7</ele>
        <time>2020-09-01T07:53:21.535Z</time>
      </trkpt>
      <trkpt lat="42.50636" lon="2.5307">
        <ele>1734.6</ele>
        <time>2020-09-01T07:53:22.920Z</time>
      </trkpt>
      <trkpt lat="42.50634" lon="2.53075">
        <ele>1734.5</ele>
        <time>2020-09-01T07:53:24.957Z</time>
      </trkpt>
      <trkpt lat="42.50633" lon="2.5308">
        <ele>1734.6</ele>
        <time>2020-09-01T07:53:38.045Z</time>
      </trkpt>
      <trkpt lat="42.5063" lon="2.53083">
        <ele>1735.4</ele>
        <time>2020-09-01T07:54:15.495Z</time>
      </trkpt>
      <trkpt lat="42.50627" lon="2.53087">
        <ele>1726.5</ele>
        <time>2020-09-01T07:54:17.002Z</time>
      </trkpt>
      <trkpt lat="42.50625" lon="2.53089">
        <ele>1727.1</ele>
        <time>2020-09-01T07:54:41.968Z</time>
      </trkpt>
      <trkpt lat="42.50625" lon="2.53091">
        <ele>1727.1</ele>
        <time>2020-09-01T07:54:45.809Z</time>
      </trkpt>
      <trkpt lat="42.50625" lon="2.53095">
        <ele>1727</ele>
        <time>2020-09-01T07:54:47.096Z</time>
      </trkpt>
      <trkpt lat="42.50625" lon="2.53099">
        <ele>1726.9</ele>
        <time>2020-09-01T07:54:48.383Z</time>
      </trkpt>
      <trkpt lat="42.50624" lon="2.53104">
        <ele>1727.3</ele>
        <time>2020-09-01T07:55:15.507Z</time>
      </trkpt>
      <trkpt lat="42.50621" lon="2.53107">
        <ele>1728.1</ele>
        <time>2020-09-01T07:55:52.957Z</time>
      </trkpt>
      <trkpt lat="42.50616" lon="2.5311">
        <ele>1729.3</ele>
        <time>2020-09-01T07:56:47.892Z</time>
      </trkpt>
      <trkpt lat="42.50613" lon="2.53111">
        <ele>1730.3</ele>
        <time>2020-09-01T07:57:18.933Z</time>
      </trkpt>
      <trkpt lat="42.50612" lon="2.53112">
        <ele>1730.6</ele>
        <time>2020-09-01T07:57:31.416Z</time>
      </trkpt>
      <trkpt lat="42.50611" lon="2.53113">
        <ele>1730.6</ele>
        <time>2020-09-01T07:57:34.653Z</time>
      </trkpt>
      <trkpt lat="42.50611" lon="2.53116">
        <ele>1730.3</ele>
        <time>2020-09-01T07:57:35.445Z</time>
      </trkpt>
      <trkpt lat="42.50611" lon="2.53118">
        <ele>1730.1</ele>
        <time>2020-09-01T07:57:35.973Z</time>
      </trkpt>
      <trkpt lat="42.50611" lon="2.53123">
        <ele>1729.9</ele>
        <time>2020-09-01T07:57:37.308Z</time>
      </trkpt>
      <trkpt lat="42.50612" lon="2.53132">
        <ele>1729.5</ele>
        <time>2020-09-01T07:57:39.634Z</time>
      </trkpt>
      <trkpt lat="42.50615" lon="2.53172">
        <ele>1733.2</ele>
        <time>2020-09-01T08:02:04.519Z</time>
      </trkpt>
      <trkpt lat="42.50621" lon="2.53198">
        <ele>1732.1</ele>
        <time>2020-09-01T08:02:11.763Z</time>
      </trkpt>
      <trkpt lat="42.50629" lon="2.5322">
        <ele>1732</ele>
        <time>2020-09-01T08:02:55.193Z</time>
      </trkpt>
      <trkpt lat="42.50636" lon="2.53237">
        <ele>1730.6</ele>
        <time>2020-09-01T08:03:00.335Z</time>
      </trkpt>
      <trkpt lat="42.5065" lon="2.53252">
        <ele>1735.4</ele>
        <time>2020-09-01T08:05:59.595Z</time>
      </trkpt>
      <trkpt lat="42.50683" lon="2.53287">
        <ele>1713.6</ele>
        <time>2020-09-01T08:06:14.600Z</time>
      </trkpt>
      <trkpt lat="42.50695" lon="2.53299">
        <ele>1712.8</ele>
        <time>2020-09-01T08:06:20.026Z</time>
      </trkpt>
      <trkpt lat="42.50706" lon="2.53311">
        <ele>1711.6</ele>
        <time>2020-09-01T08:06:25.082Z</time>
      </trkpt>
      <trkpt lat="42.5071" lon="2.53321">
        <ele>1711.1</ele>
        <time>2020-09-01T08:06:27.990Z</time>
      </trkpt>
      <trkpt lat="42.50714" lon="2.53332">
        <ele>1710.5</ele>
        <time>2020-09-01T08:06:30.964Z</time>
      </trkpt>
      <trkpt lat="42.50715" lon="2.53345">
        <ele>1723.7</ele>
        <time>2020-09-01T08:08:07.782Z</time>
      </trkpt>
      <trkpt lat="42.50713" lon="2.53355">
        <ele>1725.5</ele>
        <time>2020-09-01T08:09:24.533Z</time>
      </trkpt>
      <trkpt lat="42.50715" lon="2.53362">
        <ele>1725.5</ele>
        <time>2020-09-01T08:09:38.950Z</time>
      </trkpt>
      <trkpt lat="42.5072" lon="2.53377">
        <ele>1725.8</ele>
        <time>2020-09-01T08:10:19.818Z</time>
      </trkpt>
      <trkpt lat="42.50724" lon="2.53391">
        <ele>1726</ele>
        <time>2020-09-01T08:10:54.371Z</time>
      </trkpt>
      <trkpt lat="42.50731" lon="2.53415">
        <ele>1723.3</ele>
        <time>2020-09-01T08:11:01.186Z</time>
      </trkpt>
      <trkpt lat="42.50736" lon="2.53433">
        <ele>1730.9</ele>
        <time>2020-09-01T08:13:23.669Z</time>
      </trkpt>
      <trkpt lat="42.50745" lon="2.53456">
        <ele>1735.4</ele>
        <time>2020-09-01T08:16:36.550Z</time>
      </trkpt>
      <trkpt lat="42.50761" lon="2.53498">
        <ele>1721.1</ele>
        <time>2020-09-01T08:16:49.033Z</time>
      </trkpt>
      <trkpt lat="42.5077" lon="2.53526">
        <ele>1721</ele>
        <time>2020-09-01T08:17:43.956Z</time>
      </trkpt>
      <trkpt lat="42.50779" lon="2.53571">
        <ele>1721.6</ele>
        <time>2020-09-01T08:19:30.539Z</time>
      </trkpt>
      <trkpt lat="42.50779" lon="2.53581">
        <ele>1722.1</ele>
        <time>2020-09-01T08:20:08.559Z</time>
      </trkpt>
      <trkpt lat="42.50773" lon="2.53621">
        <ele>1721.7</ele>
        <time>2020-09-01T08:20:25.142Z</time>
      </trkpt>
      <trkpt lat="42.5077" lon="2.53633">
        <ele>1722.1</ele>
        <time>2020-09-01T08:21:05.180Z</time>
      </trkpt>
      <trkpt lat="42.50764" lon="2.53645">
        <ele>1723.7</ele>
        <time>2020-09-01T08:22:52.584Z</time>
      </trkpt>
      <trkpt lat="42.50761" lon="2.5366">
        <ele>1726.9</ele>
        <time>2020-09-01T08:24:47.709Z</time>
      </trkpt>
      <trkpt lat="42.50754" lon="2.53689">
        <ele>1719.1</ele>
        <time>2020-09-01T08:24:55.766Z</time>
      </trkpt>
      <trkpt lat="42.50742" lon="2.5372">
        <ele>1735.4</ele>
        <time>2020-09-01T08:29:15.124Z</time>
      </trkpt>
      <trkpt lat="42.50735" lon="2.53735">
        <ele>1733</ele>
        <time>2020-09-01T08:29:19.812Z</time>
      </trkpt>
      <trkpt lat="42.50726" lon="2.53757">
        <ele>1727.5</ele>
        <time>2020-09-01T08:29:26.455Z</time>
      </trkpt>
      <trkpt lat="42.50723" lon="2.5377">
        <ele>1728.4</ele>
        <time>2020-09-01T08:30:28.237Z</time>
      </trkpt>
      <trkpt lat="42.5072" lon="2.53792">
        <ele>1728.1</ele>
        <time>2020-09-01T08:30:36.793Z</time>
      </trkpt>
      <trkpt lat="42.50717" lon="2.53806">
        <ele>1727.7</ele>
        <time>2020-09-01T08:30:41.333Z</time>
      </trkpt>
      <trkpt lat="42.50693" lon="2.53868">
        <ele>1724.3</ele>
        <time>2020-09-01T08:30:58.376Z</time>
      </trkpt>
      <trkpt lat="42.50684" lon="2.53885">
        <ele>1724</ele>
        <time>2020-09-01T08:31:06.261Z</time>
      </trkpt>
      <trkpt lat="42.50674" lon="2.53903">
        <ele>1724.5</ele>
        <time>2020-09-01T08:32:06.017Z</time>
      </trkpt>
      <trkpt lat="42.50665" lon="2.53926">
        <ele>1722.8</ele>
        <time>2020-09-01T08:32:12.892Z</time>
      </trkpt>
      <trkpt lat="42.50656" lon="2.53957">
        <ele>1718.6</ele>
        <time>2020-09-01T08:32:21.690Z</time>
      </trkpt>
      <trkpt lat="42.50653" lon="2.53964">
        <ele>1718.5</ele>
        <time>2020-09-01T08:32:24.840Z</time>
      </trkpt>
      <trkpt lat="42.50646" lon="2.53976">
        <ele>1718.4</ele>
        <time>2020-09-01T08:32:31.428Z</time>
      </trkpt>
      <trkpt lat="42.5064" lon="2.53997">
        <ele>1718.2</ele>
        <time>2020-09-01T08:32:40.725Z</time>
      </trkpt>
      <trkpt lat="42.50628" lon="2.54011">
        <ele>1719</ele>
        <time>2020-09-01T08:33:53.080Z</time>
      </trkpt>
      <trkpt lat="42.50623" lon="2.54019">
        <ele>1717.9</ele>
        <time>2020-09-01T08:33:55.849Z</time>
      </trkpt>
      <trkpt lat="42.50607" lon="2.54032">
        <ele>1715.7</ele>
        <time>2020-09-01T08:34:02.530Z</time>
      </trkpt>
      <trkpt lat="42.50601" lon="2.54036">
        <ele>1715.1</ele>
        <time>2020-09-01T08:34:04.924Z</time>
      </trkpt>
      <trkpt lat="42.50589" lon="2.54046">
        <ele>1714.4</ele>
        <time>2020-09-01T08:34:10.227Z</time>
      </trkpt>
      <trkpt lat="42.50574" lon="2.54057">
        <ele>1689.2</ele>
        <time>2020-09-01T08:34:16.335Z</time>
      </trkpt>
      <trkpt lat="42.50564" lon="2.5407">
        <ele>1689</ele>
        <time>2020-09-01T08:34:23.858Z</time>
      </trkpt>
      <trkpt lat="42.50559" lon="2.5408">
        <ele>1688.1</ele>
        <time>2020-09-01T08:34:27.049Z</time>
        <extensions>
          <visugpx:TrkExtension xmlns:visugpx="https://www.visugpx.com/editgpx/">
            <visugpx:node>2</visugpx:node>
            </visugpx:TrkExtension>
        </extensions>
      </trkpt>
      <trkpt lat="42.50558" lon="2.54084">
        <ele>1691</ele>
        <time>2020-09-01T08:34:58.336Z</time>
      </trkpt>
      <trkpt lat="42.50556" lon="2.54097">
        <ele>1689.6</ele>
        <time>2020-09-01T08:35:01.843Z</time>
      </trkpt>
      <trkpt lat="42.50552" lon="2.54104">
        <ele>1687.9</ele>
        <time>2020-09-01T08:35:04.181Z</time>
      </trkpt>
      <trkpt lat="42.50549" lon="2.54116">
        <ele>1686.8</ele>
        <time>2020-09-01T08:35:07.527Z</time>
      </trkpt>
      <trkpt lat="42.50541" lon="2.54127">
        <ele>1684.9</ele>
        <time>2020-09-01T08:35:11.607Z</time>
      </trkpt>
      <trkpt lat="42.50528" lon="2.54138">
        <ele>1681.3</ele>
        <time>2020-09-01T08:35:17.095Z</time>
      </trkpt>
      <trkpt lat="42.50525" lon="2.54141">
        <ele>1680.6</ele>
        <time>2020-09-01T08:35:18.430Z</time>
      </trkpt>
      <trkpt lat="42.50521" lon="2.54155">
        <ele>1678.6</ele>
        <time>2020-09-01T08:35:22.395Z</time>
      </trkpt>
      <trkpt lat="42.50515" lon="2.54167">
        <ele>1678.8</ele>
        <time>2020-09-01T08:35:56.001Z</time>
      </trkpt>
      <trkpt lat="42.50511" lon="2.54182">
        <ele>1680.5</ele>
        <time>2020-09-01T08:37:54.160Z</time>
      </trkpt>
      <trkpt lat="42.50508" lon="2.54189">
        <ele>1682.1</ele>
        <time>2020-09-01T08:38:54.138Z</time>
      </trkpt>
      <trkpt lat="42.50493" lon="2.54201">
        <ele>1657.5</ele>
        <time>2020-09-01T08:39:00.375Z</time>
      </trkpt>
      <trkpt lat="42.50485" lon="2.54209">
        <ele>1656.8</ele>
        <time>2020-09-01T08:39:03.935Z</time>
      </trkpt>
      <trkpt lat="42.5048" lon="2.54211">
        <ele>1656.1</ele>
        <time>2020-09-01T08:39:05.803Z</time>
      </trkpt>
      <trkpt lat="42.50472" lon="2.54213">
        <ele>1654.5</ele>
        <time>2020-09-01T08:39:08.716Z</time>
      </trkpt>
      <trkpt lat="42.5046" lon="2.54219">
        <ele>1652.1</ele>
        <time>2020-09-01T08:39:13.297Z</time>
      </trkpt>
      <trkpt lat="42.50452" lon="2.54225">
        <ele>1650.4</ele>
        <time>2020-09-01T08:39:16.572Z</time>
      </trkpt>
      <trkpt lat="42.50448" lon="2.5423">
        <ele>1649.6</ele>
        <time>2020-09-01T08:39:18.520Z</time>
      </trkpt>
      <trkpt lat="42.50443" lon="2.5424">
        <ele>1648.7</ele>
        <time>2020-09-01T08:39:21.710Z</time>
      </trkpt>
      <trkpt lat="42.50435" lon="2.54285">
        <ele>1658.4</ele>
        <time>2020-09-01T08:45:04.609Z</time>
      </trkpt>
      <trkpt lat="42.50425" lon="2.54302">
        <ele>1658</ele>
        <time>2020-09-01T08:45:12.303Z</time>
      </trkpt>
      <trkpt lat="42.50422" lon="2.54307">
        <ele>1657.6</ele>
        <time>2020-09-01T08:45:14.006Z</time>
      </trkpt>
      <trkpt lat="42.50421" lon="2.54314">
        <ele>1656.8</ele>
        <time>2020-09-01T08:45:15.889Z</time>
      </trkpt>
      <trkpt lat="42.5042" lon="2.54325">
        <ele>1654.6</ele>
        <time>2020-09-01T08:45:18.815Z</time>
      </trkpt>
      <trkpt lat="42.50414" lon="2.54336">
        <ele>1647.4</ele>
        <time>2020-09-01T08:45:22.429Z</time>
      </trkpt>
      <trkpt lat="42.50412" lon="2.54344">
        <ele>1641.9</ele>
        <time>2020-09-01T08:45:24.659Z</time>
      </trkpt>
      <trkpt lat="42.50409" lon="2.54363">
        <ele>1635.5</ele>
        <time>2020-09-01T08:45:29.790Z</time>
      </trkpt>
      <trkpt lat="42.50409" lon="2.54379">
        <ele>1634.5</ele>
        <time>2020-09-01T08:45:34.015Z</time>
      </trkpt>
      <trkpt lat="42.50411" lon="2.54395">
        <ele>1637</ele>
        <time>2020-09-01T08:47:34.230Z</time>
      </trkpt>
      <trkpt lat="42.50417" lon="2.54437">
        <ele>1653.8</ele>
        <time>2020-09-01T08:52:51.139Z</time>
      </trkpt>
      <trkpt lat="42.50422" lon="2.54472">
        <ele>1651.6</ele>
        <time>2020-09-01T08:53:00.553Z</time>
      </trkpt>
      <trkpt lat="42.50426" lon="2.54489">
        <ele>1647.5</ele>
        <time>2020-09-01T08:53:05.265Z</time>
      </trkpt>
      <trkpt lat="42.50429" lon="2.54507">
        <ele>1640.9</ele>
        <time>2020-09-01T08:53:10.138Z</time>
      </trkpt>
      <trkpt lat="42.50431" lon="2.54519">
        <ele>1641.5</ele>
        <time>2020-09-01T08:53:56.342Z</time>
      </trkpt>
      <trkpt lat="42.50434" lon="2.54528">
        <ele>1641.5</ele>
        <time>2020-09-01T08:54:15.312Z</time>
      </trkpt>
      <trkpt lat="42.50432" lon="2.54549">
        <ele>1638.4</ele>
        <time>2020-09-01T08:54:20.903Z</time>
      </trkpt>
      <trkpt lat="42.50433" lon="2.54567">
        <ele>1633.8</ele>
        <time>2020-09-01T08:54:25.670Z</time>
      </trkpt>
      <trkpt lat="42.50433" lon="2.5459">
        <ele>1623</ele>
        <time>2020-09-01T08:54:31.743Z</time>
      </trkpt>
      <trkpt lat="42.50434" lon="2.54614">
        <ele>1623.8</ele>
        <time>2020-09-01T08:55:49.976Z</time>
      </trkpt>
      <trkpt lat="42.50435" lon="2.54633">
        <ele>1622.1</ele>
        <time>2020-09-01T08:55:55.006Z</time>
      </trkpt>
      <trkpt lat="42.50435" lon="2.54686">
        <ele>1611.1</ele>
        <time>2020-09-01T08:56:09.001Z</time>
      </trkpt>
      <trkpt lat="42.50437" lon="2.54703">
        <ele>1611.7</ele>
        <time>2020-09-01T08:57:05.798Z</time>
      </trkpt>
      <trkpt lat="42.50438" lon="2.54722">
        <ele>1610.4</ele>
        <time>2020-09-01T08:57:10.828Z</time>
      </trkpt>
      <trkpt lat="42.50438" lon="2.54725">
        <ele>1610</ele>
        <time>2020-09-01T08:57:11.620Z</time>
      </trkpt>
      <trkpt lat="42.50438" lon="2.54728">
        <ele>1609.7</ele>
        <time>2020-09-01T08:57:12.412Z</time>
      </trkpt>
      <trkpt lat="42.50438" lon="2.5473">
        <ele>1609.3</ele>
        <time>2020-09-01T08:57:12.940Z</time>
      </trkpt>
      <trkpt lat="42.50439" lon="2.54733">
        <ele>1609</ele>
        <time>2020-09-01T08:57:13.810Z</time>
      </trkpt>
      <trkpt lat="42.50439" lon="2.54736">
        <ele>1608.7</ele>
        <time>2020-09-01T08:57:14.602Z</time>
      </trkpt>
      <trkpt lat="42.50439" lon="2.54739">
        <ele>1608.4</ele>
        <time>2020-09-01T08:57:15.394Z</time>
      </trkpt>
      <trkpt lat="42.50439" lon="2.54742">
        <ele>1608.2</ele>
        <time>2020-09-01T08:57:16.186Z</time>
      </trkpt>
      <trkpt lat="42.50439" lon="2.54745">
        <ele>1607.9</ele>
        <time>2020-09-01T08:57:16.978Z</time>
      </trkpt>
      <trkpt lat="42.50439" lon="2.54748">
        <ele>1607.7</ele>
        <time>2020-09-01T08:57:17.771Z</time>
      </trkpt>
      <trkpt lat="42.50439" lon="2.5475">
        <ele>1601.1</ele>
        <time>2020-09-01T08:57:18.299Z</time>
      </trkpt>
      <trkpt lat="42.50439" lon="2.54753">
        <ele>1601</ele>
        <time>2020-09-01T08:57:19.165Z</time>
      </trkpt>
      <trkpt lat="42.50439" lon="2.54756">
        <ele>1601</ele>
        <time>2020-09-01T08:57:24.927Z</time>
      </trkpt>
      <trkpt lat="42.50439" lon="2.54758">
        <ele>1601</ele>
        <time>2020-09-01T08:57:28.768Z</time>
      </trkpt>
      <trkpt lat="42.50439" lon="2.54761">
        <ele>1601</ele>
        <time>2020-09-01T08:57:34.529Z</time>
      </trkpt>
      <trkpt lat="42.5044" lon="2.54764">
        <ele>1601</ele>
        <time>2020-09-01T08:57:40.852Z</time>
      </trkpt>
      <trkpt lat="42.5044" lon="2.54767">
        <ele>1601</ele>
        <time>2020-09-01T08:57:46.614Z</time>
      </trkpt>
      <trkpt lat="42.5044" lon="2.5477">
        <ele>1601</ele>
        <time>2020-09-01T08:57:52.375Z</time>
      </trkpt>
      <trkpt lat="42.50441" lon="2.54773">
        <ele>1601</ele>
        <time>2020-09-01T08:57:58.698Z</time>
      </trkpt>
      <trkpt lat="42.50442" lon="2.54775">
        <ele>1601</ele>
        <time>2020-09-01T08:58:03.340Z</time>
      </trkpt>
      <trkpt lat="42.50443" lon="2.54778">
        <ele>1601</ele>
        <time>2020-09-01T08:58:09.663Z</time>
      </trkpt>
      <trkpt lat="42.50443" lon="2.54782">
        <ele>1600.8</ele>
        <time>2020-09-01T08:58:10.719Z</time>
      </trkpt>
      <trkpt lat="42.50442" lon="2.54785">
        <ele>1600.5</ele>
        <time>2020-09-01T08:58:11.588Z</time>
      </trkpt>
      <trkpt lat="42.50441" lon="2.54787">
        <ele>1600.2</ele>
        <time>2020-09-01T08:58:12.226Z</time>
      </trkpt>
      <trkpt lat="42.50441" lon="2.54791">
        <ele>1600</ele>
        <time>2020-09-01T08:58:13.283Z</time>
      </trkpt>
      <trkpt lat="42.50442" lon="2.54794">
        <ele>1599.7</ele>
        <time>2020-09-01T08:58:14.152Z</time>
      </trkpt>
      <trkpt lat="42.50441" lon="2.54797">
        <ele>1599.3</ele>
        <time>2020-09-01T08:58:15.021Z</time>
      </trkpt>
      <trkpt lat="42.50441" lon="2.548">
        <ele>1598.9</ele>
        <time>2020-09-01T08:58:15.814Z</time>
      </trkpt>
      <trkpt lat="42.5044" lon="2.54803">
        <ele>1598.4</ele>
        <time>2020-09-01T08:58:16.683Z</time>
      </trkpt>
      <trkpt lat="42.50439" lon="2.54806">
        <ele>1597.9</ele>
        <time>2020-09-01T08:58:17.552Z</time>
      </trkpt>
      <trkpt lat="42.50438" lon="2.54809">
        <ele>1597.4</ele>
        <time>2020-09-01T08:58:18.422Z</time>
      </trkpt>
      <trkpt lat="42.50437" lon="2.54812">
        <ele>1596.8</ele>
        <time>2020-09-01T08:58:19.291Z</time>
      </trkpt>
      <trkpt lat="42.50437" lon="2.54815">
        <ele>1596.3</ele>
        <time>2020-09-01T08:58:20.083Z</time>
      </trkpt>
      <trkpt lat="42.50437" lon="2.54818">
        <ele>1595.8</ele>
        <time>2020-09-01T08:58:20.876Z</time>
      </trkpt>
      <trkpt lat="42.50437" lon="2.54821">
        <ele>1595.4</ele>
        <time>2020-09-01T08:58:21.668Z</time>
      </trkpt>
      <trkpt lat="42.50437" lon="2.54825">
        <ele>1595</ele>
        <time>2020-09-01T08:58:22.724Z</time>
      </trkpt>
      <trkpt lat="42.50438" lon="2.54828">
        <ele>1594.8</ele>
        <time>2020-09-01T08:58:23.593Z</time>
      </trkpt>
      <trkpt lat="42.50438" lon="2.54832">
        <ele>1594.6</ele>
        <time>2020-09-01T08:58:24.650Z</time>
      </trkpt>
      <trkpt lat="42.50438" lon="2.54835">
        <ele>1585.1</ele>
        <time>2020-09-01T08:58:25.442Z</time>
      </trkpt>
      <trkpt lat="42.50438" lon="2.54838">
        <ele>1585</ele>
        <time>2020-09-01T08:58:26.308Z</time>
      </trkpt>
      <trkpt lat="42.50438" lon="2.54841">
        <ele>1584.9</ele>
        <time>2020-09-01T08:58:27.175Z</time>
      </trkpt>
      <trkpt lat="42.50438" lon="2.54844">
        <ele>1584.7</ele>
        <time>2020-09-01T08:58:27.967Z</time>
      </trkpt>
      <trkpt lat="42.50438" lon="2.54848">
        <ele>1584.4</ele>
        <time>2020-09-01T08:58:29.024Z</time>
      </trkpt>
      <trkpt lat="42.50437" lon="2.54851">
        <ele>1584.2</ele>
        <time>2020-09-01T08:58:29.893Z</time>
      </trkpt>
      <trkpt lat="42.50435" lon="2.54854">
        <ele>1583.8</ele>
        <time>2020-09-01T08:58:30.961Z</time>
      </trkpt>
      <trkpt lat="42.50435" lon="2.54856">
        <ele>1583.6</ele>
        <time>2020-09-01T08:58:31.489Z</time>
      </trkpt>
      <trkpt lat="42.50433" lon="2.54859">
        <ele>1583.2</ele>
        <time>2020-09-01T08:58:32.557Z</time>
      </trkpt>
      <trkpt lat="42.50432" lon="2.54862">
        <ele>1582.8</ele>
        <time>2020-09-01T08:58:33.427Z</time>
      </trkpt>
      <trkpt lat="42.50431" lon="2.54865">
        <ele>1582.4</ele>
        <time>2020-09-01T08:58:34.296Z</time>
      </trkpt>
      <trkpt lat="42.5043" lon="2.54868">
        <ele>1581.9</ele>
        <time>2020-09-01T08:58:35.165Z</time>
      </trkpt>
      <trkpt lat="42.50428" lon="2.5487">
        <ele>1581.4</ele>
        <time>2020-09-01T08:58:36.055Z</time>
      </trkpt>
      <trkpt lat="42.50427" lon="2.54873">
        <ele>1580.9</ele>
        <time>2020-09-01T08:58:36.925Z</time>
      </trkpt>
      <trkpt lat="42.50426" lon="2.54876">
        <ele>1580.3</ele>
        <time>2020-09-01T08:58:37.794Z</time>
      </trkpt>
      <trkpt lat="42.50425" lon="2.54879">
        <ele>1579.7</ele>
        <time>2020-09-01T08:58:38.664Z</time>
      </trkpt>
      <trkpt lat="42.50424" lon="2.54882">
        <ele>1579.1</ele>
        <time>2020-09-01T08:58:39.533Z</time>
      </trkpt>
      <trkpt lat="42.50423" lon="2.54885">
        <ele>1578.3</ele>
        <time>2020-09-01T08:58:40.402Z</time>
      </trkpt>
      <trkpt lat="42.50422" lon="2.54888">
        <ele>1577.5</ele>
        <time>2020-09-01T08:58:41.272Z</time>
      </trkpt>
      <trkpt lat="42.50421" lon="2.54891">
        <ele>1576.6</ele>
        <time>2020-09-01T08:58:42.141Z</time>
      </trkpt>
      <trkpt lat="42.5042" lon="2.54894">
        <ele>1575.7</ele>
        <time>2020-09-01T08:58:43.011Z</time>
      </trkpt>
      <trkpt lat="42.50419" lon="2.54897">
        <ele>1574.7</ele>
        <time>2020-09-01T08:58:43.880Z</time>
      </trkpt>
      <trkpt lat="42.50418" lon="2.549">
        <ele>1573.7</ele>
        <time>2020-09-01T08:58:44.749Z</time>
      </trkpt>
      <trkpt lat="42.50416" lon="2.54903">
        <ele>1564.1</ele>
        <time>2020-09-01T08:58:45.817Z</time>
      </trkpt>
      <trkpt lat="42.50415" lon="2.54906">
        <ele>1564.1</ele>
        <time>2020-09-01T08:58:52.141Z</time>
      </trkpt>
      <trkpt lat="42.50414" lon="2.54909">
        <ele>1564.2</ele>
        <time>2020-09-01T08:59:02.296Z</time>
      </trkpt>
      <trkpt lat="42.50413" lon="2.54912">
        <ele>1564.3</ele>
        <time>2020-09-01T08:59:12.451Z</time>
      </trkpt>
      <trkpt lat="42.50412" lon="2.54914">
        <ele>1564.4</ele>
        <time>2020-09-01T08:59:20.906Z</time>
      </trkpt>
      <trkpt lat="42.50412" lon="2.54917">
        <ele>1562</ele>
        <time>2020-09-01T08:59:21.698Z</time>
      </trkpt>
      <trkpt lat="42.50411" lon="2.5492">
        <ele>1561.2</ele>
        <time>2020-09-01T08:59:22.568Z</time>
      </trkpt>
      <trkpt lat="42.5041" lon="2.54922">
        <ele>1560.1</ele>
        <time>2020-09-01T08:59:23.206Z</time>
      </trkpt>
      <trkpt lat="42.5041" lon="2.54925">
        <ele>1559.2</ele>
        <time>2020-09-01T08:59:23.998Z</time>
      </trkpt>
      <trkpt lat="42.50409" lon="2.54928">
        <ele>1558.2</ele>
        <time>2020-09-01T08:59:24.868Z</time>
      </trkpt>
      <trkpt lat="42.50412" lon="2.5493">
        <ele>1557.9</ele>
        <time>2020-09-01T08:59:26.065Z</time>
      </trkpt>
      <trkpt lat="42.50414" lon="2.5493">
        <ele>1558.3</ele>
        <time>2020-09-01T08:59:46.161Z</time>
      </trkpt>
      <trkpt lat="42.50416" lon="2.54931">
        <ele>1558.2</ele>
        <time>2020-09-01T08:59:46.983Z</time>
      </trkpt>
      <trkpt lat="42.50419" lon="2.54932">
        <ele>1563.3</ele>
        <time>2020-09-01T09:00:18.024Z</time>
      </trkpt>
      <trkpt lat="42.50421" lon="2.54933">
        <ele>1563.1</ele>
        <time>2020-09-01T09:00:18.788Z</time>
      </trkpt>
      <trkpt lat="42.50424" lon="2.54935">
        <ele>1563</ele>
        <time>2020-09-01T09:00:20.308Z</time>
      </trkpt>
      <trkpt lat="42.50427" lon="2.54936">
        <ele>1562.9</ele>
        <time>2020-09-01T09:00:21.678Z</time>
      </trkpt>
      <trkpt lat="42.50429" lon="2.54937">
        <ele>1562.8</ele>
        <time>2020-09-01T09:00:22.500Z</time>
      </trkpt>
      <trkpt lat="42.50432" lon="2.54939">
        <ele>1562.7</ele>
        <time>2020-09-01T09:00:24.021Z</time>
      </trkpt>
      <trkpt lat="42.50434" lon="2.5494">
        <ele>1562.5</ele>
        <time>2020-09-01T09:00:24.784Z</time>
      </trkpt>
      <trkpt lat="42.50437" lon="2.54942">
        <ele>1562.4</ele>
        <time>2020-09-01T09:00:26.305Z</time>
      </trkpt>
      <trkpt lat="42.50439" lon="2.54943">
        <ele>1562.3</ele>
        <time>2020-09-01T09:00:27.127Z</time>
      </trkpt>
      <trkpt lat="42.50441" lon="2.54945">
        <ele>1562.2</ele>
        <time>2020-09-01T09:00:28.147Z</time>
      </trkpt>
      <trkpt lat="42.50444" lon="2.54947">
        <ele>1562.1</ele>
        <time>2020-09-01T09:00:29.667Z</time>
      </trkpt>
      <trkpt lat="42.50446" lon="2.54949">
        <ele>1562</ele>
        <time>2020-09-01T09:00:30.687Z</time>
      </trkpt>
      <trkpt lat="42.50448" lon="2.54951">
        <ele>1561.8</ele>
        <time>2020-09-01T09:00:31.577Z</time>
      </trkpt>
      <trkpt lat="42.5045" lon="2.54953">
        <ele>1561.7</ele>
        <time>2020-09-01T09:00:32.596Z</time>
      </trkpt>
      <trkpt lat="42.50452" lon="2.54955">
        <ele>1561.6</ele>
        <time>2020-09-01T09:00:33.616Z</time>
      </trkpt>
      <trkpt lat="42.50454" lon="2.54956">
        <ele>1561.6</ele>
        <time>2020-09-01T09:00:39.168Z</time>
      </trkpt>
      <trkpt lat="42.50457" lon="2.54956">
        <ele>1561.7</ele>
        <time>2020-09-01T09:00:50.418Z</time>
      </trkpt>
      <trkpt lat="42.50459" lon="2.54957">
        <ele>1561.7</ele>
        <time>2020-09-01T09:00:55.971Z</time>
      </trkpt>
      <trkpt lat="42.50461" lon="2.54958">
        <ele>1561.7</ele>
        <time>2020-09-01T09:01:01.524Z</time>
      </trkpt>
      <trkpt lat="42.50464" lon="2.54959">
        <ele>1561.7</ele>
        <time>2020-09-01T09:01:09.572Z</time>
      </trkpt>
      <trkpt lat="42.50466" lon="2.54959">
        <ele>1561.8</ele>
        <time>2020-09-01T09:01:18.682Z</time>
      </trkpt>
      <trkpt lat="42.50468" lon="2.5496">
        <ele>1561.7</ele>
        <time>2020-09-01T09:01:19.504Z</time>
      </trkpt>
      <trkpt lat="42.5047" lon="2.54962">
        <ele>1561.6</ele>
        <time>2020-09-01T09:01:20.524Z</time>
      </trkpt>
      <trkpt lat="42.50472" lon="2.54963">
        <ele>1561.4</ele>
        <time>2020-09-01T09:01:21.287Z</time>
      </trkpt>
      <trkpt lat="42.50474" lon="2.54965">
        <ele>1561.2</ele>
        <time>2020-09-01T09:01:22.177Z</time>
      </trkpt>
      <trkpt lat="42.50476" lon="2.54967">
        <ele>1560.9</ele>
        <time>2020-09-01T09:01:23.067Z</time>
      </trkpt>
      <trkpt lat="42.50473" lon="2.54968">
        <ele>1560.7</ele>
        <time>2020-09-01T09:01:24.096Z</time>
      </trkpt>
      <trkpt lat="42.50471" lon="2.54969">
        <ele>1560.5</ele>
        <time>2020-09-01T09:01:24.859Z</time>
      </trkpt>
      <trkpt lat="42.50469" lon="2.5497">
        <ele>1560.3</ele>
        <time>2020-09-01T09:01:25.623Z</time>
      </trkpt>
      <trkpt lat="42.50467" lon="2.54971">
        <ele>1560.2</ele>
        <time>2020-09-01T09:01:26.445Z</time>
      </trkpt>
      <trkpt lat="42.50463" lon="2.54973">
        <ele>1559.8</ele>
        <time>2020-09-01T09:01:27.972Z</time>
      </trkpt>
      <trkpt lat="42.50461" lon="2.54975">
        <ele>1559.5</ele>
        <time>2020-09-01T09:01:28.862Z</time>
      </trkpt>
      <trkpt lat="42.50459" lon="2.54977">
        <ele>1559.3</ele>
        <time>2020-09-01T09:01:29.752Z</time>
      </trkpt>
      <trkpt lat="42.50455" lon="2.54979">
        <ele>1558.9</ele>
        <time>2020-09-01T09:01:31.279Z</time>
      </trkpt>
      <trkpt lat="42.5045" lon="2.54981">
        <ele>1558.5</ele>
        <time>2020-09-01T09:01:33.147Z</time>
      </trkpt>
      <trkpt lat="42.50421" lon="2.54997">
        <ele>1552.3</ele>
        <time>2020-09-01T09:01:44.360Z</time>
      </trkpt>
      <trkpt lat="42.50405" lon="2.55004">
        <ele>1545.3</ele>
        <time>2020-09-01T09:01:50.382Z</time>
      </trkpt>
      <trkpt lat="42.50379" lon="2.5501">
        <ele>1540.2</ele>
        <time>2020-09-01T09:01:59.829Z</time>
      </trkpt>
      <trkpt lat="42.50373" lon="2.55013">
        <ele>1539.5</ele>
        <time>2020-09-01T09:02:02.119Z</time>
      </trkpt>
      <trkpt lat="42.50369" lon="2.55017">
        <ele>1539</ele>
        <time>2020-09-01T09:02:03.899Z</time>
      </trkpt>
      <trkpt lat="42.50364" lon="2.55021">
        <ele>1538.4</ele>
        <time>2020-09-01T09:02:05.978Z</time>
      </trkpt>
      <trkpt lat="42.5036" lon="2.55029">
        <ele>1537.9</ele>
        <time>2020-09-01T09:02:08.531Z</time>
      </trkpt>
      <trkpt lat="42.50358" lon="2.55032">
        <ele>1537.5</ele>
        <time>2020-09-01T09:02:09.599Z</time>
      </trkpt>
      <trkpt lat="42.50352" lon="2.55048">
        <ele>1536.1</ele>
        <time>2020-09-01T09:02:14.339Z</time>
      </trkpt>
      <trkpt lat="42.50348" lon="2.55053">
        <ele>1535.5</ele>
        <time>2020-09-01T09:02:16.287Z</time>
      </trkpt>
      <trkpt lat="42.50345" lon="2.55057">
        <ele>1534.9</ele>
        <time>2020-09-01T09:02:17.794Z</time>
      </trkpt>
      <trkpt lat="42.5033" lon="2.55077">
        <ele>1527.3</ele>
        <time>2020-09-01T09:02:25.328Z</time>
      </trkpt>
      <trkpt lat="42.5032" lon="2.55092">
        <ele>1522.3</ele>
        <time>2020-09-01T09:02:30.668Z</time>
      </trkpt>
      <trkpt lat="42.50309" lon="2.55104">
        <ele>1518.3</ele>
        <time>2020-09-01T09:02:35.724Z</time>
      </trkpt>
      <trkpt lat="42.50292" lon="2.5512">
        <ele>1515.1</ele>
        <time>2020-09-01T09:02:43.136Z</time>
      </trkpt>
      <trkpt lat="42.50288" lon="2.55122">
        <ele>1514.6</ele>
        <time>2020-09-01T09:02:44.663Z</time>
      </trkpt>
      <trkpt lat="42.50284" lon="2.55123">
        <ele>1514.2</ele>
        <time>2020-09-01T09:02:46.120Z</time>
      </trkpt>
      <trkpt lat="42.50281" lon="2.55123">
        <ele>1513.9</ele>
        <time>2020-09-01T09:02:47.194Z</time>
      </trkpt>
      <trkpt lat="42.50277" lon="2.55122">
        <ele>1513.6</ele>
        <time>2020-09-01T09:02:48.651Z</time>
      </trkpt>
      <trkpt lat="42.50275" lon="2.55121">
        <ele>1513.5</ele>
        <time>2020-09-01T09:02:49.474Z</time>
      </trkpt>
      <trkpt lat="42.50273" lon="2.55118">
        <ele>1513.4</ele>
        <time>2020-09-01T09:02:50.780Z</time>
      </trkpt>
      <trkpt lat="42.50271" lon="2.55116">
        <ele>1513.3</ele>
        <time>2020-09-01T09:02:51.800Z</time>
      </trkpt>
      <trkpt lat="42.5027" lon="2.55111">
        <ele>1513.3</ele>
        <time>2020-09-01T09:03:01.750Z</time>
      </trkpt>
      <trkpt lat="42.50269" lon="2.55107">
        <ele>1513.4</ele>
        <time>2020-09-01T09:03:13.242Z</time>
      </trkpt>
      <trkpt lat="42.50266" lon="2.55084">
        <ele>1512.8</ele>
        <time>2020-09-01T09:03:20.689Z</time>
      </trkpt>
      <trkpt lat="42.5026" lon="2.55036">
        <ele>1517.9</ele>
        <time>2020-09-01T09:09:21.340Z</time>
      </trkpt>
      <trkpt lat="42.50256" lon="2.55016">
        <ele>1515.6</ele>
        <time>2020-09-01T09:09:26.812Z</time>
      </trkpt>
      <trkpt lat="42.50255" lon="2.55005">
        <ele>1513.1</ele>
        <time>2020-09-01T09:09:29.739Z</time>
      </trkpt>
      <trkpt lat="42.50256" lon="2.54992">
        <ele>1514.5</ele>
        <time>2020-09-01T09:11:06.564Z</time>
      </trkpt>
      <trkpt lat="42.50259" lon="2.54971">
        <ele>1518.7</ele>
        <time>2020-09-01T09:13:45.023Z</time>
      </trkpt>
      <trkpt lat="42.5026" lon="2.54955">
        <ele>1519.1</ele>
        <time>2020-09-01T09:14:29.684Z</time>
      </trkpt>
      <trkpt lat="42.50259" lon="2.5494">
        <ele>1517.6</ele>
        <time>2020-09-01T09:14:33.662Z</time>
      </trkpt>
      <trkpt lat="42.50257" lon="2.54923">
        <ele>1512.8</ele>
        <time>2020-09-01T09:14:38.208Z</time>
      </trkpt>
      <trkpt lat="42.50255" lon="2.54909">
        <ele>1513.5</ele>
        <time>2020-09-01T09:15:31.934Z</time>
      </trkpt>
      <trkpt lat="42.50251" lon="2.54888">
        <ele>1519.8</ele>
        <time>2020-09-01T09:18:12.607Z</time>
      </trkpt>
      <trkpt lat="42.50247" lon="2.54868">
        <ele>1495.8</ele>
        <time>2020-09-01T09:18:18.079Z</time>
      </trkpt>
      <trkpt lat="42.50246" lon="2.54851">
        <ele>1499.7</ele>
        <time>2020-09-01T09:20:24.413Z</time>
      </trkpt>
      <trkpt lat="42.50246" lon="2.54839">
        <ele>1506.2</ele>
        <time>2020-09-01T09:21:53.308Z</time>
      </trkpt>
      <trkpt lat="42.50246" lon="2.54834">
        <ele>1507.9</ele>
        <time>2020-09-01T09:22:30.347Z</time>
      </trkpt>
      <trkpt lat="42.50245" lon="2.54832">
        <ele>1507.7</ele>
        <time>2020-09-01T09:22:30.985Z</time>
      </trkpt>
      <trkpt lat="42.50244" lon="2.5483">
        <ele>1506.5</ele>
        <time>2020-09-01T09:22:31.623Z</time>
      </trkpt>
      <trkpt lat="42.50242" lon="2.54829">
        <ele>1505.6</ele>
        <time>2020-09-01T09:22:32.387Z</time>
      </trkpt>
      <trkpt lat="42.50241" lon="2.54829">
        <ele>1504.9</ele>
        <time>2020-09-01T09:22:32.745Z</time>
      </trkpt>
      <trkpt lat="42.5024" lon="2.54829">
        <ele>1504.3</ele>
        <time>2020-09-01T09:22:33.103Z</time>
      </trkpt>
      <trkpt lat="42.50239" lon="2.54831">
        <ele>1503.8</ele>
        <time>2020-09-01T09:22:33.741Z</time>
      </trkpt>
      <trkpt lat="42.50238" lon="2.54833">
        <ele>1503.5</ele>
        <time>2020-09-01T09:22:34.379Z</time>
      </trkpt>
      <trkpt lat="42.50238" lon="2.54836">
        <ele>1501.9</ele>
        <time>2020-09-01T09:22:35.172Z</time>
      </trkpt>
      <trkpt lat="42.50238" lon="2.54843">
        <ele>1500.1</ele>
        <time>2020-09-01T09:22:37.020Z</time>
      </trkpt>
      <trkpt lat="42.50238" lon="2.54888">
        <ele>1494.2</ele>
        <time>2020-09-01T09:22:48.903Z</time>
      </trkpt>
      <trkpt lat="42.50237" lon="2.54912">
        <ele>1498.2</ele>
        <time>2020-09-01T09:25:46.976Z</time>
      </trkpt>
      <trkpt lat="42.50236" lon="2.54928">
        <ele>1496.1</ele>
        <time>2020-09-01T09:25:51.216Z</time>
      </trkpt>
      <trkpt lat="42.50235" lon="2.54936">
        <ele>1494.2</ele>
        <time>2020-09-01T09:25:53.359Z</time>
      </trkpt>
      <trkpt lat="42.50232" lon="2.54935">
        <ele>1493.8</ele>
        <time>2020-09-01T09:25:54.466Z</time>
      </trkpt>
      <trkpt lat="42.50231" lon="2.54933">
        <ele>1493.4</ele>
        <time>2020-09-01T09:25:55.104Z</time>
      </trkpt>
      <trkpt lat="42.50229" lon="2.5493">
        <ele>1493.3</ele>
        <time>2020-09-01T09:25:56.410Z</time>
      </trkpt>
      <trkpt lat="42.50228" lon="2.54928">
        <ele>1493.2</ele>
        <time>2020-09-01T09:25:57.046Z</time>
      </trkpt>
      <trkpt lat="42.50227" lon="2.54925">
        <ele>1493</ele>
        <time>2020-09-01T09:25:57.915Z</time>
      </trkpt>
      <trkpt lat="42.50225" lon="2.54923">
        <ele>1492.4</ele>
        <time>2020-09-01T09:25:58.805Z</time>
      </trkpt>
      <trkpt lat="42.50224" lon="2.54921">
        <ele>1492</ele>
        <time>2020-09-01T09:25:59.443Z</time>
      </trkpt>
      <trkpt lat="42.50222" lon="2.54917">
        <ele>1491.2</ele>
        <time>2020-09-01T09:26:00.720Z</time>
      </trkpt>
      <trkpt lat="42.50219" lon="2.54915">
        <ele>1490.4</ele>
        <time>2020-09-01T09:26:01.917Z</time>
      </trkpt>
      <trkpt lat="42.50217" lon="2.54915">
        <ele>1489.5</ele>
        <time>2020-09-01T09:26:02.633Z</time>
      </trkpt>
      <trkpt lat="42.50215" lon="2.54915">
        <ele>1488.7</ele>
        <time>2020-09-01T09:26:03.350Z</time>
      </trkpt>
      <trkpt lat="42.50213" lon="2.54915">
        <ele>1488</ele>
        <time>2020-09-01T09:26:04.066Z</time>
      </trkpt>
      <trkpt lat="42.50211" lon="2.54915">
        <ele>1487</ele>
        <time>2020-09-01T09:26:04.782Z</time>
      </trkpt>
      <trkpt lat="42.5021" lon="2.54914">
        <ele>1486.4</ele>
        <time>2020-09-01T09:26:05.227Z</time>
      </trkpt>
      <trkpt lat="42.50209" lon="2.54912">
        <ele>1486.3</ele>
        <time>2020-09-01T09:26:05.863Z</time>
      </trkpt>
      <trkpt lat="42.50208" lon="2.54911">
        <ele>1485.6</ele>
        <time>2020-09-01T09:26:06.308Z</time>
      </trkpt>
      <trkpt lat="42.50206" lon="2.54911">
        <ele>1485.1</ele>
        <time>2020-09-01T09:26:07.024Z</time>
      </trkpt>
      <trkpt lat="42.50206" lon="2.54907">
        <ele>1484.9</ele>
        <time>2020-09-01T09:26:08.080Z</time>
      </trkpt>
      <trkpt lat="42.50204" lon="2.54898">
        <ele>1484.6</ele>
        <time>2020-09-01T09:26:10.844Z</time>
      </trkpt>
      <trkpt lat="42.50197" lon="2.54865">
        <ele>1483.7</ele>
        <time>2020-09-01T09:26:21.715Z</time>
      </trkpt>
      <trkpt lat="42.50192" lon="2.54836">
        <ele>1480.8</ele>
        <time>2020-09-01T09:26:29.580Z</time>
      </trkpt>
      <trkpt lat="42.5019" lon="2.54813">
        <ele>1484.1</ele>
        <time>2020-09-01T09:29:21.143Z</time>
      </trkpt>
      <trkpt lat="42.50188" lon="2.54789">
        <ele>1485.8</ele>
        <time>2020-09-01T09:31:16.673Z</time>
      </trkpt>
      <trkpt lat="42.50187" lon="2.54766">
        <ele>1484.3</ele>
        <time>2020-09-01T09:31:22.757Z</time>
      </trkpt>
      <trkpt lat="42.50186" lon="2.54752">
        <ele>1482.6</ele>
        <time>2020-09-01T09:31:26.471Z</time>
      </trkpt>
      <trkpt lat="42.50185" lon="2.54745">
        <ele>1485.2</ele>
        <time>2020-09-01T09:32:19.291Z</time>
      </trkpt>
      <trkpt lat="42.50184" lon="2.54741">
        <ele>1485.3</ele>
        <time>2020-09-01T09:32:30.784Z</time>
      </trkpt>
      <trkpt lat="42.50183" lon="2.54739">
        <ele>1485.3</ele>
        <time>2020-09-01T09:32:35.425Z</time>
      </trkpt>
      <trkpt lat="42.50182" lon="2.54738">
        <ele>1485.2</ele>
        <time>2020-09-01T09:32:35.870Z</time>
      </trkpt>
      <trkpt lat="42.5018" lon="2.54737">
        <ele>1484.9</ele>
        <time>2020-09-01T09:32:36.634Z</time>
      </trkpt>
      <trkpt lat="42.50178" lon="2.54736">
        <ele>1484.4</ele>
        <time>2020-09-01T09:32:37.397Z</time>
      </trkpt>
      <trkpt lat="42.50176" lon="2.54737">
        <ele>1483.4</ele>
        <time>2020-09-01T09:32:38.161Z</time>
      </trkpt>
      <trkpt lat="42.50172" lon="2.5472">
        <ele>1487.6</ele>
        <time>2020-09-01T09:34:50.354Z</time>
      </trkpt>
      <trkpt lat="42.50169" lon="2.54709">
        <ele>1488.6</ele>
        <time>2020-09-01T09:35:59.471Z</time>
      </trkpt>
      <trkpt lat="42.50167" lon="2.54704">
        <ele>1488.7</ele>
        <time>2020-09-01T09:36:13.449Z</time>
      </trkpt>
      <trkpt lat="42.50169" lon="2.54701">
        <ele>1488.9</ele>
        <time>2020-09-01T09:36:28.742Z</time>
      </trkpt>
      <trkpt lat="42.5017" lon="2.54698">
        <ele>1488.9</ele>
        <time>2020-09-01T09:36:35.066Z</time>
      </trkpt>
      <trkpt lat="42.50169" lon="2.54695">
        <ele>1488.7</ele>
        <time>2020-09-01T09:36:35.935Z</time>
      </trkpt>
      <trkpt lat="42.50169" lon="2.54692">
        <ele>1488.2</ele>
        <time>2020-09-01T09:36:36.727Z</time>
      </trkpt>
      <trkpt lat="42.50168" lon="2.54687">
        <ele>1487.4</ele>
        <time>2020-09-01T09:36:38.095Z</time>
      </trkpt>
      <trkpt lat="42.50166" lon="2.54684">
        <ele>1466.7</ele>
        <time>2020-09-01T09:36:39.163Z</time>
      </trkpt>
      <trkpt lat="42.50164" lon="2.54682">
        <ele>1467.6</ele>
        <time>2020-09-01T09:37:04.131Z</time>
      </trkpt>
      <trkpt lat="42.50163" lon="2.54678">
        <ele>1469.1</ele>
        <time>2020-09-01T09:37:35.420Z</time>
      </trkpt>
      <trkpt lat="42.50161" lon="2.54674">
        <ele>1470.8</ele>
        <time>2020-09-01T09:38:11.223Z</time>
      </trkpt>
      <trkpt lat="42.5016" lon="2.5467">
        <ele>1472</ele>
        <time>2020-09-01T09:38:42.512Z</time>
      </trkpt>
      <trkpt lat="42.50159" lon="2.54666">
        <ele>1475.3</ele>
        <time>2020-09-01T09:39:13.802Z</time>
      </trkpt>
      <trkpt lat="42.50159" lon="2.54661">
        <ele>1474.5</ele>
        <time>2020-09-01T09:39:15.122Z</time>
      </trkpt>
      <trkpt lat="42.50158" lon="2.54657">
        <ele>1473.7</ele>
        <time>2020-09-01T09:39:16.237Z</time>
      </trkpt>
      <trkpt lat="42.50158" lon="2.54653">
        <ele>1472.8</ele>
        <time>2020-09-01T09:39:17.294Z</time>
      </trkpt>
      <trkpt lat="42.50157" lon="2.54649">
        <ele>1472.2</ele>
        <time>2020-09-01T09:39:18.409Z</time>
      </trkpt>
      <trkpt lat="42.50156" lon="2.54644">
        <ele>1471.7</ele>
        <time>2020-09-01T09:39:19.777Z</time>
      </trkpt>
      <trkpt lat="42.50156" lon="2.54641">
        <ele>1471.5</ele>
        <time>2020-09-01T09:39:20.569Z</time>
      </trkpt>
      <trkpt lat="42.50154" lon="2.54637">
        <ele>1471.3</ele>
        <time>2020-09-01T09:39:21.840Z</time>
      </trkpt>
      <trkpt lat="42.50153" lon="2.54632">
        <ele>1471.3</ele>
        <time>2020-09-01T09:39:31.790Z</time>
      </trkpt>
      <trkpt lat="42.50152" lon="2.54628">
        <ele>1471.5</ele>
        <time>2020-09-01T09:39:47.432Z</time>
      </trkpt>
      <trkpt lat="42.50152" lon="2.54624">
        <ele>1471.9</ele>
        <time>2020-09-01T09:40:17.064Z</time>
      </trkpt>
      <trkpt lat="42.50151" lon="2.54621">
        <ele>1472.3</ele>
        <time>2020-09-01T09:40:41.454Z</time>
      </trkpt>
      <trkpt lat="42.50149" lon="2.54618">
        <ele>1472.5</ele>
        <time>2020-09-01T09:40:56.748Z</time>
      </trkpt>
      <trkpt lat="42.50148" lon="2.54614">
        <ele>1473</ele>
        <time>2020-09-01T09:41:28.037Z</time>
      </trkpt>
      <trkpt lat="42.50148" lon="2.5461">
        <ele>1473.9</ele>
        <time>2020-09-01T09:41:57.669Z</time>
      </trkpt>
      <trkpt lat="42.50147" lon="2.54607">
        <ele>1474.3</ele>
        <time>2020-09-01T09:42:22.059Z</time>
      </trkpt>
      <trkpt lat="42.50146" lon="2.54603">
        <ele>1475</ele>
        <time>2020-09-01T09:42:53.348Z</time>
      </trkpt>
      <trkpt lat="42.50145" lon="2.546">
        <ele>1475.2</ele>
        <time>2020-09-01T09:43:07.384Z</time>
      </trkpt>
      <trkpt lat="42.50142" lon="2.54597">
        <ele>1474.9</ele>
        <time>2020-09-01T09:43:08.719Z</time>
      </trkpt>
      <trkpt lat="42.5014" lon="2.54594">
        <ele>1474.5</ele>
        <time>2020-09-01T09:43:09.787Z</time>
      </trkpt>
      <trkpt lat="42.50138" lon="2.54592">
        <ele>1473.6</ele>
        <time>2020-09-01T09:43:10.677Z</time>
      </trkpt>
      <trkpt lat="42.50135" lon="2.54589">
        <ele>1472.8</ele>
        <time>2020-09-01T09:43:12.012Z</time>
      </trkpt>
      <trkpt lat="42.50133" lon="2.54585">
        <ele>1472.1</ele>
        <time>2020-09-01T09:43:13.288Z</time>
      </trkpt>
      <trkpt lat="42.5013" lon="2.54582">
        <ele>1481.8</ele>
        <time>2020-09-01T09:43:50.739Z</time>
      </trkpt>
      <trkpt lat="42.50128" lon="2.54579">
        <ele>1481.1</ele>
        <time>2020-09-01T09:43:51.807Z</time>
      </trkpt>
      <trkpt lat="42.50126" lon="2.54576">
        <ele>1480.4</ele>
        <time>2020-09-01T09:43:52.875Z</time>
      </trkpt>
      <trkpt lat="42.50124" lon="2.54572">
        <ele>1480</ele>
        <time>2020-09-01T09:43:54.151Z</time>
      </trkpt>
      <trkpt lat="42.50124" lon="2.54568">
        <ele>1480.1</ele>
        <time>2020-09-01T09:44:05.295Z</time>
      </trkpt>
      <trkpt lat="42.50123" lon="2.54565">
        <ele>1480.2</ele>
        <time>2020-09-01T09:44:15.451Z</time>
      </trkpt>
      <trkpt lat="42.50122" lon="2.54562">
        <ele>1480.1</ele>
        <time>2020-09-01T09:44:16.438Z</time>
      </trkpt>
      <trkpt lat="42.5012" lon="2.54559">
        <ele>1479.8</ele>
        <time>2020-09-01T09:44:17.506Z</time>
      </trkpt>
      <trkpt lat="42.50118" lon="2.54556">
        <ele>1479.6</ele>
        <time>2020-09-01T09:44:18.574Z</time>
      </trkpt>
      <trkpt lat="42.50116" lon="2.54553">
        <ele>1479.4</ele>
        <time>2020-09-01T09:44:19.642Z</time>
      </trkpt>
      <trkpt lat="42.50114" lon="2.5455">
        <ele>1479.2</ele>
        <time>2020-09-01T09:44:20.710Z</time>
      </trkpt>
      <trkpt lat="42.50112" lon="2.54547">
        <ele>1479.2</ele>
        <time>2020-09-01T09:44:28.478Z</time>
      </trkpt>
      <trkpt lat="42.50112" lon="2.54544">
        <ele>1479.4</ele>
        <time>2020-09-01T09:44:42.183Z</time>
      </trkpt>
      <trkpt lat="42.50111" lon="2.54541">
        <ele>1479.3</ele>
        <time>2020-09-01T09:44:43.170Z</time>
      </trkpt>
      <trkpt lat="42.50109" lon="2.54538">
        <ele>1479.3</ele>
        <time>2020-09-01T09:44:50.938Z</time>
      </trkpt>
      <trkpt lat="42.50108" lon="2.54534">
        <ele>1479.5</ele>
        <time>2020-09-01T09:45:06.580Z</time>
      </trkpt>
      <trkpt lat="42.50107" lon="2.54531">
        <ele>1479.4</ele>
        <time>2020-09-01T09:45:07.567Z</time>
      </trkpt>
      <trkpt lat="42.50106" lon="2.54527">
        <ele>1479.2</ele>
        <time>2020-09-01T09:45:08.609Z</time>
      </trkpt>
      <trkpt lat="42.50105" lon="2.54524">
        <ele>1479</ele>
        <time>2020-09-01T09:45:09.478Z</time>
      </trkpt>
      <trkpt lat="42.50104" lon="2.5452">
        <ele>1478.8</ele>
        <time>2020-09-01T09:45:10.519Z</time>
      </trkpt>
      <trkpt lat="42.50103" lon="2.54517">
        <ele>1478.3</ele>
        <time>2020-09-01T09:45:11.388Z</time>
      </trkpt>
      <trkpt lat="42.50101" lon="2.54513">
        <ele>1477.7</ele>
        <time>2020-09-01T09:45:12.665Z</time>
      </trkpt>
      <trkpt lat="42.501" lon="2.54509">
        <ele>1477.1</ele>
        <time>2020-09-01T09:45:13.780Z</time>
      </trkpt>
      <trkpt lat="42.50099" lon="2.54506">
        <ele>1476.3</ele>
        <time>2020-09-01T09:45:14.650Z</time>
      </trkpt>
      <trkpt lat="42.50098" lon="2.54502">
        <ele>1475.9</ele>
        <time>2020-09-01T09:45:15.765Z</time>
      </trkpt>
      <trkpt lat="42.50097" lon="2.54498">
        <ele>1481.6</ele>
        <time>2020-09-01T09:45:47.054Z</time>
      </trkpt>
      <trkpt lat="42.50095" lon="2.54495">
        <ele>1481.1</ele>
        <time>2020-09-01T09:45:48.122Z</time>
      </trkpt>
      <trkpt lat="42.50093" lon="2.54492">
        <ele>1480.7</ele>
        <time>2020-09-01T09:45:49.191Z</time>
      </trkpt>
      <trkpt lat="42.50092" lon="2.54488">
        <ele>1481.9</ele>
        <time>2020-09-01T09:46:20.480Z</time>
      </trkpt>
      <trkpt lat="42.5009" lon="2.54485">
        <ele>1483</ele>
        <time>2020-09-01T09:46:50.443Z</time>
      </trkpt>
      <trkpt lat="42.50089" lon="2.54481">
        <ele>1484.3</ele>
        <time>2020-09-01T09:47:21.732Z</time>
      </trkpt>
      <trkpt lat="42.50088" lon="2.54478">
        <ele>1485.5</ele>
        <time>2020-09-01T09:47:46.122Z</time>
      </trkpt>
      <trkpt lat="42.50087" lon="2.54474">
        <ele>1486.7</ele>
        <time>2020-09-01T09:48:17.412Z</time>
      </trkpt>
      <trkpt lat="42.50087" lon="2.5447">
        <ele>1487.8</ele>
        <time>2020-09-01T09:48:47.044Z</time>
      </trkpt>
      <trkpt lat="42.50086" lon="2.54467">
        <ele>1488.5</ele>
        <time>2020-09-01T09:49:11.434Z</time>
      </trkpt>
      <trkpt lat="42.50084" lon="2.54464">
        <ele>1488.9</ele>
        <time>2020-09-01T09:49:41.397Z</time>
      </trkpt>
      <trkpt lat="42.50082" lon="2.54462">
        <ele>1463.8</ele>
        <time>2020-09-01T09:49:42.287Z</time>
      </trkpt>
      <trkpt lat="42.5008" lon="2.54458">
        <ele>1464</ele>
        <time>2020-09-01T09:49:59.197Z</time>
      </trkpt>
      <trkpt lat="42.50078" lon="2.54455">
        <ele>1464.3</ele>
        <time>2020-09-01T09:50:19.517Z</time>
      </trkpt>
      <trkpt lat="42.50076" lon="2.54451">
        <ele>1464.8</ele>
        <time>2020-09-01T09:50:55.321Z</time>
      </trkpt>
      <trkpt lat="42.50074" lon="2.54449">
        <ele>1464.9</ele>
        <time>2020-09-01T09:51:05.574Z</time>
      </trkpt>
      <trkpt lat="42.50072" lon="2.54445">
        <ele>1465.4</ele>
        <time>2020-09-01T09:51:41.378Z</time>
      </trkpt>
      <trkpt lat="42.50071" lon="2.54442">
        <ele>1465.9</ele>
        <time>2020-09-01T09:52:05.768Z</time>
      </trkpt>
      <trkpt lat="42.50069" lon="2.54438">
        <ele>1466.6</ele>
        <time>2020-09-01T09:52:41.572Z</time>
      </trkpt>
      <trkpt lat="42.50066" lon="2.54435">
        <ele>1466.6</ele>
        <time>2020-09-01T09:52:51.281Z</time>
      </trkpt>
      <trkpt lat="42.50064" lon="2.54434">
        <ele>1466.2</ele>
        <time>2020-09-01T09:52:52.045Z</time>
      </trkpt>
      <trkpt lat="42.50062" lon="2.54429">
        <ele>1466.6</ele>
        <time>2020-09-01T09:53:19.231Z</time>
      </trkpt>
      <trkpt lat="42.50061" lon="2.54426">
        <ele>1466.6</ele>
        <time>2020-09-01T09:53:25.554Z</time>
      </trkpt>
      <trkpt lat="42.5006" lon="2.54425">
        <ele>1466.4</ele>
        <time>2020-09-01T09:53:25.999Z</time>
        <extensions>
          <visugpx:TrkExtension xmlns:visugpx="https://www.visugpx.com/editgpx/">
            <visugpx:node>3</visugpx:node>
            </visugpx:TrkExtension>
        </extensions>
      </trkpt>
      <trkpt lat="42.50059" lon="2.54423">
        <ele>1466.2</ele>
        <time>2020-09-01T09:53:26.638Z</time>
      </trkpt>
      <trkpt lat="42.50057" lon="2.5442">
        <ele>1465.7</ele>
        <time>2020-09-01T09:53:27.706Z</time>
      </trkpt>
      <trkpt lat="42.50056" lon="2.54418">
        <ele>1465.4</ele>
        <time>2020-09-01T09:53:28.344Z</time>
      </trkpt>
      <trkpt lat="42.50055" lon="2.54414">
        <ele>1470</ele>
        <time>2020-09-01T09:53:59.633Z</time>
      </trkpt>
      <trkpt lat="42.50054" lon="2.54413">
        <ele>1469.7</ele>
        <time>2020-09-01T09:54:00.078Z</time>
      </trkpt>
      <trkpt lat="42.50053" lon="2.54409">
        <ele>1469.1</ele>
        <time>2020-09-01T09:54:01.194Z</time>
      </trkpt>
      <trkpt lat="42.50052" lon="2.54405">
        <ele>1468.6</ele>
        <time>2020-09-01T09:54:02.309Z</time>
      </trkpt>
      <trkpt lat="42.5005" lon="2.54401">
        <ele>1467.9</ele>
        <time>2020-09-01T09:54:03.585Z</time>
      </trkpt>
      <trkpt lat="42.50049" lon="2.54397">
        <ele>1467.5</ele>
        <time>2020-09-01T09:54:04.701Z</time>
      </trkpt>
      <trkpt lat="42.50047" lon="2.54393">
        <ele>1467.1</ele>
        <time>2020-09-01T09:54:05.977Z</time>
      </trkpt>
      <trkpt lat="42.50046" lon="2.54389">
        <ele>1466.8</ele>
        <time>2020-09-01T09:54:07.093Z</time>
      </trkpt>
      <trkpt lat="42.50046" lon="2.54385">
        <ele>1466.7</ele>
        <time>2020-09-01T09:54:08.380Z</time>
      </trkpt>
      <trkpt lat="42.50045" lon="2.54381">
        <ele>1466.5</ele>
        <time>2020-09-01T09:54:09.421Z</time>
      </trkpt>
      <trkpt lat="42.50044" lon="2.54378">
        <ele>1466.3</ele>
        <time>2020-09-01T09:54:10.290Z</time>
      </trkpt>
      <trkpt lat="42.50042" lon="2.54374">
        <ele>1466.1</ele>
        <time>2020-09-01T09:54:11.561Z</time>
      </trkpt>
      <trkpt lat="42.50041" lon="2.54371">
        <ele>1465.9</ele>
        <time>2020-09-01T09:54:12.431Z</time>
      </trkpt>
      <trkpt lat="42.5004" lon="2.54367">
        <ele>1465.7</ele>
        <time>2020-09-01T09:54:13.472Z</time>
      </trkpt>
      <trkpt lat="42.50039" lon="2.54364">
        <ele>1465.7</ele>
        <time>2020-09-01T09:54:19.795Z</time>
      </trkpt>
      <trkpt lat="42.5004" lon="2.5436">
        <ele>1465.7</ele>
        <time>2020-09-01T09:54:27.907Z</time>
      </trkpt>
      <trkpt lat="42.5004" lon="2.54357">
        <ele>1465.7</ele>
        <time>2020-09-01T09:54:33.669Z</time>
      </trkpt>
      <trkpt lat="42.5004" lon="2.54354">
        <ele>1465.8</ele>
        <time>2020-09-01T09:54:43.438Z</time>
      </trkpt>
      <trkpt lat="42.5004" lon="2.5435">
        <ele>1465.7</ele>
        <time>2020-09-01T09:54:44.725Z</time>
      </trkpt>
      <trkpt lat="42.50039" lon="2.54347">
        <ele>1465.5</ele>
        <time>2020-09-01T09:54:45.594Z</time>
      </trkpt>
      <trkpt lat="42.50038" lon="2.54345">
        <ele>1465.2</ele>
        <time>2020-09-01T09:54:46.232Z</time>
      </trkpt>
      <trkpt lat="42.50036" lon="2.54343">
        <ele>1464.7</ele>
        <time>2020-09-01T09:54:47.122Z</time>
      </trkpt>
      <trkpt lat="42.50033" lon="2.54342">
        <ele>1463.9</ele>
        <time>2020-09-01T09:54:48.229Z</time>
      </trkpt>
      <trkpt lat="42.5003" lon="2.54343">
        <ele>1463.2</ele>
        <time>2020-09-01T09:54:49.336Z</time>
      </trkpt>
      <trkpt lat="42.50028" lon="2.54345">
        <ele>1462.7</ele>
        <time>2020-09-01T09:54:50.226Z</time>
      </trkpt>
      <trkpt lat="42.50027" lon="2.54348">
        <ele>1462.4</ele>
        <time>2020-09-01T09:54:51.095Z</time>
      </trkpt>
      <trkpt lat="42.50025" lon="2.54351">
        <ele>1462.2</ele>
        <time>2020-09-01T09:54:52.163Z</time>
      </trkpt>
      <trkpt lat="42.50024" lon="2.54353">
        <ele>1462.1</ele>
        <time>2020-09-01T09:54:52.798Z</time>
      </trkpt>
      <trkpt lat="42.50022" lon="2.54356">
        <ele>1461.9</ele>
        <time>2020-09-01T09:54:53.867Z</time>
      </trkpt>
      <trkpt lat="42.50021" lon="2.54359">
        <ele>1461.6</ele>
        <time>2020-09-01T09:54:54.736Z</time>
      </trkpt>
      <trkpt lat="42.50018" lon="2.5436">
        <ele>1461.3</ele>
        <time>2020-09-01T09:54:55.843Z</time>
      </trkpt>
      <trkpt lat="42.50016" lon="2.54361">
        <ele>1461</ele>
        <time>2020-09-01T09:54:56.606Z</time>
      </trkpt>
      <trkpt lat="42.50014" lon="2.54364">
        <ele>1460.8</ele>
        <time>2020-09-01T09:54:57.674Z</time>
      </trkpt>
      <trkpt lat="42.50013" lon="2.54368">
        <ele>1460.8</ele>
        <time>2020-09-01T09:55:05.786Z</time>
      </trkpt>
      <trkpt lat="42.50012" lon="2.54371">
        <ele>1460.8</ele>
        <time>2020-09-01T09:55:12.110Z</time>
      </trkpt>
      <trkpt lat="42.50013" lon="2.54375">
        <ele>1460.9</ele>
        <time>2020-09-01T09:55:23.602Z</time>
      </trkpt>
      <trkpt lat="42.50012" lon="2.54378">
        <ele>1460.6</ele>
        <time>2020-09-01T09:55:24.472Z</time>
      </trkpt>
      <trkpt lat="42.50011" lon="2.54382">
        <ele>1460.3</ele>
        <time>2020-09-01T09:55:25.587Z</time>
      </trkpt>
      <trkpt lat="42.5001" lon="2.54385">
        <ele>1459.8</ele>
        <time>2020-09-01T09:55:26.457Z</time>
      </trkpt>
      <trkpt lat="42.50008" lon="2.54388">
        <ele>1459.1</ele>
        <time>2020-09-01T09:55:27.525Z</time>
      </trkpt>
      <trkpt lat="42.50008" lon="2.54392">
        <ele>1458.4</ele>
        <time>2020-09-01T09:55:28.581Z</time>
      </trkpt>
      <trkpt lat="42.50007" lon="2.54395">
        <ele>1457.7</ele>
        <time>2020-09-01T09:55:29.451Z</time>
      </trkpt>
      <trkpt lat="42.50005" lon="2.54398">
        <ele>1456.5</ele>
        <time>2020-09-01T09:55:30.519Z</time>
      </trkpt>
      <trkpt lat="42.50003" lon="2.54401">
        <ele>1455.5</ele>
        <time>2020-09-01T09:55:31.587Z</time>
      </trkpt>
      <trkpt lat="42.50001" lon="2.54403">
        <ele>1454.5</ele>
        <time>2020-09-01T09:55:32.477Z</time>
      </trkpt>
      <trkpt lat="42.49999" lon="2.54403">
        <ele>1439.9</ele>
        <time>2020-09-01T09:55:33.193Z</time>
      </trkpt>
      <trkpt lat="42.49998" lon="2.54406">
        <ele>1440.6</ele>
        <time>2020-09-01T09:55:57.583Z</time>
      </trkpt>
      <trkpt lat="42.49997" lon="2.54408">
        <ele>1441.4</ele>
        <time>2020-09-01T09:56:15.486Z</time>
      </trkpt>
      <trkpt lat="42.49995" lon="2.54411">
        <ele>1441.9</ele>
        <time>2020-09-01T09:56:45.449Z</time>
      </trkpt>
      <trkpt lat="42.49993" lon="2.54412">
        <ele>1441.6</ele>
        <time>2020-09-01T09:56:46.212Z</time>
      </trkpt>
      <trkpt lat="42.49991" lon="2.54413">
        <ele>1441</ele>
        <time>2020-09-01T09:56:46.976Z</time>
      </trkpt>
      <trkpt lat="42.49989" lon="2.54412">
        <ele>1439.8</ele>
        <time>2020-09-01T09:56:47.739Z</time>
      </trkpt>
      <trkpt lat="42.49987" lon="2.54412">
        <ele>1438.5</ele>
        <time>2020-09-01T09:56:48.455Z</time>
      </trkpt>
      <trkpt lat="42.49984" lon="2.54411">
        <ele>1437.5</ele>
        <time>2020-09-01T09:56:49.562Z</time>
      </trkpt>
      <trkpt lat="42.49982" lon="2.5441">
        <ele>1436.5</ele>
        <time>2020-09-01T09:56:50.325Z</time>
      </trkpt>
      <trkpt lat="42.49981" lon="2.5441">
        <ele>1435.8</ele>
        <time>2020-09-01T09:56:50.684Z</time>
      </trkpt>
      <trkpt lat="42.49978" lon="2.54409">
        <ele>1434.8</ele>
        <time>2020-09-01T09:56:51.790Z</time>
      </trkpt>
      <trkpt lat="42.49976" lon="2.54409">
        <ele>1433.9</ele>
        <time>2020-09-01T09:56:52.506Z</time>
      </trkpt>
      <trkpt lat="42.49973" lon="2.54411">
        <ele>1433</ele>
        <time>2020-09-01T09:56:53.704Z</time>
      </trkpt>
      <trkpt lat="42.49971" lon="2.54412">
        <ele>1432.1</ele>
        <time>2020-09-01T09:56:54.467Z</time>
      </trkpt>
      <trkpt lat="42.49968" lon="2.54413">
        <ele>1431</ele>
        <time>2020-09-01T09:56:55.574Z</time>
      </trkpt>
      <trkpt lat="42.49966" lon="2.54413">
        <ele>1430.3</ele>
        <time>2020-09-01T09:56:56.290Z</time>
      </trkpt>
      <trkpt lat="42.49963" lon="2.54416">
        <ele>1429.5</ele>
        <time>2020-09-01T09:56:57.625Z</time>
      </trkpt>
      <trkpt lat="42.49962" lon="2.54419">
        <ele>1424</ele>
        <time>2020-09-01T09:56:58.495Z</time>
      </trkpt>
      <trkpt lat="42.4996" lon="2.54422">
        <ele>1423.1</ele>
        <time>2020-09-01T09:56:59.563Z</time>
      </trkpt>
      <trkpt lat="42.49958" lon="2.54424">
        <ele>1422.4</ele>
        <time>2020-09-01T09:57:00.453Z</time>
      </trkpt>
      <trkpt lat="42.49956" lon="2.54426">
        <ele>1421.5</ele>
        <time>2020-09-01T09:57:01.343Z</time>
      </trkpt>
      <trkpt lat="42.49955" lon="2.54429">
        <ele>1421</ele>
        <time>2020-09-01T09:57:02.212Z</time>
      </trkpt>
      <trkpt lat="42.49953" lon="2.54431">
        <ele>1420.4</ele>
        <time>2020-09-01T09:57:03.102Z</time>
      </trkpt>
      <trkpt lat="42.49951" lon="2.54432">
        <ele>1419.8</ele>
        <time>2020-09-01T09:57:03.866Z</time>
      </trkpt>
      <trkpt lat="42.49949" lon="2.54434">
        <ele>1419.2</ele>
        <time>2020-09-01T09:57:04.756Z</time>
      </trkpt>
      <trkpt lat="42.49947" lon="2.54435">
        <ele>1418.5</ele>
        <time>2020-09-01T09:57:05.519Z</time>
      </trkpt>
      <trkpt lat="42.49944" lon="2.54435">
        <ele>1417.9</ele>
        <time>2020-09-01T09:57:06.594Z</time>
      </trkpt>
      <trkpt lat="42.49943" lon="2.54436">
        <ele>1417.7</ele>
        <time>2020-09-01T09:57:07.039Z</time>
      </trkpt>
      <trkpt lat="42.49942" lon="2.54439">
        <ele>1417.4</ele>
        <time>2020-09-01T09:57:07.908Z</time>
      </trkpt>
      <trkpt lat="42.49939" lon="2.54441">
        <ele>1416.7</ele>
        <time>2020-09-01T09:57:09.106Z</time>
      </trkpt>
      <trkpt lat="42.49936" lon="2.54443">
        <ele>1416.2</ele>
        <time>2020-09-01T09:57:10.303Z</time>
      </trkpt>
      <trkpt lat="42.49934" lon="2.54445">
        <ele>1415.8</ele>
        <time>2020-09-01T09:57:11.193Z</time>
      </trkpt>
      <trkpt lat="42.49932" lon="2.54445">
        <ele>1415.4</ele>
        <time>2020-09-01T09:57:11.909Z</time>
      </trkpt>
      <trkpt lat="42.49931" lon="2.54449">
        <ele>1415.2</ele>
        <time>2020-09-01T09:57:12.950Z</time>
      </trkpt>
      <trkpt lat="42.49929" lon="2.5445">
        <ele>1414.9</ele>
        <time>2020-09-01T09:57:13.714Z</time>
      </trkpt>
      <trkpt lat="42.49927" lon="2.54451">
        <ele>1414.6</ele>
        <time>2020-09-01T09:57:14.477Z</time>
      </trkpt>
      <trkpt lat="42.49925" lon="2.54453">
        <ele>1414.3</ele>
        <time>2020-09-01T09:57:15.367Z</time>
      </trkpt>
      <trkpt lat="42.49923" lon="2.54454">
        <ele>1414</ele>
        <time>2020-09-01T09:57:16.131Z</time>
      </trkpt>
      <trkpt lat="42.4992" lon="2.54455">
        <ele>1413.7</ele>
        <time>2020-09-01T09:57:17.238Z</time>
      </trkpt>
      <trkpt lat="42.49917" lon="2.54454">
        <ele>1413.5</ele>
        <time>2020-09-01T09:57:18.266Z</time>
      </trkpt>
      <trkpt lat="42.49915" lon="2.54455">
        <ele>1389.2</ele>
        <time>2020-09-01T09:57:19.030Z</time>
      </trkpt>
      <trkpt lat="42.49914" lon="2.54458">
        <ele>1388.8</ele>
        <time>2020-09-01T09:57:19.899Z</time>
      </trkpt>
      <trkpt lat="42.49913" lon="2.54461">
        <ele>1388.5</ele>
        <time>2020-09-01T09:57:20.769Z</time>
      </trkpt>
      <trkpt lat="42.49912" lon="2.54464">
        <ele>1388.3</ele>
        <time>2020-09-01T09:57:21.638Z</time>
      </trkpt>
      <trkpt lat="42.49911" lon="2.54467">
        <ele>1388.1</ele>
        <time>2020-09-01T09:57:22.508Z</time>
      </trkpt>
      <trkpt lat="42.49909" lon="2.54469">
        <ele>1387.9</ele>
        <time>2020-09-01T09:57:23.398Z</time>
      </trkpt>
      <trkpt lat="42.49907" lon="2.5447">
        <ele>1387.7</ele>
        <time>2020-09-01T09:57:24.161Z</time>
      </trkpt>
      <trkpt lat="42.49904" lon="2.54472">
        <ele>1387.3</ele>
        <time>2020-09-01T09:57:25.358Z</time>
      </trkpt>
      <trkpt lat="42.49902" lon="2.54473">
        <ele>1387</ele>
        <time>2020-09-01T09:57:26.122Z</time>
      </trkpt>
      <trkpt lat="42.49901" lon="2.54475">
        <ele>1386.9</ele>
        <time>2020-09-01T09:57:26.757Z</time>
      </trkpt>
      <trkpt lat="42.499" lon="2.54478">
        <ele>1386.8</ele>
        <time>2020-09-01T09:57:27.744Z</time>
      </trkpt>
      <trkpt lat="42.49897" lon="2.54477">
        <ele>1386.2</ele>
        <time>2020-09-01T09:57:28.851Z</time>
      </trkpt>
      <trkpt lat="42.49895" lon="2.54476">
        <ele>1385.6</ele>
        <time>2020-09-01T09:57:29.614Z</time>
      </trkpt>
      <trkpt lat="42.49892" lon="2.54477">
        <ele>1384.9</ele>
        <time>2020-09-01T09:57:30.721Z</time>
      </trkpt>
      <trkpt lat="42.4989" lon="2.54477">
        <ele>1384.4</ele>
        <time>2020-09-01T09:57:31.437Z</time>
      </trkpt>
      <trkpt lat="42.49888" lon="2.54476">
        <ele>1384</ele>
        <time>2020-09-01T09:57:32.201Z</time>
      </trkpt>
      <trkpt lat="42.49887" lon="2.54478">
        <ele>1383.7</ele>
        <time>2020-09-01T09:57:32.839Z</time>
      </trkpt>
      <trkpt lat="42.49886" lon="2.54481">
        <ele>1383.4</ele>
        <time>2020-09-01T09:57:33.708Z</time>
      </trkpt>
      <trkpt lat="42.49885" lon="2.54484">
        <ele>1383.1</ele>
        <time>2020-09-01T09:57:34.578Z</time>
      </trkpt>
      <trkpt lat="42.49883" lon="2.54489">
        <ele>1382.6</ele>
        <time>2020-09-01T09:57:36.080Z</time>
      </trkpt>
      <trkpt lat="42.49881" lon="2.5449">
        <ele>1382</ele>
        <time>2020-09-01T09:57:36.844Z</time>
      </trkpt>
      <trkpt lat="42.4988" lon="2.54493">
        <ele>1381.7</ele>
        <time>2020-09-01T09:57:37.713Z</time>
      </trkpt>
      <trkpt lat="42.4988" lon="2.54496">
        <ele>1381.6</ele>
        <time>2020-09-01T09:57:38.580Z</time>
      </trkpt>
      <trkpt lat="42.49879" lon="2.54499">
        <ele>1381.3</ele>
        <time>2020-09-01T09:57:39.449Z</time>
      </trkpt>
      <trkpt lat="42.49879" lon="2.54502">
        <ele>1374.1</ele>
        <time>2020-09-01T09:57:40.242Z</time>
      </trkpt>
      <trkpt lat="42.49879" lon="2.54505">
        <ele>1373.9</ele>
        <time>2020-09-01T09:57:41.034Z</time>
      </trkpt>
      <trkpt lat="42.49877" lon="2.54505">
        <ele>1373.2</ele>
        <time>2020-09-01T09:57:41.750Z</time>
      </trkpt>
      <trkpt lat="42.49874" lon="2.54504">
        <ele>1372.6</ele>
        <time>2020-09-01T09:57:42.857Z</time>
      </trkpt>
      <trkpt lat="42.49873" lon="2.54503">
        <ele>1372</ele>
        <time>2020-09-01T09:57:43.302Z</time>
      </trkpt>
      <trkpt lat="42.4987" lon="2.54503">
        <ele>1371.3</ele>
        <time>2020-09-01T09:57:44.376Z</time>
      </trkpt>
      <trkpt lat="42.49868" lon="2.54504">
        <ele>1370.6</ele>
        <time>2020-09-01T09:57:45.140Z</time>
      </trkpt>
      <trkpt lat="42.49867" lon="2.54507">
        <ele>1370.4</ele>
        <time>2020-09-01T09:57:46.009Z</time>
      </trkpt>
      <trkpt lat="42.49866" lon="2.5451">
        <ele>1369.9</ele>
        <time>2020-09-01T09:57:46.879Z</time>
      </trkpt>
      <trkpt lat="42.49864" lon="2.54511">
        <ele>1369.4</ele>
        <time>2020-09-01T09:57:47.642Z</time>
      </trkpt>
      <trkpt lat="42.49863" lon="2.54514">
        <ele>1369</ele>
        <time>2020-09-01T09:57:48.512Z</time>
      </trkpt>
      <trkpt lat="42.49862" lon="2.54517">
        <ele>1368.6</ele>
        <time>2020-09-01T09:57:49.381Z</time>
      </trkpt>
      <trkpt lat="42.4986" lon="2.5452">
        <ele>1368.3</ele>
        <time>2020-09-01T09:57:50.449Z</time>
      </trkpt>
      <trkpt lat="42.49859" lon="2.54522">
        <ele>1368</ele>
        <time>2020-09-01T09:57:51.087Z</time>
      </trkpt>
      <trkpt lat="42.49858" lon="2.54524">
        <ele>1367.7</ele>
        <time>2020-09-01T09:57:51.726Z</time>
      </trkpt>
      <trkpt lat="42.49857" lon="2.54527">
        <ele>1367.6</ele>
        <time>2020-09-01T09:57:52.713Z</time>
      </trkpt>
      <trkpt lat="42.49856" lon="2.54529">
        <ele>1367.3</ele>
        <time>2020-09-01T09:57:53.351Z</time>
      </trkpt>
      <trkpt lat="42.49854" lon="2.54532">
        <ele>1366.9</ele>
        <time>2020-09-01T09:57:54.419Z</time>
      </trkpt>
      <trkpt lat="42.49854" lon="2.54535">
        <ele>1366.7</ele>
        <time>2020-09-01T09:57:55.211Z</time>
      </trkpt>
      <trkpt lat="42.49853" lon="2.54539">
        <ele>1366.4</ele>
        <time>2020-09-01T09:57:56.327Z</time>
      </trkpt>
      <trkpt lat="42.49853" lon="2.54543">
        <ele>1365.9</ele>
        <time>2020-09-01T09:57:57.383Z</time>
      </trkpt>
      <trkpt lat="42.4985" lon="2.54547">
        <ele>1365.2</ele>
        <time>2020-09-01T09:57:58.890Z</time>
      </trkpt>
      <trkpt lat="42.49849" lon="2.54548">
        <ele>1364.9</ele>
        <time>2020-09-01T09:57:59.335Z</time>
      </trkpt>
      <trkpt lat="42.49848" lon="2.54551">
        <ele>1364.3</ele>
        <time>2020-09-01T09:58:00.204Z</time>
      </trkpt>
      <trkpt lat="42.49846" lon="2.54552">
        <ele>1364</ele>
        <time>2020-09-01T09:58:00.968Z</time>
      </trkpt>
      <trkpt lat="42.49847" lon="2.54555">
        <ele>1363.5</ele>
        <time>2020-09-01T09:58:01.837Z</time>
      </trkpt>
      <trkpt lat="42.49845" lon="2.54556">
        <ele>1363.1</ele>
        <time>2020-09-01T09:58:02.601Z</time>
      </trkpt>
      <trkpt lat="42.49843" lon="2.54559">
        <ele>1362.3</ele>
        <time>2020-09-01T09:58:03.669Z</time>
      </trkpt>
      <trkpt lat="42.49842" lon="2.54562">
        <ele>1361.4</ele>
        <time>2020-09-01T09:58:04.538Z</time>
      </trkpt>
      <trkpt lat="42.4984" lon="2.54565">
        <ele>1360.3</ele>
        <time>2020-09-01T09:58:05.606Z</time>
      </trkpt>
      <trkpt lat="42.49838" lon="2.54568">
        <ele>1359.3</ele>
        <time>2020-09-01T09:58:06.674Z</time>
      </trkpt>
      <trkpt lat="42.49835" lon="2.54569">
        <ele>1358.4</ele>
        <time>2020-09-01T09:58:07.781Z</time>
      </trkpt>
      <trkpt lat="42.49834" lon="2.54572">
        <ele>1357.2</ele>
        <time>2020-09-01T09:58:08.650Z</time>
      </trkpt>
      <trkpt lat="42.49832" lon="2.54575">
        <ele>1346.5</ele>
        <time>2020-09-01T09:58:09.719Z</time>
      </trkpt>
      <trkpt lat="42.49831" lon="2.54579">
        <ele>1347.8</ele>
        <time>2020-09-01T09:58:41.009Z</time>
      </trkpt>
      <trkpt lat="42.4983" lon="2.54581">
        <ele>1348.1</ele>
        <time>2020-09-01T09:58:58.912Z</time>
      </trkpt>
      <trkpt lat="42.49828" lon="2.54583">
        <ele>1347.5</ele>
        <time>2020-09-01T09:58:59.802Z</time>
      </trkpt>
      <trkpt lat="42.49826" lon="2.54586">
        <ele>1344.2</ele>
        <time>2020-09-01T09:59:00.870Z</time>
      </trkpt>
      <trkpt lat="42.49824" lon="2.54589">
        <ele>1342.3</ele>
        <time>2020-09-01T09:59:01.938Z</time>
      </trkpt>
      <trkpt lat="42.49822" lon="2.54592">
        <ele>1340.6</ele>
        <time>2020-09-01T09:59:03.006Z</time>
      </trkpt>
      <trkpt lat="42.49821" lon="2.54595">
        <ele>1339</ele>
        <time>2020-09-01T09:59:03.875Z</time>
      </trkpt>
      <trkpt lat="42.49818" lon="2.54596">
        <ele>1337.8</ele>
        <time>2020-09-01T09:59:04.982Z</time>
      </trkpt>
      <trkpt lat="42.49815" lon="2.54596">
        <ele>1336.8</ele>
        <time>2020-09-01T09:59:06.057Z</time>
      </trkpt>
      <trkpt lat="42.49813" lon="2.54596">
        <ele>1336.2</ele>
        <time>2020-09-01T09:59:06.773Z</time>
      </trkpt>
      <trkpt lat="42.4981" lon="2.54596">
        <ele>1335.1</ele>
        <time>2020-09-01T09:59:07.847Z</time>
      </trkpt>
      <trkpt lat="42.49808" lon="2.54595">
        <ele>1334.4</ele>
        <time>2020-09-01T09:59:08.611Z</time>
      </trkpt>
      <trkpt lat="42.49805" lon="2.54594">
        <ele>1333.7</ele>
        <time>2020-09-01T09:59:09.718Z</time>
      </trkpt>
      <trkpt lat="42.49803" lon="2.54592">
        <ele>1333.1</ele>
        <time>2020-09-01T09:59:10.608Z</time>
      </trkpt>
      <trkpt lat="42.498" lon="2.54592">
        <ele>1332.3</ele>
        <time>2020-09-01T09:59:11.682Z</time>
      </trkpt>
      <trkpt lat="42.49797" lon="2.54592">
        <ele>1331.5</ele>
        <time>2020-09-01T09:59:12.757Z</time>
      </trkpt>
      <trkpt lat="42.49795" lon="2.54595">
        <ele>1330.7</ele>
        <time>2020-09-01T09:59:13.825Z</time>
      </trkpt>
      <trkpt lat="42.49793" lon="2.54596">
        <ele>1330</ele>
        <time>2020-09-01T09:59:14.588Z</time>
      </trkpt>
      <trkpt lat="42.4979" lon="2.54597">
        <ele>1329.2</ele>
        <time>2020-09-01T09:59:15.695Z</time>
      </trkpt>
      <trkpt lat="42.49788" lon="2.54598">
        <ele>1328.6</ele>
        <time>2020-09-01T09:59:16.458Z</time>
      </trkpt>
      <trkpt lat="42.49787" lon="2.546">
        <ele>1328.4</ele>
        <time>2020-09-01T09:59:17.096Z</time>
      </trkpt>
      <trkpt lat="42.49786" lon="2.54604">
        <ele>1328.2</ele>
        <time>2020-09-01T09:59:18.138Z</time>
      </trkpt>
      <trkpt lat="42.49785" lon="2.54607">
        <ele>1328</ele>
        <time>2020-09-01T09:59:19.007Z</time>
      </trkpt>
      <trkpt lat="42.49785" lon="2.54611">
        <ele>1327.8</ele>
        <time>2020-09-01T09:59:20.063Z</time>
      </trkpt>
      <trkpt lat="42.49784" lon="2.54615">
        <ele>1327.5</ele>
        <time>2020-09-01T09:59:21.179Z</time>
      </trkpt>
      <trkpt lat="42.49782" lon="2.54617">
        <ele>1327.2</ele>
        <time>2020-09-01T09:59:22.069Z</time>
      </trkpt>
      <trkpt lat="42.49781" lon="2.54619">
        <ele>1327</ele>
        <time>2020-09-01T09:59:22.707Z</time>
      </trkpt>
      <trkpt lat="42.4978" lon="2.54623">
        <ele>1326.8</ele>
        <time>2020-09-01T09:59:23.748Z</time>
      </trkpt>
      <trkpt lat="42.49778" lon="2.54626">
        <ele>1326.6</ele>
        <time>2020-09-01T09:59:24.816Z</time>
      </trkpt>
      <trkpt lat="42.49777" lon="2.54629">
        <ele>1326.3</ele>
        <time>2020-09-01T09:59:25.686Z</time>
      </trkpt>
      <trkpt lat="42.49776" lon="2.54632">
        <ele>1326.1</ele>
        <time>2020-09-01T09:59:26.555Z</time>
      </trkpt>
      <trkpt lat="42.49774" lon="2.54634">
        <ele>1325.9</ele>
        <time>2020-09-01T09:59:27.445Z</time>
      </trkpt>
      <trkpt lat="42.49774" lon="2.54635">
        <ele>1325.9</ele>
        <time>2020-09-01T09:59:29.366Z</time>
      </trkpt>
      <trkpt lat="42.49773" lon="2.54636">
        <ele>1325.7</ele>
        <time>2020-09-01T09:59:29.811Z</time>
      </trkpt>
      <trkpt lat="42.49771" lon="2.54637">
        <ele>1325.5</ele>
        <time>2020-09-01T09:59:30.574Z</time>
      </trkpt>
      <trkpt lat="42.4977" lon="2.54638">
        <ele>1325.4</ele>
        <time>2020-09-01T09:59:31.020Z</time>
      </trkpt>
      <trkpt lat="42.49768" lon="2.54641">
        <ele>1325.1</ele>
        <time>2020-09-01T09:59:32.088Z</time>
      </trkpt>
      <trkpt lat="42.49768" lon="2.54644">
        <ele>1324.9</ele>
        <time>2020-09-01T09:59:32.880Z</time>
      </trkpt>
      <trkpt lat="42.49766" lon="2.54647">
        <ele>1324.5</ele>
        <time>2020-09-01T09:59:33.948Z</time>
      </trkpt>
      <trkpt lat="42.49764" lon="2.5465">
        <ele>1324.1</ele>
        <time>2020-09-01T09:59:35.016Z</time>
      </trkpt>
      <trkpt lat="42.49762" lon="2.54653">
        <ele>1323.6</ele>
        <time>2020-09-01T09:59:36.084Z</time>
      </trkpt>
      <trkpt lat="42.49759" lon="2.54654">
        <ele>1323.2</ele>
        <time>2020-09-01T09:59:37.191Z</time>
      </trkpt>
      <trkpt lat="42.49757" lon="2.54657">
        <ele>1322.7</ele>
        <time>2020-09-01T09:59:38.259Z</time>
      </trkpt>
      <trkpt lat="42.49755" lon="2.54659">
        <ele>1322.2</ele>
        <time>2020-09-01T09:59:39.149Z</time>
      </trkpt>
      <trkpt lat="42.49753" lon="2.5466">
        <ele>1321.7</ele>
        <time>2020-09-01T09:59:39.912Z</time>
      </trkpt>
      <trkpt lat="42.4975" lon="2.54661">
        <ele>1321.4</ele>
        <time>2020-09-01T09:59:41.019Z</time>
      </trkpt>
      <trkpt lat="42.49747" lon="2.54662">
        <ele>1315.3</ele>
        <time>2020-09-01T09:59:42.125Z</time>
      </trkpt>
      <trkpt lat="42.49745" lon="2.54664">
        <ele>1315.1</ele>
        <time>2020-09-01T09:59:43.016Z</time>
      </trkpt>
      <trkpt lat="42.49743" lon="2.54668">
        <ele>1314.5</ele>
        <time>2020-09-01T09:59:44.292Z</time>
      </trkpt>
      <trkpt lat="42.49742" lon="2.54671">
        <ele>1312.7</ele>
        <time>2020-09-01T09:59:45.161Z</time>
      </trkpt>
      <trkpt lat="42.4974" lon="2.54675">
        <ele>1310.8</ele>
        <time>2020-09-01T09:59:46.438Z</time>
      </trkpt>
      <trkpt lat="42.49737" lon="2.54677">
        <ele>1309</ele>
        <time>2020-09-01T09:59:47.635Z</time>
      </trkpt>
      <trkpt lat="42.49734" lon="2.54678">
        <ele>1307.7</ele>
        <time>2020-09-01T09:59:48.742Z</time>
      </trkpt>
      <trkpt lat="42.49731" lon="2.5468">
        <ele>1306.4</ele>
        <time>2020-09-01T09:59:49.939Z</time>
      </trkpt>
      <trkpt lat="42.49729" lon="2.54683">
        <ele>1305.2</ele>
        <time>2020-09-01T09:59:51.007Z</time>
      </trkpt>
      <trkpt lat="42.49727" lon="2.54687">
        <ele>1304</ele>
        <time>2020-09-01T09:59:52.283Z</time>
      </trkpt>
      <trkpt lat="42.49725" lon="2.54689">
        <ele>1303</ele>
        <time>2020-09-01T09:59:53.173Z</time>
      </trkpt>
      <trkpt lat="42.49722" lon="2.54691">
        <ele>1302.1</ele>
        <time>2020-09-01T09:59:54.371Z</time>
      </trkpt>
      <trkpt lat="42.49719" lon="2.54693">
        <ele>1301.4</ele>
        <time>2020-09-01T09:59:55.568Z</time>
      </trkpt>
      <trkpt lat="42.49717" lon="2.54695">
        <ele>1300.7</ele>
        <time>2020-09-01T09:59:56.458Z</time>
      </trkpt>
      <trkpt lat="42.49714" lon="2.54695">
        <ele>1300.1</ele>
        <time>2020-09-01T09:59:57.533Z</time>
      </trkpt>
      <trkpt lat="42.49711" lon="2.54695">
        <ele>1299.6</ele>
        <time>2020-09-01T09:59:58.607Z</time>
      </trkpt>
      <trkpt lat="42.49708" lon="2.54694">
        <ele>1299.3</ele>
        <time>2020-09-01T09:59:59.714Z</time>
      </trkpt>
      <trkpt lat="42.49708" lon="2.54697">
        <ele>1299</ele>
        <time>2020-09-01T10:00:00.506Z</time>
      </trkpt>
      <trkpt lat="42.49709" lon="2.547">
        <ele>1299</ele>
        <time>2020-09-01T10:00:06.830Z</time>
      </trkpt>
      <trkpt lat="42.49712" lon="2.54702">
        <ele>1299.2</ele>
        <time>2020-09-01T10:00:23.105Z</time>
      </trkpt>
      <trkpt lat="42.49713" lon="2.54705">
        <ele>1299.2</ele>
        <time>2020-09-01T10:00:29.428Z</time>
      </trkpt>
      <trkpt lat="42.49711" lon="2.54706">
        <ele>1298.7</ele>
        <time>2020-09-01T10:00:30.192Z</time>
      </trkpt>
      <trkpt lat="42.49708" lon="2.54705">
        <ele>1298.4</ele>
        <time>2020-09-01T10:00:31.298Z</time>
      </trkpt>
      <trkpt lat="42.49706" lon="2.54704">
        <ele>1298.2</ele>
        <time>2020-09-01T10:00:32.062Z</time>
      </trkpt>
      <trkpt lat="42.49703" lon="2.54702">
        <ele>1298</ele>
        <time>2020-09-01T10:00:33.219Z</time>
      </trkpt>
      <trkpt lat="42.497" lon="2.54702">
        <ele>1297.6</ele>
        <time>2020-09-01T10:00:34.293Z</time>
      </trkpt>
      <trkpt lat="42.49698" lon="2.54702">
        <ele>1297.2</ele>
        <time>2020-09-01T10:00:35.010Z</time>
      </trkpt>
      <trkpt lat="42.49698" lon="2.54705">
        <ele>1297</ele>
        <time>2020-09-01T10:00:35.802Z</time>
      </trkpt>
      <trkpt lat="42.49696" lon="2.54707">
        <ele>1296.8</ele>
        <time>2020-09-01T10:00:36.692Z</time>
      </trkpt>
      <trkpt lat="42.49694" lon="2.54708">
        <ele>1296.5</ele>
        <time>2020-09-01T10:00:37.455Z</time>
      </trkpt>
      <trkpt lat="42.49691" lon="2.54708">
        <ele>1296.1</ele>
        <time>2020-09-01T10:00:38.530Z</time>
      </trkpt>
      <trkpt lat="42.49688" lon="2.54709">
        <ele>1295.8</ele>
        <time>2020-09-01T10:00:39.637Z</time>
      </trkpt>
      <trkpt lat="42.49685" lon="2.54708">
        <ele>1295.5</ele>
        <time>2020-09-01T10:00:40.743Z</time>
      </trkpt>
      <trkpt lat="42.49683" lon="2.54706">
        <ele>1295.3</ele>
        <time>2020-09-01T10:00:41.633Z</time>
      </trkpt>
      <trkpt lat="42.4968" lon="2.54704">
        <ele>1295.2</ele>
        <time>2020-09-01T10:00:43.154Z</time>
      </trkpt>
      <trkpt lat="42.49679" lon="2.54707">
        <ele>1294.9</ele>
        <time>2020-09-01T10:00:44.023Z</time>
      </trkpt>
      <trkpt lat="42.49679" lon="2.54711">
        <ele>1294.8</ele>
        <time>2020-09-01T10:00:45.310Z</time>
      </trkpt>
      <trkpt lat="42.4968" lon="2.54715">
        <ele>1294.7</ele>
        <time>2020-09-01T10:00:46.695Z</time>
      </trkpt>
      <trkpt lat="42.49681" lon="2.54718">
        <ele>1294.4</ele>
        <time>2020-09-01T10:00:47.564Z</time>
      </trkpt>
      <trkpt lat="42.49681" lon="2.54722">
        <ele>1294.1</ele>
        <time>2020-09-01T10:00:48.621Z</time>
      </trkpt>
      <trkpt lat="42.49682" lon="2.54726">
        <ele>1293.8</ele>
        <time>2020-09-01T10:00:49.736Z</time>
      </trkpt>
      <trkpt lat="42.49683" lon="2.54729">
        <ele>1293.5</ele>
        <time>2020-09-01T10:00:50.606Z</time>
      </trkpt>
      <trkpt lat="42.49683" lon="2.54734">
        <ele>1293</ele>
        <time>2020-09-01T10:00:51.926Z</time>
      </trkpt>
      <trkpt lat="42.49682" lon="2.54736">
        <ele>1292.5</ele>
        <time>2020-09-01T10:00:52.564Z</time>
      </trkpt>
      <trkpt lat="42.49679" lon="2.54735">
        <ele>1292.2</ele>
        <time>2020-09-01T10:00:53.671Z</time>
      </trkpt>
      <trkpt lat="42.49676" lon="2.54733">
        <ele>1292</ele>
        <time>2020-09-01T10:00:54.828Z</time>
      </trkpt>
      <trkpt lat="42.49673" lon="2.54733">
        <ele>1291.7</ele>
        <time>2020-09-01T10:00:55.902Z</time>
      </trkpt>
      <trkpt lat="42.4967" lon="2.54731">
        <ele>1291.8</ele>
        <time>2020-09-01T10:01:07.897Z</time>
      </trkpt>
      <trkpt lat="42.49667" lon="2.54732">
        <ele>1291.6</ele>
        <time>2020-09-01T10:01:08.926Z</time>
      </trkpt>
      <trkpt lat="42.49664" lon="2.54732">
        <ele>1278.6</ele>
        <time>2020-09-01T10:01:10.000Z</time>
      </trkpt>
      <trkpt lat="42.49662" lon="2.54733">
        <ele>1278.6</ele>
        <time>2020-09-01T10:01:15.553Z</time>
      </trkpt>
      <trkpt lat="42.4966" lon="2.54735">
        <ele>1278.6</ele>
        <time>2020-09-01T10:01:22.026Z</time>
      </trkpt>
      <trkpt lat="42.49657" lon="2.54735">
        <ele>1278.3</ele>
        <time>2020-09-01T10:01:23.101Z</time>
      </trkpt>
      <trkpt lat="42.49655" lon="2.54735">
        <ele>1277.7</ele>
        <time>2020-09-01T10:01:23.817Z</time>
      </trkpt>
      <trkpt lat="42.49653" lon="2.54735">
        <ele>1277.1</ele>
        <time>2020-09-01T10:01:24.534Z</time>
      </trkpt>
      <trkpt lat="42.49651" lon="2.54738">
        <ele>1277.3</ele>
        <time>2020-09-01T10:01:39.828Z</time>
      </trkpt>
      <trkpt lat="42.49649" lon="2.5474">
        <ele>1276.9</ele>
        <time>2020-09-01T10:01:40.718Z</time>
      </trkpt>
      <trkpt lat="42.49646" lon="2.5474">
        <ele>1276</ele>
        <time>2020-09-01T10:01:41.792Z</time>
      </trkpt>
      <trkpt lat="42.49643" lon="2.54741">
        <ele>1275.4</ele>
        <time>2020-09-01T10:01:42.899Z</time>
      </trkpt>
      <trkpt lat="42.49641" lon="2.54742">
        <ele>1274.7</ele>
        <time>2020-09-01T10:01:43.662Z</time>
      </trkpt>
      <trkpt lat="42.49637" lon="2.54743">
        <ele>1273.9</ele>
        <time>2020-09-01T10:01:45.119Z</time>
      </trkpt>
      <trkpt lat="42.49634" lon="2.54744">
        <ele>1273</ele>
        <time>2020-09-01T10:01:46.226Z</time>
      </trkpt>
      <trkpt lat="42.49631" lon="2.54745">
        <ele>1272.2</ele>
        <time>2020-09-01T10:01:47.332Z</time>
      </trkpt>
      <trkpt lat="42.49628" lon="2.54747">
        <ele>1271.6</ele>
        <time>2020-09-01T10:01:48.529Z</time>
      </trkpt>
      <trkpt lat="42.49626" lon="2.54749">
        <ele>1271.1</ele>
        <time>2020-09-01T10:01:49.419Z</time>
      </trkpt>
      <trkpt lat="42.49624" lon="2.54752">
        <ele>1267.6</ele>
        <time>2020-09-01T10:01:50.488Z</time>
      </trkpt>
      <trkpt lat="42.49621" lon="2.54753">
        <ele>1267</ele>
        <time>2020-09-01T10:01:51.594Z</time>
      </trkpt>
      <trkpt lat="42.49618" lon="2.54753">
        <ele>1266.4</ele>
        <time>2020-09-01T10:01:52.669Z</time>
      </trkpt>
      <trkpt lat="42.49615" lon="2.54753">
        <ele>1266</ele>
        <time>2020-09-01T10:01:53.743Z</time>
      </trkpt>
      <trkpt lat="42.49614" lon="2.54755">
        <ele>1265.7</ele>
        <time>2020-09-01T10:01:54.381Z</time>
      </trkpt>
      <trkpt lat="42.49613" lon="2.54757">
        <ele>1265.4</ele>
        <time>2020-09-01T10:01:55.020Z</time>
      </trkpt>
      <trkpt lat="42.4961" lon="2.54758">
        <ele>1265</ele>
        <time>2020-09-01T10:01:56.126Z</time>
      </trkpt>
      <trkpt lat="42.49608" lon="2.54759">
        <ele>1264.6</ele>
        <time>2020-09-01T10:01:56.890Z</time>
      </trkpt>
      <trkpt lat="42.49605" lon="2.54761">
        <ele>1264.2</ele>
        <time>2020-09-01T10:01:58.087Z</time>
      </trkpt>
      <trkpt lat="42.49603" lon="2.54764">
        <ele>1264</ele>
        <time>2020-09-01T10:01:59.155Z</time>
      </trkpt>
      <trkpt lat="42.49601" lon="2.54766">
        <ele>1263.7</ele>
        <time>2020-09-01T10:02:00.045Z</time>
      </trkpt>
      <trkpt lat="42.49598" lon="2.54767">
        <ele>1263.5</ele>
        <time>2020-09-01T10:02:01.074Z</time>
      </trkpt>
      <trkpt lat="42.49595" lon="2.54769">
        <ele>1263.2</ele>
        <time>2020-09-01T10:02:02.271Z</time>
      </trkpt>
      <trkpt lat="42.49592" lon="2.5477">
        <ele>1263</ele>
        <time>2020-09-01T10:02:03.300Z</time>
      </trkpt>
      <trkpt lat="42.4959" lon="2.54769">
        <ele>1262.8</ele>
        <time>2020-09-01T10:02:04.063Z</time>
      </trkpt>
      <trkpt lat="42.49588" lon="2.54771">
        <ele>1262.8</ele>
        <time>2020-09-01T10:02:10.537Z</time>
      </trkpt>
      <trkpt lat="42.49586" lon="2.54772">
        <ele>1262.7</ele>
        <time>2020-09-01T10:02:11.359Z</time>
      </trkpt>
      <trkpt lat="42.49583" lon="2.54775">
        <ele>1252.3</ele>
        <time>2020-09-01T10:02:12.694Z</time>
      </trkpt>
      <trkpt lat="42.49581" lon="2.54775">
        <ele>1252</ele>
        <time>2020-09-01T10:02:13.411Z</time>
      </trkpt>
      <trkpt lat="42.49578" lon="2.54777">
        <ele>1251.6</ele>
        <time>2020-09-01T10:02:14.608Z</time>
      </trkpt>
      <trkpt lat="42.49577" lon="2.54777">
        <ele>1251.4</ele>
        <time>2020-09-01T10:02:14.966Z</time>
      </trkpt>
      <trkpt lat="42.49575" lon="2.54779">
        <ele>1250.9</ele>
        <time>2020-09-01T10:02:15.856Z</time>
      </trkpt>
      <trkpt lat="42.49573" lon="2.54781">
        <ele>1250.6</ele>
        <time>2020-09-01T10:02:16.746Z</time>
      </trkpt>
      <trkpt lat="42.49572" lon="2.54782">
        <ele>1250.4</ele>
        <time>2020-09-01T10:02:17.191Z</time>
      </trkpt>
      <trkpt lat="42.4957" lon="2.54782">
        <ele>1250.1</ele>
        <time>2020-09-01T10:02:17.908Z</time>
      </trkpt>
      <trkpt lat="42.49568" lon="2.54781">
        <ele>1250</ele>
        <time>2020-09-01T10:02:18.730Z</time>
      </trkpt>
      <trkpt lat="42.49566" lon="2.5478">
        <ele>1249.9</ele>
        <time>2020-09-01T10:02:19.553Z</time>
      </trkpt>
      <trkpt lat="42.49565" lon="2.54782">
        <ele>1249.6</ele>
        <time>2020-09-01T10:02:20.191Z</time>
      </trkpt>
      <trkpt lat="42.49564" lon="2.54785">
        <ele>1249.3</ele>
        <time>2020-09-01T10:02:21.061Z</time>
      </trkpt>
      <trkpt lat="42.49562" lon="2.54786">
        <ele>1249</ele>
        <time>2020-09-01T10:02:21.824Z</time>
      </trkpt>
      <trkpt lat="42.4956" lon="2.54785">
        <ele>1248.8</ele>
        <time>2020-09-01T10:02:22.588Z</time>
      </trkpt>
      <trkpt lat="42.49558" lon="2.54786">
        <ele>1248.5</ele>
        <time>2020-09-01T10:02:23.351Z</time>
      </trkpt>
      <trkpt lat="42.49557" lon="2.54788">
        <ele>1248.3</ele>
        <time>2020-09-01T10:02:23.989Z</time>
      </trkpt>
      <trkpt lat="42.49556" lon="2.54791">
        <ele>1248.2</ele>
        <time>2020-09-01T10:02:24.976Z</time>
      </trkpt>
      <trkpt lat="42.49554" lon="2.54791">
        <ele>1248</ele>
        <time>2020-09-01T10:02:25.693Z</time>
      </trkpt>
      <trkpt lat="42.49551" lon="2.5479">
        <ele>1247.7</ele>
        <time>2020-09-01T10:02:26.799Z</time>
      </trkpt>
      <trkpt lat="42.4955" lon="2.54791">
        <ele>1247.5</ele>
        <time>2020-09-01T10:02:27.244Z</time>
      </trkpt>
      <trkpt lat="42.49548" lon="2.54793">
        <ele>1247.3</ele>
        <time>2020-09-01T10:02:28.134Z</time>
      </trkpt>
      <trkpt lat="42.49547" lon="2.54796">
        <ele>1247.3</ele>
        <time>2020-09-01T10:02:34.458Z</time>
      </trkpt>
      <trkpt lat="42.49547" lon="2.54799">
        <ele>1247.4</ele>
        <time>2020-09-01T10:02:44.227Z</time>
      </trkpt>
      <trkpt lat="42.49546" lon="2.54802">
        <ele>1247.5</ele>
        <time>2020-09-01T10:02:54.383Z</time>
      </trkpt>
      <trkpt lat="42.49546" lon="2.54805">
        <ele>1247.5</ele>
        <time>2020-09-01T10:03:00.145Z</time>
      </trkpt>
      <trkpt lat="42.49545" lon="2.54808">
        <ele>1247.5</ele>
        <time>2020-09-01T10:03:06.469Z</time>
      </trkpt>
      <trkpt lat="42.49543" lon="2.5481">
        <ele>1247.5</ele>
        <time>2020-09-01T10:03:12.942Z</time>
      </trkpt>
      <trkpt lat="42.49541" lon="2.54812">
        <ele>1247.4</ele>
        <time>2020-09-01T10:03:13.962Z</time>
      </trkpt>
      <trkpt lat="42.49539" lon="2.54814">
        <ele>1247.3</ele>
        <time>2020-09-01T10:03:14.982Z</time>
      </trkpt>
      <trkpt lat="42.49537" lon="2.54817">
        <ele>1247.3</ele>
        <time>2020-09-01T10:03:22.750Z</time>
      </trkpt>
      <trkpt lat="42.49535" lon="2.54819">
        <ele>1247.2</ele>
        <time>2020-09-01T10:03:23.770Z</time>
      </trkpt>
      <trkpt lat="42.49533" lon="2.54821">
        <ele>1247.1</ele>
        <time>2020-09-01T10:03:24.789Z</time>
      </trkpt>
      <trkpt lat="42.4953" lon="2.54822">
        <ele>1247</ele>
        <time>2020-09-01T10:03:26.159Z</time>
      </trkpt>
      <trkpt lat="42.49528" lon="2.54824">
        <ele>1247.1</ele>
        <time>2020-09-01T10:03:36.411Z</time>
      </trkpt>
      <trkpt lat="42.49526" lon="2.54827">
        <ele>1247.1</ele>
        <time>2020-09-01T10:03:44.180Z</time>
      </trkpt>
      <trkpt lat="42.49524" lon="2.54829">
        <ele>1247.1</ele>
        <time>2020-09-01T10:03:50.653Z</time>
      </trkpt>
      <trkpt lat="42.49521" lon="2.54829">
        <ele>1247</ele>
        <time>2020-09-01T10:03:51.970Z</time>
      </trkpt>
      <trkpt lat="42.49519" lon="2.54831">
        <ele>1247</ele>
        <time>2020-09-01T10:03:58.443Z</time>
      </trkpt>
      <trkpt lat="42.49517" lon="2.54831">
        <ele>1247.1</ele>
        <time>2020-09-01T10:04:07.554Z</time>
      </trkpt>
      <trkpt lat="42.49515" lon="2.54831">
        <ele>1247.1</ele>
        <time>2020-09-01T10:04:12.764Z</time>
      </trkpt>
      <trkpt lat="42.49512" lon="2.54832">
        <ele>1247.1</ele>
        <time>2020-09-01T10:04:20.811Z</time>
      </trkpt>
      <trkpt lat="42.49511" lon="2.54833">
        <ele>1247.2</ele>
        <time>2020-09-01T10:04:27.883Z</time>
      </trkpt>
      <trkpt lat="42.4951" lon="2.54835">
        <ele>1244.1</ele>
        <time>2020-09-01T10:04:28.522Z</time>
      </trkpt>
      <trkpt lat="42.49509" lon="2.54833">
        <ele>1247.3</ele>
        <time>2020-09-01T10:04:46.425Z</time>
      </trkpt>
      <trkpt lat="42.49508" lon="2.54831">
        <ele>1247.2</ele>
        <time>2020-09-01T10:04:47.060Z</time>
      </trkpt>
      <trkpt lat="42.49507" lon="2.54829">
        <ele>1247.2</ele>
        <time>2020-09-01T10:04:51.702Z</time>
      </trkpt>
      <trkpt lat="42.49506" lon="2.54826">
        <ele>1247.1</ele>
        <time>2020-09-01T10:04:52.689Z</time>
      </trkpt>
      <trkpt lat="42.49508" lon="2.54823">
        <ele>1246.8</ele>
        <time>2020-09-01T10:04:53.757Z</time>
      </trkpt>
      <trkpt lat="42.49509" lon="2.5482">
        <ele>1246.5</ele>
        <time>2020-09-01T10:04:54.626Z</time>
      </trkpt>
      <trkpt lat="42.49508" lon="2.54817">
        <ele>1246.2</ele>
        <time>2020-09-01T10:04:55.496Z</time>
      </trkpt>
      <trkpt lat="42.49508" lon="2.54813">
        <ele>1245.8</ele>
        <time>2020-09-01T10:04:56.552Z</time>
      </trkpt>
      <trkpt lat="42.4951" lon="2.54809">
        <ele>1245.4</ele>
        <time>2020-09-01T10:04:57.829Z</time>
      </trkpt>
      <trkpt lat="42.4951" lon="2.54804">
        <ele>1244.9</ele>
        <time>2020-09-01T10:04:59.149Z</time>
      </trkpt>
      <trkpt lat="42.49512" lon="2.54801">
        <ele>1244.6</ele>
        <time>2020-09-01T10:05:00.217Z</time>
      </trkpt>
      <trkpt lat="42.49513" lon="2.54797">
        <ele>1244.2</ele>
        <time>2020-09-01T10:05:01.333Z</time>
      </trkpt>
      <trkpt lat="42.49515" lon="2.54795">
        <ele>1243.9</ele>
        <time>2020-09-01T10:05:02.223Z</time>
      </trkpt>
      <trkpt lat="42.49515" lon="2.54791">
        <ele>1243.4</ele>
        <time>2020-09-01T10:05:03.279Z</time>
      </trkpt>
      <trkpt lat="42.49516" lon="2.54787">
        <ele>1242.8</ele>
        <time>2020-09-01T10:05:04.395Z</time>
      </trkpt>
      <trkpt lat="42.49515" lon="2.54781">
        <ele>1241.6</ele>
        <time>2020-09-01T10:05:06.019Z</time>
      </trkpt>
      <trkpt lat="42.49514" lon="2.54776">
        <ele>1240.4</ele>
        <time>2020-09-01T10:05:07.388Z</time>
      </trkpt>
      <trkpt lat="42.49515" lon="2.54773">
        <ele>1239.6</ele>
        <time>2020-09-01T10:05:08.257Z</time>
      </trkpt>
      <trkpt lat="42.49516" lon="2.5477">
        <ele>1239.2</ele>
        <time>2020-09-01T10:05:09.127Z</time>
      </trkpt>
      <trkpt lat="42.49517" lon="2.54766">
        <ele>1238.6</ele>
        <time>2020-09-01T10:05:10.242Z</time>
      </trkpt>
      <trkpt lat="42.49517" lon="2.54763">
        <ele>1237.7</ele>
        <time>2020-09-01T10:05:11.034Z</time>
      </trkpt>
      <trkpt lat="42.49518" lon="2.54758">
        <ele>1237.2</ele>
        <time>2020-09-01T10:05:12.403Z</time>
      </trkpt>
      <trkpt lat="42.4952" lon="2.54755">
        <ele>1237.3</ele>
        <time>2020-09-01T10:05:23.615Z</time>
      </trkpt>
      <trkpt lat="42.49521" lon="2.54752">
        <ele>1237.6</ele>
        <time>2020-09-01T10:05:44.967Z</time>
      </trkpt>
      <trkpt lat="42.49523" lon="2.5475">
        <ele>1228.7</ele>
        <time>2020-09-01T10:05:45.857Z</time>
      </trkpt>
      <trkpt lat="42.49525" lon="2.54747">
        <ele>1229</ele>
        <time>2020-09-01T10:06:06.177Z</time>
      </trkpt>
      <trkpt lat="42.49526" lon="2.54744">
        <ele>1229.2</ele>
        <time>2020-09-01T10:06:20.214Z</time>
      </trkpt>
      <trkpt lat="42.49527" lon="2.5474">
        <ele>1229.2</ele>
        <time>2020-09-01T10:06:28.326Z</time>
      </trkpt>
      <trkpt lat="42.49528" lon="2.54736">
        <ele>1229.3</ele>
        <time>2020-09-01T10:06:39.820Z</time>
      </trkpt>
      <trkpt lat="42.4953" lon="2.54732">
        <ele>1229.3</ele>
        <time>2020-09-01T10:06:49.103Z</time>
      </trkpt>
      <trkpt lat="42.4953" lon="2.54729">
        <ele>1229</ele>
        <time>2020-09-01T10:06:49.895Z</time>
      </trkpt>
      <trkpt lat="42.4953" lon="2.54725">
        <ele>1228.6</ele>
        <time>2020-09-01T10:06:50.951Z</time>
      </trkpt>
      <trkpt lat="42.49532" lon="2.54722">
        <ele>1228.6</ele>
        <time>2020-09-01T10:06:58.720Z</time>
      </trkpt>
      <trkpt lat="42.49534" lon="2.54719">
        <ele>1228.7</ele>
        <time>2020-09-01T10:07:09.932Z</time>
      </trkpt>
      <trkpt lat="42.49536" lon="2.54716">
        <ele>1228.9</ele>
        <time>2020-09-01T10:07:25.226Z</time>
      </trkpt>
      <trkpt lat="42.49539" lon="2.54714">
        <ele>1229.1</ele>
        <time>2020-09-01T10:07:41.501Z</time>
      </trkpt>
      <trkpt lat="42.49541" lon="2.5471">
        <ele>1229</ele>
        <time>2020-09-01T10:07:43.154Z</time>
      </trkpt>
      <trkpt lat="42.49543" lon="2.54707">
        <ele>1229.1</ele>
        <time>2020-09-01T10:07:54.367Z</time>
      </trkpt>
      <trkpt lat="42.49544" lon="2.54706">
        <ele>1229.2</ele>
        <time>2020-09-01T10:08:01.439Z</time>
      </trkpt>
      <trkpt lat="42.49546" lon="2.54704">
        <ele>1229.4</ele>
        <time>2020-09-01T10:08:15.583Z</time>
      </trkpt>
      <trkpt lat="42.49549" lon="2.547">
        <ele>1229.6</ele>
        <time>2020-09-01T10:08:34.442Z</time>
      </trkpt>
      <trkpt lat="42.49551" lon="2.54699">
        <ele>1230</ele>
        <time>2020-09-01T10:08:55.860Z</time>
      </trkpt>
      <trkpt lat="42.49553" lon="2.54696">
        <ele>1230.4</ele>
        <time>2020-09-01T10:09:25.824Z</time>
      </trkpt>
      <trkpt lat="42.49555" lon="2.54693">
        <ele>1230.7</ele>
        <time>2020-09-01T10:09:46.145Z</time>
      </trkpt>
      <trkpt lat="42.49558" lon="2.54689">
        <ele>1231</ele>
        <time>2020-09-01T10:10:08.417Z</time>
      </trkpt>
      <trkpt lat="42.49559" lon="2.54688">
        <ele>1231.3</ele>
        <time>2020-09-01T10:10:20.901Z</time>
      </trkpt>
      <trkpt lat="42.4956" lon="2.54685">
        <ele>1231.5</ele>
        <time>2020-09-01T10:10:34.938Z</time>
      </trkpt>
      <trkpt lat="42.49562" lon="2.54681">
        <ele>1231.9</ele>
        <time>2020-09-01T10:11:02.350Z</time>
      </trkpt>
      <trkpt lat="42.49562" lon="2.54679">
        <ele>1232.1</ele>
        <time>2020-09-01T10:11:17.168Z</time>
      </trkpt>
      <trkpt lat="42.49562" lon="2.54676">
        <ele>1232.3</ele>
        <time>2020-09-01T10:11:30.873Z</time>
      </trkpt>
      <trkpt lat="42.49564" lon="2.54673">
        <ele>1232.7</ele>
        <time>2020-09-01T10:12:00.837Z</time>
      </trkpt>
      <trkpt lat="42.49565" lon="2.5467">
        <ele>1233.4</ele>
        <time>2020-09-01T10:12:25.228Z</time>
      </trkpt>
      <trkpt lat="42.49567" lon="2.54667">
        <ele>1234</ele>
        <time>2020-09-01T10:12:55.192Z</time>
      </trkpt>
      <trkpt lat="42.49568" lon="2.54663">
        <ele>1222.8</ele>
        <time>2020-09-01T10:12:56.308Z</time>
      </trkpt>
      <trkpt lat="42.49569" lon="2.5466">
        <ele>1222.8</ele>
        <time>2020-09-01T10:13:02.632Z</time>
      </trkpt>
      <trkpt lat="42.4957" lon="2.54657">
        <ele>1222.4</ele>
        <time>2020-09-01T10:13:03.501Z</time>
      </trkpt>
      <trkpt lat="42.49571" lon="2.54654">
        <ele>1221.7</ele>
        <time>2020-09-01T10:13:04.371Z</time>
      </trkpt>
      <trkpt lat="42.49573" lon="2.54652">
        <ele>1221.5</ele>
        <time>2020-09-01T10:13:05.261Z</time>
      </trkpt>
      <trkpt lat="42.49573" lon="2.54649">
        <ele>1220.1</ele>
        <time>2020-09-01T10:13:06.053Z</time>
      </trkpt>
      <trkpt lat="42.49575" lon="2.54645">
        <ele>1218.1</ele>
        <time>2020-09-01T10:13:07.329Z</time>
      </trkpt>
      <trkpt lat="42.49575" lon="2.54642">
        <ele>1217</ele>
        <time>2020-09-01T10:13:08.122Z</time>
      </trkpt>
      <trkpt lat="42.49575" lon="2.5464">
        <ele>1216.1</ele>
        <time>2020-09-01T10:13:08.650Z</time>
      </trkpt>
      <trkpt lat="42.49576" lon="2.54636">
        <ele>1214.5</ele>
        <time>2020-09-01T10:13:09.765Z</time>
      </trkpt>
      <trkpt lat="42.49577" lon="2.54632">
        <ele>1213.3</ele>
        <time>2020-09-01T10:13:10.881Z</time>
      </trkpt>
      <trkpt lat="42.49576" lon="2.54628">
        <ele>1212.2</ele>
        <time>2020-09-01T10:13:11.996Z</time>
      </trkpt>
      <trkpt lat="42.49576" lon="2.54623">
        <ele>1211.1</ele>
        <time>2020-09-01T10:13:13.317Z</time>
      </trkpt>
      <trkpt lat="42.49577" lon="2.5462">
        <ele>1210.5</ele>
        <time>2020-09-01T10:13:14.186Z</time>
      </trkpt>
      <trkpt lat="42.49577" lon="2.54615">
        <ele>1210</ele>
        <time>2020-09-01T10:13:15.507Z</time>
      </trkpt>
      <trkpt lat="42.49577" lon="2.54613">
        <ele>1209.8</ele>
        <time>2020-09-01T10:13:16.035Z</time>
      </trkpt>
      <trkpt lat="42.49578" lon="2.54609">
        <ele>1209.8</ele>
        <time>2020-09-01T10:13:24.148Z</time>
      </trkpt>
      <trkpt lat="42.49578" lon="2.54605">
        <ele>1209.8</ele>
        <time>2020-09-01T10:13:31.831Z</time>
      </trkpt>
      <trkpt lat="42.49578" lon="2.54602">
        <ele>1209.9</ele>
        <time>2020-09-01T10:13:41.600Z</time>
      </trkpt>
      <trkpt lat="42.49578" lon="2.54598">
        <ele>1210.4</ele>
        <time>2020-09-01T10:14:11.234Z</time>
      </trkpt>
      <trkpt lat="42.49578" lon="2.54596">
        <ele>1210.9</ele>
        <time>2020-09-01T10:14:26.052Z</time>
      </trkpt>
      <trkpt lat="42.4958" lon="2.54592">
        <ele>1212.2</ele>
        <time>2020-09-01T10:15:01.858Z</time>
      </trkpt>
      <trkpt lat="42.49582" lon="2.54589">
        <ele>1213.3</ele>
        <time>2020-09-01T10:15:31.822Z</time>
      </trkpt>
      <trkpt lat="42.49583" lon="2.54584">
        <ele>1215.4</ele>
        <time>2020-09-01T10:16:10.203Z</time>
      </trkpt>
      <trkpt lat="42.49583" lon="2.54581">
        <ele>1212.5</ele>
        <time>2020-09-01T10:16:10.996Z</time>
      </trkpt>
      <trkpt lat="42.49584" lon="2.54578">
        <ele>1218.2</ele>
        <time>2020-09-01T10:16:35.387Z</time>
      </trkpt>
      <trkpt lat="42.49585" lon="2.54576">
        <ele>1219</ele>
        <time>2020-09-01T10:16:53.290Z</time>
      </trkpt>
      <trkpt lat="42.49586" lon="2.54574">
        <ele>1219.7</ele>
        <time>2020-09-01T10:17:11.193Z</time>
      </trkpt>
      <trkpt lat="42.49588" lon="2.5457">
        <ele>1220.7</ele>
        <time>2020-09-01T10:17:46.999Z</time>
      </trkpt>
      <trkpt lat="42.4959" lon="2.54567">
        <ele>1221.4</ele>
        <time>2020-09-01T10:18:16.963Z</time>
      </trkpt>
      <trkpt lat="42.49591" lon="2.54563">
        <ele>1221.9</ele>
        <time>2020-09-01T10:18:48.255Z</time>
      </trkpt>
      <trkpt lat="42.49594" lon="2.5456">
        <ele>1222.4</ele>
        <time>2020-09-01T10:19:25.707Z</time>
      </trkpt>
      <trkpt lat="42.49596" lon="2.54558">
        <ele>1222.7</ele>
        <time>2020-09-01T10:19:46.802Z</time>
      </trkpt>
      <trkpt lat="42.49599" lon="2.54556">
        <ele>1223.2</ele>
        <time>2020-09-01T10:20:20.391Z</time>
      </trkpt>
      <trkpt lat="42.49601" lon="2.54554">
        <ele>1223.6</ele>
        <time>2020-09-01T10:20:45.358Z</time>
      </trkpt>
      <trkpt lat="42.49603" lon="2.54551">
        <ele>1223.8</ele>
        <time>2020-09-01T10:21:00.652Z</time>
      </trkpt>
      <trkpt lat="42.49605" lon="2.54548">
        <ele>1223.9</ele>
        <time>2020-09-01T10:21:11.865Z</time>
      </trkpt>
      <trkpt lat="42.49607" lon="2.54545">
        <ele>1224</ele>
        <time>2020-09-01T10:21:23.077Z</time>
      </trkpt>
      <trkpt lat="42.4961" lon="2.54544">
        <ele>1224.7</ele>
        <time>2020-09-01T10:21:54.118Z</time>
      </trkpt>
      <trkpt lat="42.49613" lon="2.54543">
        <ele>1225.3</ele>
        <time>2020-09-01T10:22:25.159Z</time>
      </trkpt>
      <trkpt lat="42.49615" lon="2.5454">
        <ele>1225.7</ele>
        <time>2020-09-01T10:22:55.123Z</time>
      </trkpt>
      <trkpt lat="42.49617" lon="2.54537">
        <ele>1225.6</ele>
        <time>2020-09-01T10:22:56.430Z</time>
      </trkpt>
      <trkpt lat="42.49617" lon="2.54535">
        <ele>1225.4</ele>
        <time>2020-09-01T10:22:56.958Z</time>
      </trkpt>
      <trkpt lat="42.49619" lon="2.54532">
        <ele>1225.5</ele>
        <time>2020-09-01T10:23:08.171Z</time>
      </trkpt>
      <trkpt lat="42.4962" lon="2.54529">
        <ele>1225.7</ele>
        <time>2020-09-01T10:23:22.207Z</time>
      </trkpt>
      <trkpt lat="42.49622" lon="2.54526">
        <ele>1225.8</ele>
        <time>2020-09-01T10:23:33.419Z</time>
      </trkpt>
      <trkpt lat="42.49621" lon="2.54523">
        <ele>1225.1</ele>
        <time>2020-09-01T10:23:34.289Z</time>
      </trkpt>
      <trkpt lat="42.49621" lon="2.5452">
        <ele>1224.6</ele>
        <time>2020-09-01T10:23:35.081Z</time>
      </trkpt>
      <trkpt lat="42.4962" lon="2.54517">
        <ele>1223.5</ele>
        <time>2020-09-01T10:23:35.950Z</time>
      </trkpt>
      <trkpt lat="42.49619" lon="2.54511">
        <ele>1222.7</ele>
        <time>2020-09-01T10:23:37.575Z</time>
      </trkpt>
      <trkpt lat="42.49621" lon="2.54506">
        <ele>1222.9</ele>
        <time>2020-09-01T10:23:56.394Z</time>
      </trkpt>
      <trkpt lat="42.49621" lon="2.54502">
        <ele>1222.8</ele>
        <time>2020-09-01T10:23:57.682Z</time>
      </trkpt>
      <trkpt lat="42.49622" lon="2.54498">
        <ele>1213</ele>
        <time>2020-09-01T10:23:58.797Z</time>
      </trkpt>
      <trkpt lat="42.49622" lon="2.54495">
        <ele>1213</ele>
        <time>2020-09-01T10:24:04.559Z</time>
      </trkpt>
      <trkpt lat="42.49621" lon="2.54493">
        <ele>1212.8</ele>
        <time>2020-09-01T10:24:05.198Z</time>
      </trkpt>
      <trkpt lat="42.4962" lon="2.5449">
        <ele>1212.3</ele>
        <time>2020-09-01T10:24:06.067Z</time>
      </trkpt>
      <trkpt lat="42.49619" lon="2.54486">
        <ele>1211.7</ele>
        <time>2020-09-01T10:24:07.182Z</time>
      </trkpt>
      <trkpt lat="42.49618" lon="2.54483">
        <ele>1211</ele>
        <time>2020-09-01T10:24:08.052Z</time>
      </trkpt>
      <trkpt lat="42.49617" lon="2.54481">
        <ele>1210.5</ele>
        <time>2020-09-01T10:24:08.690Z</time>
      </trkpt>
      <trkpt lat="42.49617" lon="2.54476">
        <ele>1210.6</ele>
        <time>2020-09-01T10:24:21.469Z</time>
      </trkpt>
      <trkpt lat="42.49617" lon="2.54472">
        <ele>1210.5</ele>
        <time>2020-09-01T10:24:22.756Z</time>
      </trkpt>
      <trkpt lat="42.49618" lon="2.5447">
        <ele>1210.9</ele>
        <time>2020-09-01T10:24:40.659Z</time>
      </trkpt>
      <trkpt lat="42.49619" lon="2.54467">
        <ele>1211.4</ele>
        <time>2020-09-01T10:25:05.051Z</time>
      </trkpt>
      <trkpt lat="42.49622" lon="2.54464">
        <ele>1212</ele>
        <time>2020-09-01T10:25:42.503Z</time>
      </trkpt>
      <trkpt lat="42.49623" lon="2.54461">
        <ele>1212.2</ele>
        <time>2020-09-01T10:25:56.539Z</time>
      </trkpt>
      <trkpt lat="42.49623" lon="2.54457">
        <ele>1212.1</ele>
        <time>2020-09-01T10:25:57.826Z</time>
      </trkpt>
      <trkpt lat="42.49622" lon="2.54452">
        <ele>1211.5</ele>
        <time>2020-09-01T10:25:59.195Z</time>
      </trkpt>
      <trkpt lat="42.49622" lon="2.54448">
        <ele>1211.3</ele>
        <time>2020-09-01T10:26:00.251Z</time>
      </trkpt>
      <trkpt lat="42.49622" lon="2.54444">
        <ele>1211</ele>
        <time>2020-09-01T10:26:01.307Z</time>
      </trkpt>
      <trkpt lat="42.49622" lon="2.54441">
        <ele>1210.8</ele>
        <time>2020-09-01T10:26:02.100Z</time>
      </trkpt>
      <trkpt lat="42.49621" lon="2.54438">
        <ele>1210.1</ele>
        <time>2020-09-01T10:26:02.969Z</time>
      </trkpt>
      <trkpt lat="42.49621" lon="2.54435">
        <ele>1209.8</ele>
        <time>2020-09-01T10:26:03.761Z</time>
      </trkpt>
      <trkpt lat="42.49621" lon="2.54431">
        <ele>1209.4</ele>
        <time>2020-09-01T10:26:04.818Z</time>
      </trkpt>
      <trkpt lat="42.49621" lon="2.54428">
        <ele>1209.1</ele>
        <time>2020-09-01T10:26:05.610Z</time>
      </trkpt>
      <trkpt lat="42.49622" lon="2.54425">
        <ele>1209.4</ele>
        <time>2020-09-01T10:26:26.962Z</time>
      </trkpt>
      <trkpt lat="42.49622" lon="2.54423">
        <ele>1209.5</ele>
        <time>2020-09-01T10:26:34.566Z</time>
      </trkpt>
      <trkpt lat="42.49622" lon="2.5442">
        <ele>1209.5</ele>
        <time>2020-09-01T10:26:40.329Z</time>
      </trkpt>
      <trkpt lat="42.49622" lon="2.54417">
        <ele>1209.1</ele>
        <time>2020-09-01T10:26:41.121Z</time>
      </trkpt>
      <trkpt lat="42.49622" lon="2.54414">
        <ele>1204.1</ele>
        <time>2020-09-01T10:26:41.913Z</time>
      </trkpt>
      <trkpt lat="42.49623" lon="2.5441">
        <ele>1204.5</ele>
        <time>2020-09-01T10:27:11.100Z</time>
      </trkpt>
      <trkpt lat="42.49624" lon="2.54406">
        <ele>1205.3</ele>
        <time>2020-09-01T10:27:42.391Z</time>
      </trkpt>
      <trkpt lat="42.49625" lon="2.54402">
        <ele>1205.6</ele>
        <time>2020-09-01T10:28:02.760Z</time>
      </trkpt>
      <trkpt lat="42.49626" lon="2.54398">
        <ele>1206.2</ele>
        <time>2020-09-01T10:28:34.052Z</time>
      </trkpt>
      <trkpt lat="42.49627" lon="2.54395">
        <ele>1206.2</ele>
        <time>2020-09-01T10:28:40.375Z</time>
      </trkpt>
      <trkpt lat="42.49626" lon="2.54392">
        <ele>1205.6</ele>
        <time>2020-09-01T10:28:41.245Z</time>
      </trkpt>
      <trkpt lat="42.49625" lon="2.54389">
        <ele>1205.1</ele>
        <time>2020-09-01T10:28:42.114Z</time>
      </trkpt>
      <trkpt lat="42.49624" lon="2.54386">
        <ele>1204.8</ele>
        <time>2020-09-01T10:28:42.984Z</time>
      </trkpt>
      <trkpt lat="42.49624" lon="2.54381">
        <ele>1204.5</ele>
        <time>2020-09-01T10:28:44.304Z</time>
      </trkpt>
      <trkpt lat="42.49624" lon="2.54379">
        <ele>1204.5</ele>
        <time>2020-09-01T10:28:48.146Z</time>
      </trkpt>
      <trkpt lat="42.49623" lon="2.54376">
        <ele>1204</ele>
        <time>2020-09-01T10:28:49.015Z</time>
      </trkpt>
      <trkpt lat="42.49623" lon="2.54374">
        <ele>1203.8</ele>
        <time>2020-09-01T10:28:49.544Z</time>
      </trkpt>
      <trkpt lat="42.49622" lon="2.54371">
        <ele>1203.6</ele>
        <time>2020-09-01T10:28:50.413Z</time>
      </trkpt>
      <trkpt lat="42.49621" lon="2.54368">
        <ele>1203</ele>
        <time>2020-09-01T10:28:51.283Z</time>
      </trkpt>
      <trkpt lat="42.49621" lon="2.54365">
        <ele>1202.7</ele>
        <time>2020-09-01T10:28:52.075Z</time>
      </trkpt>
      <trkpt lat="42.4962" lon="2.54361">
        <ele>1202.4</ele>
        <time>2020-09-01T10:28:53.190Z</time>
      </trkpt>
      <trkpt lat="42.4962" lon="2.54357">
        <ele>1202.1</ele>
        <time>2020-09-01T10:28:54.247Z</time>
      </trkpt>
      <trkpt lat="42.49619" lon="2.54353">
        <ele>1201.6</ele>
        <time>2020-09-01T10:28:55.362Z</time>
      </trkpt>
      <trkpt lat="42.4962" lon="2.54349">
        <ele>1201.7</ele>
        <time>2020-09-01T10:29:06.855Z</time>
      </trkpt>
      <trkpt lat="42.49621" lon="2.54346">
        <ele>1202</ele>
        <time>2020-09-01T10:29:28.207Z</time>
      </trkpt>
      <trkpt lat="42.49621" lon="2.54342">
        <ele>1201.8</ele>
        <time>2020-09-01T10:29:29.263Z</time>
      </trkpt>
      <trkpt lat="42.4962" lon="2.54339">
        <ele>1201.3</ele>
        <time>2020-09-01T10:29:30.133Z</time>
      </trkpt>
      <trkpt lat="42.4962" lon="2.54336">
        <ele>1201</ele>
        <time>2020-09-01T10:29:30.925Z</time>
      </trkpt>
      <trkpt lat="42.4962" lon="2.54332">
        <ele>1201.6</ele>
        <time>2020-09-01T10:30:00.560Z</time>
      </trkpt>
      <trkpt lat="42.49621" lon="2.54329">
        <ele>1202</ele>
        <time>2020-09-01T10:30:24.951Z</time>
      </trkpt>
      <trkpt lat="42.49621" lon="2.54327">
        <ele>1202.3</ele>
        <time>2020-09-01T10:30:39.768Z</time>
      </trkpt>
      <trkpt lat="42.49621" lon="2.54325">
        <ele>1202.2</ele>
        <time>2020-09-01T10:30:40.297Z</time>
      </trkpt>
      <trkpt lat="42.49619" lon="2.54323">
        <ele>1201.8</ele>
        <time>2020-09-01T10:30:41.187Z</time>
      </trkpt>
      <trkpt lat="42.49617" lon="2.54324">
        <ele>1200.7</ele>
        <time>2020-09-01T10:30:41.950Z</time>
      </trkpt>
      <trkpt lat="42.49615" lon="2.54324">
        <ele>1199.6</ele>
        <time>2020-09-01T10:30:42.666Z</time>
      </trkpt>
      <trkpt lat="42.49614" lon="2.54321">
        <ele>1199.6</ele>
        <time>2020-09-01T10:30:48.990Z</time>
      </trkpt>
      <trkpt lat="42.49615" lon="2.54317">
        <ele>1200.1</ele>
        <time>2020-09-01T10:31:20.282Z</time>
      </trkpt>
      <trkpt lat="42.49614" lon="2.54314">
        <ele>1200.2</ele>
        <time>2020-09-01T10:31:30.438Z</time>
      </trkpt>
      <trkpt lat="42.49615" lon="2.5431">
        <ele>1200.9</ele>
        <time>2020-09-01T10:32:01.729Z</time>
      </trkpt>
      <trkpt lat="42.49615" lon="2.54307">
        <ele>1201.5</ele>
        <time>2020-09-01T10:32:23.955Z</time>
      </trkpt>
      <trkpt lat="42.49614" lon="2.54304">
        <ele>1201.6</ele>
        <time>2020-09-01T10:32:34.111Z</time>
      </trkpt>
      <trkpt lat="42.49613" lon="2.54302">
        <ele>1201.5</ele>
        <time>2020-09-01T10:32:34.746Z</time>
      </trkpt>
      <trkpt lat="42.49611" lon="2.54298">
        <ele>1201.2</ele>
        <time>2020-09-01T10:32:36.023Z</time>
      </trkpt>
      <trkpt lat="42.49609" lon="2.54296">
        <ele>1201.1</ele>
        <time>2020-09-01T10:32:37.042Z</time>
      </trkpt>
      <trkpt lat="42.49608" lon="2.54293">
        <ele>1201.1</ele>
        <time>2020-09-01T10:32:43.366Z</time>
      </trkpt>
      <trkpt lat="42.49607" lon="2.5429">
        <ele>1201</ele>
        <time>2020-09-01T10:32:44.353Z</time>
      </trkpt>
      <trkpt lat="42.49606" lon="2.54288">
        <ele>1200.9</ele>
        <time>2020-09-01T10:32:44.989Z</time>
      </trkpt>
      <trkpt lat="42.49604" lon="2.54284">
        <ele>1200.8</ele>
        <time>2020-09-01T10:32:46.642Z</time>
      </trkpt>
      <trkpt lat="42.49603" lon="2.5428">
        <ele>1200.5</ele>
        <time>2020-09-01T10:32:47.757Z</time>
      </trkpt>
      <trkpt lat="42.49602" lon="2.54278">
        <ele>1200.4</ele>
        <time>2020-09-01T10:32:48.392Z</time>
      </trkpt>
      <trkpt lat="42.49601" lon="2.54274">
        <ele>1200.1</ele>
        <time>2020-09-01T10:32:49.508Z</time>
      </trkpt>
      <trkpt lat="42.496" lon="2.54271">
        <ele>1199.7</ele>
        <time>2020-09-01T10:32:50.377Z</time>
      </trkpt>
      <trkpt lat="42.49598" lon="2.54267">
        <ele>1199.1</ele>
        <time>2020-09-01T10:32:51.654Z</time>
      </trkpt>
      <trkpt lat="42.49599" lon="2.54264">
        <ele>1198.9</ele>
        <time>2020-09-01T10:32:52.523Z</time>
      </trkpt>
      <trkpt lat="42.49598" lon="2.54261">
        <ele>1198.4</ele>
        <time>2020-09-01T10:32:53.393Z</time>
      </trkpt>
      <trkpt lat="42.49597" lon="2.54259">
        <ele>1197.9</ele>
        <time>2020-09-01T10:32:54.031Z</time>
      </trkpt>
      <trkpt lat="42.49595" lon="2.54257">
        <ele>1196.9</ele>
        <time>2020-09-01T10:32:54.921Z</time>
      </trkpt>
      <trkpt lat="42.49595" lon="2.54252">
        <ele>1196.5</ele>
        <time>2020-09-01T10:32:56.242Z</time>
      </trkpt>
      <trkpt lat="42.49594" lon="2.54251">
        <ele>1196</ele>
        <time>2020-09-01T10:32:56.687Z</time>
      </trkpt>
      <trkpt lat="42.49593" lon="2.54249">
        <ele>1198.7</ele>
        <time>2020-09-01T10:33:14.589Z</time>
      </trkpt>
      <trkpt lat="42.49592" lon="2.54248">
        <ele>1198.1</ele>
        <time>2020-09-01T10:33:15.034Z</time>
      </trkpt>
      <trkpt lat="42.4959" lon="2.54247">
        <ele>1197.1</ele>
        <time>2020-09-01T10:33:15.798Z</time>
      </trkpt>
      <trkpt lat="42.49591" lon="2.54243">
        <ele>1199</ele>
        <time>2020-09-01T10:33:47.090Z</time>
      </trkpt>
      <trkpt lat="42.49591" lon="2.54241">
        <ele>1200.2</ele>
        <time>2020-09-01T10:34:01.907Z</time>
      </trkpt>
      <trkpt lat="42.49592" lon="2.54236">
        <ele>1202.5</ele>
        <time>2020-09-01T10:34:40.289Z</time>
      </trkpt>
      <trkpt lat="42.4959" lon="2.54239">
        <ele>1200.7</ele>
        <time>2020-09-01T10:34:41.357Z</time>
      </trkpt>
      <trkpt lat="42.49588" lon="2.54241">
        <ele>1198.9</ele>
        <time>2020-09-01T10:34:42.247Z</time>
      </trkpt>
      <trkpt lat="42.49585" lon="2.54243">
        <ele>1197.1</ele>
        <time>2020-09-01T10:34:43.444Z</time>
      </trkpt>
      <trkpt lat="42.49584" lon="2.54245">
        <ele>1195.5</ele>
        <time>2020-09-01T10:34:44.082Z</time>
      </trkpt>
      <trkpt lat="42.49583" lon="2.54247">
        <ele>1194.3</ele>
        <time>2020-09-01T10:34:44.721Z</time>
      </trkpt>
      <trkpt lat="42.49581" lon="2.54248">
        <ele>1194.1</ele>
        <time>2020-09-01T10:34:45.484Z</time>
      </trkpt>
      <trkpt lat="42.4958" lon="2.5425">
        <ele>1194.6</ele>
        <time>2020-09-01T10:35:03.387Z</time>
      </trkpt>
      <trkpt lat="42.49577" lon="2.54252">
        <ele>1191.4</ele>
        <time>2020-09-01T10:35:04.584Z</time>
      </trkpt>
      <trkpt lat="42.49575" lon="2.54255">
        <ele>1191.6</ele>
        <time>2020-09-01T10:35:19.878Z</time>
      </trkpt>
      <trkpt lat="42.49573" lon="2.54256">
        <ele>1191.7</ele>
        <time>2020-09-01T10:35:29.395Z</time>
      </trkpt>
      <trkpt lat="42.49572" lon="2.54258">
        <ele>1191.8</ele>
        <time>2020-09-01T10:35:37.850Z</time>
      </trkpt>
      <trkpt lat="42.49568" lon="2.5426">
        <ele>1192</ele>
        <time>2020-09-01T10:35:56.885Z</time>
      </trkpt>
      <trkpt lat="42.49567" lon="2.54261">
        <ele>1192.1</ele>
        <time>2020-09-01T10:36:03.957Z</time>
      </trkpt>
      <trkpt lat="42.49566" lon="2.54264">
        <ele>1192</ele>
        <time>2020-09-01T10:36:04.944Z</time>
      </trkpt>
      <trkpt lat="42.49564" lon="2.54266">
        <ele>1192.1</ele>
        <time>2020-09-01T10:36:15.196Z</time>
      </trkpt>
      <trkpt lat="42.49563" lon="2.54269">
        <ele>1192.1</ele>
        <time>2020-09-01T10:36:21.520Z</time>
      </trkpt>
      <trkpt lat="42.49563" lon="2.54275">
        <ele>1191.6</ele>
        <time>2020-09-01T10:36:23.105Z</time>
      </trkpt>
      <trkpt lat="42.49561" lon="2.54279">
        <ele>1191.4</ele>
        <time>2020-09-01T10:36:24.375Z</time>
      </trkpt>
      <trkpt lat="42.4956" lon="2.54281">
        <ele>1191.3</ele>
        <time>2020-09-01T10:36:25.011Z</time>
      </trkpt>
      <trkpt lat="42.49558" lon="2.54283">
        <ele>1191.1</ele>
        <time>2020-09-01T10:36:25.901Z</time>
      </trkpt>
      <trkpt lat="42.49557" lon="2.54287">
        <ele>1190.8</ele>
        <time>2020-09-01T10:36:27.016Z</time>
      </trkpt>
      <trkpt lat="42.49556" lon="2.5429">
        <ele>1190.4</ele>
        <time>2020-09-01T10:36:27.886Z</time>
      </trkpt>
      <trkpt lat="42.49556" lon="2.54292">
        <ele>1190.3</ele>
        <time>2020-09-01T10:36:28.414Z</time>
      </trkpt>
      <trkpt lat="42.49554" lon="2.54296">
        <ele>1189.9</ele>
        <time>2020-09-01T10:36:29.690Z</time>
      </trkpt>
      <trkpt lat="42.49552" lon="2.54298">
        <ele>1189.8</ele>
        <time>2020-09-01T10:36:30.710Z</time>
      </trkpt>
      <trkpt lat="42.4955" lon="2.54299">
        <ele>1189.9</ele>
        <time>2020-09-01T10:36:40.227Z</time>
      </trkpt>
      <trkpt lat="42.49547" lon="2.54301">
        <ele>1189.9</ele>
        <time>2020-09-01T10:36:48.935Z</time>
      </trkpt>
      <trkpt lat="42.49545" lon="2.54303">
        <ele>1189.8</ele>
        <time>2020-09-01T10:36:49.955Z</time>
      </trkpt>
      <trkpt lat="42.49544" lon="2.54308">
        <ele>1189.2</ele>
        <time>2020-09-01T10:36:51.323Z</time>
      </trkpt>
      <trkpt lat="42.49542" lon="2.5431">
        <ele>1189.1</ele>
        <time>2020-09-01T10:36:52.343Z</time>
      </trkpt>
      <trkpt lat="42.49539" lon="2.54314">
        <ele>1188.9</ele>
        <time>2020-09-01T10:36:53.957Z</time>
      </trkpt>
      <trkpt lat="42.49539" lon="2.54316">
        <ele>1188.8</ele>
        <time>2020-09-01T10:36:54.485Z</time>
      </trkpt>
      <trkpt lat="42.49536" lon="2.54318">
        <ele>1188.7</ele>
        <time>2020-09-01T10:36:56.006Z</time>
      </trkpt>
      <trkpt lat="42.49535" lon="2.54322">
        <ele>1188.4</ele>
        <time>2020-09-01T10:36:57.121Z</time>
      </trkpt>
      <trkpt lat="42.49533" lon="2.54326">
        <ele>1188.1</ele>
        <time>2020-09-01T10:36:58.398Z</time>
      </trkpt>
      <trkpt lat="42.49533" lon="2.5433">
        <ele>1187.9</ele>
        <time>2020-09-01T10:36:59.454Z</time>
      </trkpt>
      <trkpt lat="42.49531" lon="2.54333">
        <ele>1187.7</ele>
        <time>2020-09-01T10:37:00.522Z</time>
      </trkpt>
      <trkpt lat="42.4953" lon="2.54334">
        <ele>1175.8</ele>
        <time>2020-09-01T10:37:00.967Z</time>
      </trkpt>
      <trkpt lat="42.49528" lon="2.54337">
        <ele>1176</ele>
        <time>2020-09-01T10:37:16.261Z</time>
      </trkpt>
      <trkpt lat="42.49525" lon="2.54339">
        <ele>1176.1</ele>
        <time>2020-09-01T10:37:28.256Z</time>
      </trkpt>
      <trkpt lat="42.49523" lon="2.54341">
        <ele>1176.3</ele>
        <time>2020-09-01T10:37:42.400Z</time>
      </trkpt>
      <trkpt lat="42.49521" lon="2.54346">
        <ele>1176</ele>
        <time>2020-09-01T10:37:43.902Z</time>
      </trkpt>
      <trkpt lat="42.49519" lon="2.54349">
        <ele>1175.8</ele>
        <time>2020-09-01T10:37:44.970Z</time>
      </trkpt>
      <trkpt lat="42.49517" lon="2.54352">
        <ele>1175.4</ele>
        <time>2020-09-01T10:37:46.039Z</time>
      </trkpt>
      <trkpt lat="42.49517" lon="2.54354">
        <ele>1175.1</ele>
        <time>2020-09-01T10:37:46.567Z</time>
      </trkpt>
      <trkpt lat="42.49517" lon="2.54358">
        <ele>1174.4</ele>
        <time>2020-09-01T10:37:47.623Z</time>
      </trkpt>
      <trkpt lat="42.49516" lon="2.54362">
        <ele>1173.6</ele>
        <time>2020-09-01T10:37:48.739Z</time>
      </trkpt>
      <trkpt lat="42.49516" lon="2.54364">
        <ele>1173.3</ele>
        <time>2020-09-01T10:37:49.267Z</time>
      </trkpt>
      <trkpt lat="42.49518" lon="2.54366">
        <ele>1172.8</ele>
        <time>2020-09-01T10:37:50.157Z</time>
      </trkpt>
      <trkpt lat="42.4952" lon="2.54368">
        <ele>1172.4</ele>
        <time>2020-09-01T10:37:51.047Z</time>
      </trkpt>
      <trkpt lat="42.4952" lon="2.54371">
        <ele>1171.9</ele>
        <time>2020-09-01T10:37:51.839Z</time>
      </trkpt>
      <trkpt lat="42.49519" lon="2.54375">
        <ele>1171.2</ele>
        <time>2020-09-01T10:37:52.955Z</time>
      </trkpt>
      <trkpt lat="42.49518" lon="2.54378">
        <ele>1170.5</ele>
        <time>2020-09-01T10:37:53.824Z</time>
      </trkpt>
      <trkpt lat="42.49517" lon="2.54382">
        <ele>1169.6</ele>
        <time>2020-09-01T10:37:54.940Z</time>
      </trkpt>
      <trkpt lat="42.49515" lon="2.54386">
        <ele>1168.7</ele>
        <time>2020-09-01T10:37:56.216Z</time>
      </trkpt>
      <trkpt lat="42.49514" lon="2.54388">
        <ele>1167.9</ele>
        <time>2020-09-01T10:37:56.854Z</time>
      </trkpt>
      <trkpt lat="42.49512" lon="2.54391">
        <ele>1167</ele>
        <time>2020-09-01T10:37:57.922Z</time>
      </trkpt>
      <trkpt lat="42.49511" lon="2.54395">
        <ele>1165.6</ele>
        <time>2020-09-01T10:37:59.038Z</time>
      </trkpt>
      <trkpt lat="42.49509" lon="2.54399">
        <ele>1164.4</ele>
        <time>2020-09-01T10:38:00.314Z</time>
      </trkpt>
      <trkpt lat="42.49508" lon="2.54401">
        <ele>1163.5</ele>
        <time>2020-09-01T10:38:00.953Z</time>
      </trkpt>
      <trkpt lat="42.49507" lon="2.54402">
        <ele>1162.6</ele>
        <time>2020-09-01T10:38:01.398Z</time>
      </trkpt>
      <trkpt lat="42.49504" lon="2.54404">
        <ele>1161.4</ele>
        <time>2020-09-01T10:38:02.595Z</time>
      </trkpt>
      <trkpt lat="42.49504" lon="2.54405">
        <ele>1160.7</ele>
        <time>2020-09-01T10:38:02.859Z</time>
      </trkpt>
      <trkpt lat="42.49504" lon="2.54409">
        <ele>1158.7</ele>
        <time>2020-09-01T10:38:03.915Z</time>
      </trkpt>
      <trkpt lat="42.49504" lon="2.54414">
        <ele>1156.4</ele>
        <time>2020-09-01T10:38:05.236Z</time>
      </trkpt>
      <trkpt lat="42.49503" lon="2.54418">
        <ele>1154.1</ele>
        <time>2020-09-01T10:38:06.351Z</time>
      </trkpt>
      <trkpt lat="42.49501" lon="2.54421">
        <ele>1154.4</ele>
        <time>2020-09-01T10:38:26.672Z</time>
      </trkpt>
      <trkpt lat="42.49501" lon="2.54422">
        <ele>1154.7</ele>
        <time>2020-09-01T10:38:34.081Z</time>
      </trkpt>
      <trkpt lat="42.495" lon="2.54427">
        <ele>1150.4</ele>
        <time>2020-09-01T10:38:35.449Z</time>
      </trkpt>
      <trkpt lat="42.49499" lon="2.54431">
        <ele>1149.4</ele>
        <time>2020-09-01T10:38:36.565Z</time>
      </trkpt>
      <trkpt lat="42.49498" lon="2.54433">
        <ele>1149</ele>
        <time>2020-09-01T10:38:37.203Z</time>
      </trkpt>
      <trkpt lat="42.49496" lon="2.54437">
        <ele>1148.3</ele>
        <time>2020-09-01T10:38:38.479Z</time>
      </trkpt>
      <trkpt lat="42.49494" lon="2.54441">
        <ele>1147.5</ele>
        <time>2020-09-01T10:38:39.756Z</time>
      </trkpt>
      <trkpt lat="42.49492" lon="2.54445">
        <ele>1146.7</ele>
        <time>2020-09-01T10:38:41.032Z</time>
      </trkpt>
      <trkpt lat="42.4949" lon="2.54447">
        <ele>1146.4</ele>
        <time>2020-09-01T10:38:41.922Z</time>
      </trkpt>
      <trkpt lat="42.49488" lon="2.5445">
        <ele>1145.9</ele>
        <time>2020-09-01T10:38:42.990Z</time>
      </trkpt>
      <trkpt lat="42.49487" lon="2.54452">
        <ele>1145.5</ele>
        <time>2020-09-01T10:38:43.628Z</time>
      </trkpt>
      <trkpt lat="42.49484" lon="2.54455">
        <ele>1145.1</ele>
        <time>2020-09-01T10:38:44.963Z</time>
      </trkpt>
      <trkpt lat="42.49481" lon="2.54458">
        <ele>1144.7</ele>
        <time>2020-09-01T10:38:46.299Z</time>
      </trkpt>
      <trkpt lat="42.49479" lon="2.54461">
        <ele>1144.3</ele>
        <time>2020-09-01T10:38:47.367Z</time>
      </trkpt>
      <trkpt lat="42.49476" lon="2.54462">
        <ele>1144</ele>
        <time>2020-09-01T10:38:48.473Z</time>
      </trkpt>
      <trkpt lat="42.49474" lon="2.54464">
        <ele>1143.8</ele>
        <time>2020-09-01T10:38:49.363Z</time>
      </trkpt>
      <trkpt lat="42.49473" lon="2.54466">
        <ele>1143.6</ele>
        <time>2020-09-01T10:38:50.001Z</time>
      </trkpt>
      <trkpt lat="42.49471" lon="2.54469">
        <ele>1143.1</ele>
        <time>2020-09-01T10:38:51.070Z</time>
      </trkpt>
      <trkpt lat="42.49469" lon="2.54472">
        <ele>1142.8</ele>
        <time>2020-09-01T10:38:52.138Z</time>
      </trkpt>
      <trkpt lat="42.49466" lon="2.54473">
        <ele>1142.5</ele>
        <time>2020-09-01T10:38:53.244Z</time>
      </trkpt>
      <trkpt lat="42.49465" lon="2.54478">
        <ele>1142</ele>
        <time>2020-09-01T10:38:54.612Z</time>
      </trkpt>
      <trkpt lat="42.49463" lon="2.54481">
        <ele>1141.6</ele>
        <time>2020-09-01T10:38:55.681Z</time>
      </trkpt>
      <trkpt lat="42.4946" lon="2.54483">
        <ele>1141.2</ele>
        <time>2020-09-01T10:38:56.878Z</time>
      </trkpt>
      <trkpt lat="42.49457" lon="2.54484">
        <ele>1141</ele>
        <time>2020-09-01T10:38:57.907Z</time>
      </trkpt>
      <trkpt lat="42.49455" lon="2.54486">
        <ele>1140.6</ele>
        <time>2020-09-01T10:38:58.797Z</time>
      </trkpt>
      <trkpt lat="42.49452" lon="2.54487">
        <ele>1140.2</ele>
        <time>2020-09-01T10:38:59.903Z</time>
      </trkpt>
      <trkpt lat="42.49449" lon="2.54487">
        <ele>1139.9</ele>
        <time>2020-09-01T10:39:00.978Z</time>
      </trkpt>
      <trkpt lat="42.49448" lon="2.54487">
        <ele>1139.8</ele>
        <time>2020-09-01T10:39:01.336Z</time>
      </trkpt>
      <trkpt lat="42.49444" lon="2.54489">
        <ele>1139</ele>
        <time>2020-09-01T10:39:02.863Z</time>
      </trkpt>
      <trkpt lat="42.49443" lon="2.54492">
        <ele>1138.3</ele>
        <time>2020-09-01T10:39:03.733Z</time>
      </trkpt>
      <trkpt lat="42.49441" lon="2.54494">
        <ele>1137.9</ele>
        <time>2020-09-01T10:39:04.623Z</time>
      </trkpt>
      <trkpt lat="42.49439" lon="2.54498">
        <ele>1137</ele>
        <time>2020-09-01T10:39:05.899Z</time>
      </trkpt>
      <trkpt lat="42.49437" lon="2.54502">
        <ele>1131.9</ele>
        <time>2020-09-01T10:39:07.175Z</time>
      </trkpt>
      <trkpt lat="42.49434" lon="2.54505">
        <ele>1131.4</ele>
        <time>2020-09-01T10:39:08.510Z</time>
      </trkpt>
      <trkpt lat="42.49432" lon="2.54508">
        <ele>1131.3</ele>
        <time>2020-09-01T10:39:09.817Z</time>
      </trkpt>
      <trkpt lat="42.49429" lon="2.54509">
        <ele>1131</ele>
        <time>2020-09-01T10:39:10.924Z</time>
      </trkpt>
      <trkpt lat="42.49427" lon="2.5451">
        <ele>1130.6</ele>
        <time>2020-09-01T10:39:11.687Z</time>
      </trkpt>
      <trkpt lat="42.49425" lon="2.54511">
        <ele>1130.4</ele>
        <time>2020-09-01T10:39:12.451Z</time>
      </trkpt>
      <trkpt lat="42.49422" lon="2.54512">
        <ele>1130.2</ele>
        <time>2020-09-01T10:39:13.479Z</time>
      </trkpt>
      <trkpt lat="42.4942" lon="2.54513">
        <ele>1130.4</ele>
        <time>2020-09-01T10:39:27.100Z</time>
      </trkpt>
      <trkpt lat="42.49419" lon="2.54515">
        <ele>1130.4</ele>
        <time>2020-09-01T10:39:31.742Z</time>
      </trkpt>
      <trkpt lat="42.49416" lon="2.54517">
        <ele>1122</ele>
        <time>2020-09-01T10:39:32.939Z</time>
      </trkpt>
      <trkpt lat="42.49414" lon="2.54517">
        <ele>1122</ele>
        <time>2020-09-01T10:39:38.149Z</time>
      </trkpt>
      <trkpt lat="42.49412" lon="2.54517">
        <ele>1121.8</ele>
        <time>2020-09-01T10:39:38.866Z</time>
      </trkpt>
      <trkpt lat="42.4941" lon="2.54518">
        <ele>1121.4</ele>
        <time>2020-09-01T10:39:39.629Z</time>
      </trkpt>
      <trkpt lat="42.49406" lon="2.5452">
        <ele>1120.8</ele>
        <time>2020-09-01T10:39:41.156Z</time>
      </trkpt>
      <trkpt lat="42.49404" lon="2.54522">
        <ele>1120.2</ele>
        <time>2020-09-01T10:39:42.046Z</time>
      </trkpt>
      <trkpt lat="42.49401" lon="2.54525">
        <ele>1119.6</ele>
        <time>2020-09-01T10:39:43.381Z</time>
      </trkpt>
      <trkpt lat="42.49398" lon="2.54528">
        <ele>1119</ele>
        <time>2020-09-01T10:39:44.716Z</time>
      </trkpt>
      <trkpt lat="42.49396" lon="2.54529">
        <ele>1118.8</ele>
        <time>2020-09-01T10:39:45.480Z</time>
      </trkpt>
      <trkpt lat="42.49394" lon="2.54531">
        <ele>1118.4</ele>
        <time>2020-09-01T10:39:46.370Z</time>
      </trkpt>
      <trkpt lat="42.49392" lon="2.54531">
        <ele>1118.2</ele>
        <time>2020-09-01T10:39:47.086Z</time>
      </trkpt>
      <trkpt lat="42.4939" lon="2.54532">
        <ele>1117.9</ele>
        <time>2020-09-01T10:39:47.850Z</time>
      </trkpt>
      <trkpt lat="42.49388" lon="2.54532">
        <ele>1117.7</ele>
        <time>2020-09-01T10:39:48.566Z</time>
      </trkpt>
      <trkpt lat="42.49385" lon="2.54533">
        <ele>1117.4</ele>
        <time>2020-09-01T10:39:49.673Z</time>
      </trkpt>
      <trkpt lat="42.49383" lon="2.54535">
        <ele>1117.1</ele>
        <time>2020-09-01T10:39:50.563Z</time>
      </trkpt>
      <trkpt lat="42.49381" lon="2.54536">
        <ele>1116.7</ele>
        <time>2020-09-01T10:39:51.326Z</time>
      </trkpt>
      <trkpt lat="42.49378" lon="2.54536">
        <ele>1116.5</ele>
        <time>2020-09-01T10:39:52.311Z</time>
      </trkpt>
      <trkpt lat="42.49376" lon="2.54537">
        <ele>1116.3</ele>
        <time>2020-09-01T10:39:53.074Z</time>
      </trkpt>
      <trkpt lat="42.49373" lon="2.54538">
        <ele>1115.9</ele>
        <time>2020-09-01T10:39:54.181Z</time>
      </trkpt>
      <trkpt lat="42.4937" lon="2.5454">
        <ele>1115.5</ele>
        <time>2020-09-01T10:39:55.378Z</time>
      </trkpt>
      <trkpt lat="42.49367" lon="2.54541">
        <ele>1115.1</ele>
        <time>2020-09-01T10:39:56.484Z</time>
      </trkpt>
      <trkpt lat="42.49364" lon="2.54542">
        <ele>1114.7</ele>
        <time>2020-09-01T10:39:57.591Z</time>
      </trkpt>
      <trkpt lat="42.49361" lon="2.54543">
        <ele>1114.3</ele>
        <time>2020-09-01T10:39:58.698Z</time>
      </trkpt>
      <trkpt lat="42.49358" lon="2.54543">
        <ele>1114</ele>
        <time>2020-09-01T10:39:59.772Z</time>
      </trkpt>
      <trkpt lat="42.49356" lon="2.54543">
        <ele>1113.8</ele>
        <time>2020-09-01T10:40:00.488Z</time>
      </trkpt>
      <trkpt lat="42.49353" lon="2.54544">
        <ele>1113.4</ele>
        <time>2020-09-01T10:40:01.595Z</time>
      </trkpt>
      <trkpt lat="42.4935" lon="2.54544">
        <ele>1113.2</ele>
        <time>2020-09-01T10:40:02.579Z</time>
      </trkpt>
      <trkpt lat="42.49348" lon="2.54544">
        <ele>1113</ele>
        <time>2020-09-01T10:40:03.296Z</time>
      </trkpt>
      <trkpt lat="42.49345" lon="2.54543">
        <ele>1113</ele>
        <time>2020-09-01T10:40:11.343Z</time>
      </trkpt>
      <trkpt lat="42.49342" lon="2.54543">
        <ele>1112.9</ele>
        <time>2020-09-01T10:40:12.661Z</time>
      </trkpt>
      <trkpt lat="42.49339" lon="2.54543">
        <ele>1112.8</ele>
        <time>2020-09-01T10:40:13.978Z</time>
      </trkpt>
      <trkpt lat="42.49337" lon="2.54543">
        <ele>1112.7</ele>
        <time>2020-09-01T10:40:14.729Z</time>
      </trkpt>
      <trkpt lat="42.49334" lon="2.54544">
        <ele>1112.4</ele>
        <time>2020-09-01T10:40:15.836Z</time>
      </trkpt>
      <trkpt lat="42.49331" lon="2.54544">
        <ele>1106.1</ele>
        <time>2020-09-01T10:40:16.910Z</time>
      </trkpt>
      <trkpt lat="42.49329" lon="2.54544">
        <ele>1106</ele>
        <time>2020-09-01T10:40:17.661Z</time>
      </trkpt>
      <trkpt lat="42.49326" lon="2.54544">
        <ele>1106</ele>
        <time>2020-09-01T10:40:25.476Z</time>
      </trkpt>
      <trkpt lat="42.49324" lon="2.54544">
        <ele>1105.9</ele>
        <time>2020-09-01T10:40:26.227Z</time>
      </trkpt>
      <trkpt lat="42.49322" lon="2.54545">
        <ele>1105.8</ele>
        <time>2020-09-01T10:40:27.050Z</time>
      </trkpt>
      <trkpt lat="42.4932" lon="2.54546">
        <ele>1105.5</ele>
        <time>2020-09-01T10:40:27.814Z</time>
      </trkpt>
      <trkpt lat="42.49317" lon="2.54547">
        <ele>1105.3</ele>
        <time>2020-09-01T10:40:28.842Z</time>
      </trkpt>
      <trkpt lat="42.49314" lon="2.54549">
        <ele>1105</ele>
        <time>2020-09-01T10:40:30.040Z</time>
      </trkpt>
      <trkpt lat="42.49311" lon="2.5455">
        <ele>1104.8</ele>
        <time>2020-09-01T10:40:31.068Z</time>
      </trkpt>
      <trkpt lat="42.49308" lon="2.54551">
        <ele>1104.6</ele>
        <time>2020-09-01T10:40:32.097Z</time>
      </trkpt>
      <trkpt lat="42.49305" lon="2.54552">
        <ele>1104.4</ele>
        <time>2020-09-01T10:40:33.126Z</time>
      </trkpt>
      <trkpt lat="42.49303" lon="2.54553">
        <ele>1104.1</ele>
        <time>2020-09-01T10:40:33.889Z</time>
      </trkpt>
      <trkpt lat="42.49299" lon="2.54555">
        <ele>1103.7</ele>
        <time>2020-09-01T10:40:35.416Z</time>
      </trkpt>
      <trkpt lat="42.49298" lon="2.54556">
        <ele>1103.6</ele>
        <time>2020-09-01T10:40:35.861Z</time>
      </trkpt>
      <trkpt lat="42.49296" lon="2.54557">
        <ele>1103.3</ele>
        <time>2020-09-01T10:40:36.625Z</time>
      </trkpt>
      <trkpt lat="42.49293" lon="2.54559">
        <ele>1102.8</ele>
        <time>2020-09-01T10:40:37.822Z</time>
      </trkpt>
      <trkpt lat="42.4929" lon="2.54561">
        <ele>1102.4</ele>
        <time>2020-09-01T10:40:39.020Z</time>
      </trkpt>
      <trkpt lat="42.49289" lon="2.54563">
        <ele>1102.1</ele>
        <time>2020-09-01T10:40:39.658Z</time>
      </trkpt>
      <trkpt lat="42.49286" lon="2.54564">
        <ele>1101.7</ele>
        <time>2020-09-01T10:40:40.764Z</time>
      </trkpt>
      <trkpt lat="42.49283" lon="2.54566">
        <ele>1101</ele>
        <time>2020-09-01T10:40:41.962Z</time>
      </trkpt>
      <trkpt lat="42.49282" lon="2.54567">
        <ele>1100.7</ele>
        <time>2020-09-01T10:40:42.407Z</time>
      </trkpt>
      <trkpt lat="42.49278" lon="2.54568">
        <ele>1100</ele>
        <time>2020-09-01T10:40:43.864Z</time>
      </trkpt>
      <trkpt lat="42.49275" lon="2.5457">
        <ele>1099.3</ele>
        <time>2020-09-01T10:40:45.061Z</time>
      </trkpt>
      <trkpt lat="42.49273" lon="2.54572">
        <ele>1098.5</ele>
        <time>2020-09-01T10:40:45.951Z</time>
      </trkpt>
      <trkpt lat="42.49271" lon="2.54574">
        <ele>1097.6</ele>
        <time>2020-09-01T10:40:46.841Z</time>
      </trkpt>
      <trkpt lat="42.49269" lon="2.54577">
        <ele>1096.7</ele>
        <time>2020-09-01T10:40:47.909Z</time>
      </trkpt>
      <trkpt lat="42.49268" lon="2.54579">
        <ele>1096.1</ele>
        <time>2020-09-01T10:40:48.547Z</time>
      </trkpt>
      <trkpt lat="42.49266" lon="2.5458">
        <ele>1095.1</ele>
        <time>2020-09-01T10:40:49.311Z</time>
      </trkpt>
      <trkpt lat="42.49263" lon="2.54581">
        <ele>1093.9</ele>
        <time>2020-09-01T10:40:50.417Z</time>
      </trkpt>
      <trkpt lat="42.4926" lon="2.54583">
        <ele>1092.6</ele>
        <time>2020-09-01T10:40:51.615Z</time>
      </trkpt>
      <trkpt lat="42.49259" lon="2.54584">
        <ele>1087.2</ele>
        <time>2020-09-01T10:40:52.060Z</time>
      </trkpt>
      <trkpt lat="42.49257" lon="2.54585">
        <ele>1087</ele>
        <time>2020-09-01T10:40:52.823Z</time>
      </trkpt>
      <trkpt lat="42.49253" lon="2.54586">
        <ele>1086.6</ele>
        <time>2020-09-01T10:40:54.280Z</time>
      </trkpt>
      <trkpt lat="42.4925" lon="2.54586">
        <ele>1086.4</ele>
        <time>2020-09-01T10:40:55.265Z</time>
      </trkpt>
      <trkpt lat="42.49247" lon="2.54587">
        <ele>1085.2</ele>
        <time>2020-09-01T10:40:56.371Z</time>
      </trkpt>
      <trkpt lat="42.49245" lon="2.54587">
        <ele>1085</ele>
        <time>2020-09-01T10:40:57.088Z</time>
      </trkpt>
      <trkpt lat="42.49242" lon="2.54589">
        <ele>1084.6</ele>
        <time>2020-09-01T10:40:58.285Z</time>
      </trkpt>
      <trkpt lat="42.4924" lon="2.54592">
        <ele>1084.2</ele>
        <time>2020-09-01T10:40:59.353Z</time>
      </trkpt>
      <trkpt lat="42.49238" lon="2.54595">
        <ele>1083.8</ele>
        <time>2020-09-01T10:41:00.421Z</time>
      </trkpt>
      <trkpt lat="42.49237" lon="2.54597">
        <ele>1083.6</ele>
        <time>2020-09-01T10:41:01.059Z</time>
      </trkpt>
      <trkpt lat="42.49235" lon="2.54598">
        <ele>1083.4</ele>
        <time>2020-09-01T10:41:01.823Z</time>
      </trkpt>
      <trkpt lat="42.4923" lon="2.54596">
        <ele>1083.5</ele>
        <time>2020-09-01T10:41:18.298Z</time>
      </trkpt>
      <trkpt lat="42.49229" lon="2.54595">
        <ele>1083.6</ele>
        <time>2020-09-01T10:41:25.370Z</time>
      </trkpt>
      <trkpt lat="42.49227" lon="2.54594">
        <ele>1083.7</ele>
        <time>2020-09-01T10:41:34.887Z</time>
      </trkpt>
      <trkpt lat="42.49225" lon="2.54593">
        <ele>1083.7</ele>
        <time>2020-09-01T10:41:40.440Z</time>
      </trkpt>
      <trkpt lat="42.49222" lon="2.54592">
        <ele>1083.9</ele>
        <time>2020-09-01T10:41:56.016Z</time>
      </trkpt>
      <trkpt lat="42.4922" lon="2.54592">
        <ele>1083.9</ele>
        <time>2020-09-01T10:42:01.226Z</time>
      </trkpt>
      <trkpt lat="42.49217" lon="2.54592">
        <ele>1084</ele>
        <time>2020-09-01T10:42:12.476Z</time>
      </trkpt>
      <trkpt lat="42.49216" lon="2.54594">
        <ele>1084</ele>
        <time>2020-09-01T10:42:17.118Z</time>
      </trkpt>
      <trkpt lat="42.49214" lon="2.54596">
        <ele>1083.9</ele>
        <time>2020-09-01T10:42:18.137Z</time>
      </trkpt>
      <trkpt lat="42.4921" lon="2.54596">
        <ele>1084.1</ele>
        <time>2020-09-01T10:42:36.357Z</time>
      </trkpt>
      <trkpt lat="42.49206" lon="2.54596">
        <ele>1084.5</ele>
        <time>2020-09-01T10:43:03.455Z</time>
      </trkpt>
      <trkpt lat="42.49204" lon="2.54595">
        <ele>1084.8</ele>
        <time>2020-09-01T10:43:24.873Z</time>
      </trkpt>
      <trkpt lat="42.49201" lon="2.54595">
        <ele>1085.3</ele>
        <time>2020-09-01T10:43:55.017Z</time>
      </trkpt>
      <trkpt lat="42.49199" lon="2.54595">
        <ele>1085.6</ele>
        <time>2020-09-01T10:44:15.113Z</time>
      </trkpt>
      <trkpt lat="42.49197" lon="2.54594">
        <ele>1086</ele>
        <time>2020-09-01T10:44:36.532Z</time>
      </trkpt>
      <trkpt lat="42.49195" lon="2.54593">
        <ele>1086.5</ele>
        <time>2020-09-01T10:44:57.950Z</time>
      </trkpt>
      <trkpt lat="42.49193" lon="2.54593">
        <ele>1087.1</ele>
        <time>2020-09-01T10:45:18.046Z</time>
      </trkpt>
      <trkpt lat="42.4919" lon="2.54593">
        <ele>1087.6</ele>
        <time>2020-09-01T10:45:48.190Z</time>
      </trkpt>
      <trkpt lat="42.49187" lon="2.54594">
        <ele>1088.1</ele>
        <time>2020-09-01T10:46:19.231Z</time>
      </trkpt>
      <trkpt lat="42.49185" lon="2.54594">
        <ele>1088.7</ele>
        <time>2020-09-01T10:46:39.327Z</time>
      </trkpt>
      <trkpt lat="42.49184" lon="2.54593">
        <ele>1089.3</ele>
        <time>2020-09-01T10:46:51.811Z</time>
      </trkpt>
      <trkpt lat="42.49177" lon="2.54592">
        <ele>1092.2</ele>
        <time>2020-09-01T10:48:02.536Z</time>
      </trkpt>
      <trkpt lat="42.49126" lon="2.54591">
        <ele>1088.8</ele>
        <time>2020-09-01T10:48:19.274Z</time>
      </trkpt>
      <trkpt lat="42.49086" lon="2.54591">
        <ele>1099.9</ele>
        <time>2020-09-01T10:55:01.194Z</time>
      </trkpt>
      <trkpt lat="42.49027" lon="2.54583">
        <ele>1125.2</ele>
        <time>2020-09-01T11:04:56.981Z</time>
      </trkpt>
      <trkpt lat="42.48976" lon="2.54565">
        <ele>1127.9</ele>
        <time>2020-09-01T11:08:58.985Z</time>
      </trkpt>
      <trkpt lat="42.4894" lon="2.54552">
        <ele>1128.5</ele>
        <time>2020-09-01T11:10:52.829Z</time>
      </trkpt>
      <trkpt lat="42.48912" lon="2.54536">
        <ele>1123.5</ele>
        <time>2020-09-01T11:11:03.712Z</time>
      </trkpt>
      <trkpt lat="42.48899" lon="2.54524">
        <ele>1126</ele>
        <time>2020-09-01T11:13:41.725Z</time>
        <extensions>
          <visugpx:TrkExtension xmlns:visugpx="https://www.visugpx.com/editgpx/">
            <visugpx:node>4</visugpx:node>
            </visugpx:TrkExtension>
        </extensions>
      </trkpt>
      <trkpt lat="42.48892" lon="2.54518">
        <ele>1126.2</ele>
        <time>2020-09-01T11:14:09.425Z</time>
      </trkpt>
      <trkpt lat="42.48874" lon="2.5449">
        <ele>1145.3</ele>
        <time>2020-09-01T11:18:44.659Z</time>
      </trkpt>
      <trkpt lat="42.48859" lon="2.54464">
        <ele>1147.6</ele>
        <time>2020-09-01T11:21:21.155Z</time>
      </trkpt>
      <trkpt lat="42.48841" lon="2.54421">
        <ele>1154.7</ele>
        <time>2020-09-01T11:27:27.521Z</time>
      </trkpt>
      <trkpt lat="42.48831" lon="2.54405">
        <ele>1162.1</ele>
        <time>2020-09-01T11:30:02.927Z</time>
      </trkpt>
      <trkpt lat="42.48814" lon="2.54395">
        <ele>1167</ele>
        <time>2020-09-01T11:33:09.121Z</time>
      </trkpt>
      <trkpt lat="42.488" lon="2.5439">
        <ele>1168.8</ele>
        <time>2020-09-01T11:35:17.677Z</time>
      </trkpt>
      <trkpt lat="42.4877" lon="2.54385">
        <ele>1169.3</ele>
        <time>2020-09-01T11:36:50.477Z</time>
      </trkpt>
      <trkpt lat="42.48732" lon="2.54383">
        <ele>1161.1</ele>
        <time>2020-09-01T11:37:04.099Z</time>
      </trkpt>
      <trkpt lat="42.48718" lon="2.54378">
        <ele>1160.2</ele>
        <time>2020-09-01T11:37:09.017Z</time>
      </trkpt>
      <trkpt lat="42.48707" lon="2.54365">
        <ele>1160</ele>
        <time>2020-09-01T11:37:17.016Z</time>
      </trkpt>
      <trkpt lat="42.48697" lon="2.54343">
        <ele>1159.7</ele>
        <time>2020-09-01T11:37:27.200Z</time>
      </trkpt>
      <trkpt lat="42.48688" lon="2.54317">
        <ele>1171.9</ele>
        <time>2020-09-01T11:41:00.021Z</time>
      </trkpt>
      <trkpt lat="42.48682" lon="2.5429">
        <ele>1177.3</ele>
        <time>2020-09-01T11:44:28.970Z</time>
      </trkpt>
      <trkpt lat="42.48675" lon="2.54248">
        <ele>1187.1</ele>
        <time>2020-09-01T11:49:48.028Z</time>
      </trkpt>
      <trkpt lat="42.4867" lon="2.54189">
        <ele>1207.2</ele>
        <time>2020-09-01T11:57:08.080Z</time>
      </trkpt>
      <trkpt lat="42.48668" lon="2.54171">
        <ele>1208.2</ele>
        <time>2020-09-01T11:58:20.915Z</time>
      </trkpt>
      <trkpt lat="42.48664" lon="2.5416">
        <ele>1211.8</ele>
        <time>2020-09-01T11:59:51.793Z</time>
      </trkpt>
      <trkpt lat="42.48651" lon="2.54148">
        <ele>1217.3</ele>
        <time>2020-09-01T12:02:29.808Z</time>
      </trkpt>
      <trkpt lat="42.48594" lon="2.54107">
        <ele>1226.3</ele>
        <time>2020-09-01T12:13:18.130Z</time>
      </trkpt>
      <trkpt lat="42.48564" lon="2.54092">
        <ele>1218.7</ele>
        <time>2020-09-01T12:13:29.583Z</time>
      </trkpt>
      <trkpt lat="42.48537" lon="2.54084">
        <ele>1210.6</ele>
        <time>2020-09-01T12:13:39.482Z</time>
      </trkpt>
      <trkpt lat="42.48525" lon="2.54074">
        <ele>1222.1</ele>
        <time>2020-09-01T12:16:01.007Z</time>
      </trkpt>
      <trkpt lat="42.48515" lon="2.54066">
        <ele>1220.7</ele>
        <time>2020-09-01T12:16:05.165Z</time>
      </trkpt>
      <trkpt lat="42.48511" lon="2.54056">
        <ele>1222.6</ele>
        <time>2020-09-01T12:17:29.463Z</time>
      </trkpt>
      <trkpt lat="42.48511" lon="2.54042">
        <ele>1225.3</ele>
        <time>2020-09-01T12:19:13.202Z</time>
      </trkpt>
      <trkpt lat="42.48512" lon="2.54027">
        <ele>1226.9</ele>
        <time>2020-09-01T12:21:04.804Z</time>
      </trkpt>
      <trkpt lat="42.48514" lon="2.54002">
        <ele>1226.7</ele>
        <time>2020-09-01T12:21:15.360Z</time>
      </trkpt>
      <trkpt lat="42.48519" lon="2.53964">
        <ele>1246</ele>
        <time>2020-09-01T12:26:01.384Z</time>
      </trkpt>
      <trkpt lat="42.48526" lon="2.53946">
        <ele>1250</ele>
        <time>2020-09-01T12:28:32.172Z</time>
      </trkpt>
      <trkpt lat="42.48531" lon="2.53936">
        <ele>1251.7</ele>
        <time>2020-09-01T12:30:01.697Z</time>
      </trkpt>
      <trkpt lat="42.48531" lon="2.53926">
        <ele>1252.4</ele>
        <time>2020-09-01T12:30:49.299Z</time>
      </trkpt>
      <trkpt lat="42.48522" lon="2.53914">
        <ele>1267</ele>
        <time>2020-09-01T12:32:56.124Z</time>
      </trkpt>
      <trkpt lat="42.48503" lon="2.53908">
        <ele>1260.2</ele>
        <time>2020-09-01T12:33:03.111Z</time>
      </trkpt>
      <trkpt lat="42.48478" lon="2.53906">
        <ele>1263.8</ele>
        <time>2020-09-01T12:37:14.748Z</time>
      </trkpt>
      <trkpt lat="42.48456" lon="2.53907">
        <ele>1265.8</ele>
        <time>2020-09-01T12:39:31.670Z</time>
      </trkpt>
      <trkpt lat="42.48424" lon="2.53912">
        <ele>1258.9</ele>
        <time>2020-09-01T12:39:43.208Z</time>
      </trkpt>
      <trkpt lat="42.48386" lon="2.53921">
        <ele>1249.3</ele>
        <time>2020-09-01T12:39:57.025Z</time>
      </trkpt>
      <trkpt lat="42.4836" lon="2.53928">
        <ele>1252.7</ele>
        <time>2020-09-01T12:44:04.859Z</time>
      </trkpt>
      <trkpt lat="42.48321" lon="2.53941">
        <ele>1260.8</ele>
        <time>2020-09-01T12:50:48.398Z</time>
      </trkpt>
      <trkpt lat="42.48273" lon="2.53957">
        <ele>1258.7</ele>
        <time>2020-09-01T12:51:08.257Z</time>
      </trkpt>
      <trkpt lat="42.48257" lon="2.53961">
        <ele>1258.4</ele>
        <time>2020-09-01T12:51:16.671Z</time>
      </trkpt>
      <trkpt lat="42.48239" lon="2.53963">
        <ele>1263.2</ele>
        <time>2020-09-01T12:54:18.141Z</time>
      </trkpt>
      <trkpt lat="42.48214" lon="2.53961">
        <ele>1264.3</ele>
        <time>2020-09-01T12:56:07.297Z</time>
      </trkpt>
      <trkpt lat="42.48187" lon="2.53967">
        <ele>1264.9</ele>
        <time>2020-09-01T12:57:36.487Z</time>
        <extensions>
          <visugpx:TrkExtension xmlns:visugpx="https://www.visugpx.com/editgpx/">
            <visugpx:node>5</visugpx:node>
            </visugpx:TrkExtension>
        </extensions>
      </trkpt>
      <trkpt lat="42.48179" lon="2.53969">
        <ele>1265.1</ele>
        <time>2020-09-01T12:58:03.838Z</time>
      </trkpt>
      <trkpt lat="42.48173" lon="2.53939">
        <ele>1266.4</ele>
        <time>2020-09-01T12:59:53.059Z</time>
      </trkpt>
      <trkpt lat="42.48157" lon="2.53849">
        <ele>1272.7</ele>
        <time>2020-09-01T13:07:03.197Z</time>
      </trkpt>
      <trkpt lat="42.4815" lon="2.53819">
        <ele>1280.1</ele>
        <time>2020-09-01T13:10:56.369Z</time>
      </trkpt>
      <trkpt lat="42.48139" lon="2.53778">
        <ele>1282.1</ele>
        <time>2020-09-01T13:13:35.618Z</time>
      </trkpt>
      <trkpt lat="42.48128" lon="2.53741">
        <ele>1294.7</ele>
        <time>2020-09-01T13:18:31.242Z</time>
      </trkpt>
      <trkpt lat="42.48109" lon="2.53714">
        <ele>1293.1</ele>
        <time>2020-09-01T13:18:40.897Z</time>
      </trkpt>
      <trkpt lat="42.48094" lon="2.53682">
        <ele>1293.5</ele>
        <time>2020-09-01T13:20:04.727Z</time>
      </trkpt>
      <trkpt lat="42.4808" lon="2.53662">
        <ele>1289.1</ele>
        <time>2020-09-01T13:20:12.011Z</time>
      </trkpt>
      <trkpt lat="42.48074" lon="2.5365">
        <ele>1288.2</ele>
        <time>2020-09-01T13:20:15.841Z</time>
      </trkpt>
      <trkpt lat="42.48059" lon="2.53606">
        <ele>1292.5</ele>
        <time>2020-09-01T13:25:17.674Z</time>
        <extensions>
          <visugpx:TrkExtension xmlns:visugpx="https://www.visugpx.com/editgpx/">
            <visugpx:node>6</visugpx:node>
            </visugpx:TrkExtension>
        </extensions>
      </trkpt>
      <trkpt lat="42.48052" lon="2.53587">
        <ele>1293.1</ele>
        <time>2020-09-01T13:26:20.534Z</time>
      </trkpt>
      <trkpt lat="42.48039" lon="2.53558">
        <ele>1300.7</ele>
        <time>2020-09-01T13:30:32.022Z</time>
      </trkpt>
      <trkpt lat="42.48029" lon="2.53539">
        <ele>1299.7</ele>
        <time>2020-09-01T13:30:38.064Z</time>
      </trkpt>
      <trkpt lat="42.48024" lon="2.53522">
        <ele>1298.5</ele>
        <time>2020-09-01T13:30:42.899Z</time>
      </trkpt>
      <trkpt lat="42.48021" lon="2.53503">
        <ele>1296.4</ele>
        <time>2020-09-01T13:30:48.032Z</time>
      </trkpt>
      <trkpt lat="42.48021" lon="2.53483">
        <ele>1299</ele>
        <time>2020-09-01T13:33:16.242Z</time>
      </trkpt>
      <trkpt lat="42.48028" lon="2.53459">
        <ele>1301.5</ele>
        <time>2020-09-01T13:36:21.886Z</time>
      </trkpt>
      <trkpt lat="42.48044" lon="2.53425">
        <ele>1305.7</ele>
        <time>2020-09-01T13:41:20.765Z</time>
      </trkpt>
      <trkpt lat="42.48064" lon="2.5338">
        <ele>1302</ele>
        <time>2020-09-01T13:41:34.644Z</time>
      </trkpt>
      <trkpt lat="42.48069" lon="2.53367">
        <ele>1302.1</ele>
        <time>2020-09-01T13:42:05.419Z</time>
      </trkpt>
      <trkpt lat="42.48074" lon="2.53357">
        <ele>1303.3</ele>
        <time>2020-09-01T13:43:34.948Z</time>
      </trkpt>
      <trkpt lat="42.48083" lon="2.53326">
        <ele>1319.9</ele>
        <time>2020-09-01T13:47:41.831Z</time>
      </trkpt>
      <trkpt lat="42.48093" lon="2.533">
        <ele>1326.1</ele>
        <time>2020-09-01T13:51:19.129Z</time>
      </trkpt>
      <trkpt lat="42.48097" lon="2.53294">
        <ele>1326.4</ele>
        <time>2020-09-01T13:51:46.352Z</time>
      </trkpt>
      <trkpt lat="42.48101" lon="2.53287">
        <ele>1326.1</ele>
        <time>2020-09-01T13:51:48.894Z</time>
      </trkpt>
      <trkpt lat="42.48117" lon="2.53266">
        <ele>1328.1</ele>
        <time>2020-09-01T13:54:06.126Z</time>
      </trkpt>
      <trkpt lat="42.48123" lon="2.53257">
        <ele>1330.2</ele>
        <time>2020-09-01T13:55:36.030Z</time>
      </trkpt>
      <trkpt lat="42.48138" lon="2.53228">
        <ele>1326.1</ele>
        <time>2020-09-01T13:55:45.387Z</time>
      </trkpt>
      <trkpt lat="42.48152" lon="2.53187">
        <ele>1328</ele>
        <time>2020-09-01T13:58:24.485Z</time>
      </trkpt>
      <trkpt lat="42.48156" lon="2.53173">
        <ele>1332.2</ele>
        <time>2020-09-01T14:00:15.743Z</time>
      </trkpt>
      <trkpt lat="42.48161" lon="2.53136">
        <ele>1323.9</ele>
        <time>2020-09-01T14:00:25.680Z</time>
      </trkpt>
      <trkpt lat="42.48164" lon="2.53111">
        <ele>1325.2</ele>
        <time>2020-09-01T14:02:03.300Z</time>
      </trkpt>
      <trkpt lat="42.48163" lon="2.53094">
        <ele>1332.5</ele>
        <time>2020-09-01T14:04:09.676Z</time>
      </trkpt>
      <trkpt lat="42.4816" lon="2.5306">
        <ele>1324.8</ele>
        <time>2020-09-01T14:04:18.721Z</time>
      </trkpt>
      <trkpt lat="42.48159" lon="2.53024">
        <ele>1323.2</ele>
        <time>2020-09-01T14:04:27.887Z</time>
      </trkpt>
      <trkpt lat="42.48161" lon="2.52995">
        <ele>1330.2</ele>
        <time>2020-09-01T14:08:03.724Z</time>
      </trkpt>
      <trkpt lat="42.48167" lon="2.52974">
        <ele>1348.5</ele>
        <time>2020-09-01T14:10:50.611Z</time>
      </trkpt>
      <trkpt lat="42.48175" lon="2.52955">
        <ele>1348.7</ele>
        <time>2020-09-01T14:11:38.028Z</time>
      </trkpt>
      <trkpt lat="42.48202" lon="2.5291">
        <ele>1343.9</ele>
        <time>2020-09-01T14:11:53.352Z</time>
      </trkpt>
      <trkpt lat="42.48215" lon="2.52887">
        <ele>1347</ele>
        <time>2020-09-01T14:15:28.087Z</time>
      </trkpt>
      <trkpt lat="42.48224" lon="2.52866">
        <ele>1347.6</ele>
        <time>2020-09-01T14:16:35.403Z</time>
      </trkpt>
      <trkpt lat="42.48232" lon="2.5284">
        <ele>1350.2</ele>
        <time>2020-09-01T14:19:41.822Z</time>
      </trkpt>
      <trkpt lat="42.48236" lon="2.52831">
        <ele>1350.1</ele>
        <time>2020-09-01T14:19:46.114Z</time>
      </trkpt>
      <trkpt lat="42.48244" lon="2.52823">
        <ele>1351.7</ele>
        <time>2020-09-01T14:21:25.993Z</time>
      </trkpt>
      <trkpt lat="42.48257" lon="2.52816">
        <ele>1370.7</ele>
        <time>2020-09-01T14:23:46.540Z</time>
      </trkpt>
      <trkpt lat="42.48263" lon="2.5281">
        <ele>1373.7</ele>
        <time>2020-09-01T14:25:01.449Z</time>
      </trkpt>
      <trkpt lat="42.48268" lon="2.52803">
        <ele>1376.1</ele>
        <time>2020-09-01T14:26:13.662Z</time>
      </trkpt>
      <trkpt lat="42.4827" lon="2.52797">
        <ele>1377.2</ele>
        <time>2020-09-01T14:27:02.454Z</time>
      </trkpt>
      <trkpt lat="42.4827" lon="2.52784">
        <ele>1377.3</ele>
        <time>2020-09-01T14:27:30.067Z</time>
      </trkpt>
      <trkpt lat="42.48266" lon="2.52775">
        <ele>1375.7</ele>
        <time>2020-09-01T14:27:32.843Z</time>
      </trkpt>
      <trkpt lat="42.48239" lon="2.52743">
        <ele>1354.6</ele>
        <time>2020-09-01T14:27:45.688Z</time>
      </trkpt>
      <trkpt lat="42.48231" lon="2.52728">
        <ele>1349.8</ele>
        <time>2020-09-01T14:27:50.577Z</time>
      </trkpt>
      <trkpt lat="42.48225" lon="2.52707">
        <ele>1347.9</ele>
        <time>2020-09-01T14:27:56.526Z</time>
      </trkpt>
      <trkpt lat="42.48223" lon="2.52694">
        <ele>1348.3</ele>
        <time>2020-09-01T14:28:37.289Z</time>
      </trkpt>
      <trkpt lat="42.48223" lon="2.52679">
        <ele>1349.9</ele>
        <time>2020-09-01T14:30:28.443Z</time>
      </trkpt>
      <trkpt lat="42.48226" lon="2.52668">
        <ele>1351.6</ele>
        <time>2020-09-01T14:31:55.351Z</time>
      </trkpt>
      <trkpt lat="42.4823" lon="2.52659">
        <ele>1346.9</ele>
        <time>2020-09-01T14:31:58.127Z</time>
      </trkpt>
      <trkpt lat="42.48247" lon="2.52634">
        <ele>1343.6</ele>
        <time>2020-09-01T14:32:07.109Z</time>
      </trkpt>
      <trkpt lat="42.48255" lon="2.52617">
        <ele>1371.1</ele>
        <time>2020-09-01T14:34:36.545Z</time>
      </trkpt>
      <trkpt lat="42.48261" lon="2.52604">
        <ele>1367.8</ele>
        <time>2020-09-01T14:34:40.596Z</time>
      </trkpt>
      <trkpt lat="42.48268" lon="2.52578">
        <ele>1353.3</ele>
        <time>2020-09-01T14:34:47.907Z</time>
      </trkpt>
      <trkpt lat="42.48274" lon="2.52564">
        <ele>1354.7</ele>
        <time>2020-09-01T14:36:25.136Z</time>
      </trkpt>
      <trkpt lat="42.48281" lon="2.52556">
        <ele>1355.9</ele>
        <time>2020-09-01T14:37:54.096Z</time>
      </trkpt>
      <trkpt lat="42.48314" lon="2.52532">
        <ele>1361.5</ele>
        <time>2020-09-01T14:44:10.363Z</time>
      </trkpt>
      <trkpt lat="42.48322" lon="2.52522">
        <ele>1362.5</ele>
        <time>2020-09-01T14:45:18.684Z</time>
      </trkpt>
      <trkpt lat="42.48343" lon="2.52495">
        <ele>1372.8</ele>
        <time>2020-09-01T14:50:09.465Z</time>
      </trkpt>
      <trkpt lat="42.48362" lon="2.52467">
        <ele>1377.8</ele>
        <time>2020-09-01T14:54:51.417Z</time>
      </trkpt>
      <trkpt lat="42.48376" lon="2.52447">
        <ele>1379.1</ele>
        <time>2020-09-01T14:56:33.348Z</time>
      </trkpt>
      <trkpt lat="42.48381" lon="2.52438">
        <ele>1379.4</ele>
        <time>2020-09-01T14:57:05.691Z</time>
      </trkpt>
      <trkpt lat="42.48392" lon="2.52402">
        <ele>1369.3</ele>
        <time>2020-09-01T14:57:15.984Z</time>
      </trkpt>
      <trkpt lat="42.48393" lon="2.52374">
        <ele>1365.5</ele>
        <time>2020-09-01T14:57:23.389Z</time>
      </trkpt>
      <trkpt lat="42.48391" lon="2.52342">
        <ele>1365.6</ele>
        <time>2020-09-01T14:58:27.568Z</time>
      </trkpt>
      <trkpt lat="42.48398" lon="2.52313">
        <ele>1362.1</ele>
        <time>2020-09-01T14:58:35.628Z</time>
      </trkpt>
      <trkpt lat="42.48405" lon="2.52275">
        <ele>1362.4</ele>
        <time>2020-09-01T14:59:58.785Z</time>
      </trkpt>
      <trkpt lat="42.48408" lon="2.52265">
        <ele>1366.4</ele>
        <time>2020-09-01T15:01:18.782Z</time>
      </trkpt>
      <trkpt lat="42.48414" lon="2.52252">
        <ele>1376.7</ele>
        <time>2020-09-01T15:03:12.423Z</time>
      </trkpt>
      <trkpt lat="42.48416" lon="2.52249">
        <ele>1379.5</ele>
        <time>2020-09-01T15:03:42.390Z</time>
      </trkpt>
      <trkpt lat="42.48424" lon="2.52245">
        <ele>1391.3</ele>
        <time>2020-09-01T15:05:08.064Z</time>
      </trkpt>
      <trkpt lat="42.48428" lon="2.5224">
        <ele>1396</ele>
        <time>2020-09-01T15:06:02.728Z</time>
      </trkpt>
      <trkpt lat="42.48435" lon="2.52221">
        <ele>1405</ele>
        <time>2020-09-01T15:08:40.110Z</time>
      </trkpt>
      <trkpt lat="42.48441" lon="2.52201">
        <ele>1407.7</ele>
        <time>2020-09-01T15:11:20.103Z</time>
      </trkpt>
      <trkpt lat="42.48441" lon="2.52194">
        <ele>1407.2</ele>
        <time>2020-09-01T15:11:21.952Z</time>
      </trkpt>
      <trkpt lat="42.48439" lon="2.5219">
        <ele>1406</ele>
        <time>2020-09-01T15:11:23.229Z</time>
      </trkpt>
      <trkpt lat="42.48417" lon="2.52143">
        <ele>1403.9</ele>
        <time>2020-09-01T15:11:38.495Z</time>
      </trkpt>
      <trkpt lat="42.48413" lon="2.5213">
        <ele>1369.7</ele>
        <time>2020-09-01T15:11:42.216Z</time>
      </trkpt>
      <trkpt lat="42.48399" lon="2.52069">
        <ele>1383.9</ele>
        <time>2020-09-01T15:19:35.612Z</time>
      </trkpt>
      <trkpt lat="42.48386" lon="2.51986">
        <ele>1398.6</ele>
        <time>2020-09-01T15:30:04.366Z</time>
      </trkpt>
      <trkpt lat="42.48379" lon="2.51973">
        <ele>1397.2</ele>
        <time>2020-09-01T15:30:08.618Z</time>
      </trkpt>
      <trkpt lat="42.48363" lon="2.51955">
        <ele>1394.9</ele>
        <time>2020-09-01T15:30:16.064Z</time>
      </trkpt>
      <trkpt lat="42.48348" lon="2.51933">
        <ele>1392.5</ele>
        <time>2020-09-01T15:30:23.978Z</time>
      </trkpt>
      <trkpt lat="42.48333" lon="2.51905">
        <ele>1379.5</ele>
        <time>2020-09-01T15:30:33.120Z</time>
      </trkpt>
      <trkpt lat="42.48325" lon="2.51881">
        <ele>1374.9</ele>
        <time>2020-09-01T15:30:40.077Z</time>
      </trkpt>
      <trkpt lat="42.4832" lon="2.51848">
        <ele>1380.9</ele>
        <time>2020-09-01T15:34:49.720Z</time>
      </trkpt>
      <trkpt lat="42.4832" lon="2.51827">
        <ele>1383.3</ele>
        <time>2020-09-01T15:37:25.333Z</time>
      </trkpt>
      <trkpt lat="42.48322" lon="2.51789">
        <ele>1373.4</ele>
        <time>2020-09-01T15:37:35.396Z</time>
      </trkpt>
      <trkpt lat="42.48324" lon="2.51779">
        <ele>1373.5</ele>
        <time>2020-09-01T15:37:58.013Z</time>
      </trkpt>
      <trkpt lat="42.48329" lon="2.51764">
        <ele>1376.5</ele>
        <time>2020-09-01T15:39:59.992Z</time>
      </trkpt>
      <trkpt lat="42.48333" lon="2.51752">
        <ele>1382.3</ele>
        <time>2020-09-01T15:41:37.575Z</time>
      </trkpt>
      <trkpt lat="42.48343" lon="2.51734">
        <ele>1390.6</ele>
        <time>2020-09-01T15:44:24.569Z</time>
      </trkpt>
      <trkpt lat="42.48352" lon="2.51722">
        <ele>1392.7</ele>
        <time>2020-09-01T15:46:31.395Z</time>
      </trkpt>
      <trkpt lat="42.4836" lon="2.51706">
        <ele>1392.8</ele>
        <time>2020-09-01T15:47:11.082Z</time>
      </trkpt>
      <trkpt lat="42.48383" lon="2.51669">
        <ele>1396.8</ele>
        <time>2020-09-01T15:51:45.112Z</time>
      </trkpt>
      <trkpt lat="42.48388" lon="2.51661">
        <ele>1382.5</ele>
        <time>2020-09-01T15:51:47.882Z</time>
      </trkpt>
      <trkpt lat="42.48397" lon="2.51644">
        <ele>1382.8</ele>
        <time>2020-09-01T15:52:36.795Z</time>
      </trkpt>
      <trkpt lat="42.48407" lon="2.51632">
        <ele>1381.1</ele>
        <time>2020-09-01T15:52:41.578Z</time>
      </trkpt>
      <trkpt lat="42.48444" lon="2.5158">
        <ele>1388</ele>
        <time>2020-09-01T16:01:08.108Z</time>
      </trkpt>
      <trkpt lat="42.48461" lon="2.51556">
        <ele>1390.3</ele>
        <time>2020-09-01T16:03:44.772Z</time>
      </trkpt>
      <trkpt lat="42.4847" lon="2.51549">
        <ele>1391.4</ele>
        <time>2020-09-01T16:04:59.439Z</time>
      </trkpt>
      <trkpt lat="42.48477" lon="2.51545">
        <ele>1392.4</ele>
        <time>2020-09-01T16:06:13.843Z</time>
      </trkpt>
      <trkpt lat="42.48495" lon="2.51532">
        <ele>1392.2</ele>
        <time>2020-09-01T16:06:25.603Z</time>
      </trkpt>
      <trkpt lat="42.48507" lon="2.51518">
        <ele>1413.8</ele>
        <time>2020-09-01T16:09:04.664Z</time>
      </trkpt>
      <trkpt lat="42.48516" lon="2.51507">
        <ele>1412.9</ele>
        <time>2020-09-01T16:09:09.003Z</time>
      </trkpt>
      <trkpt lat="42.48528" lon="2.51493">
        <ele>1400.3</ele>
        <time>2020-09-01T16:09:14.674Z</time>
      </trkpt>
      <trkpt lat="42.48537" lon="2.51481">
        <ele>1402.2</ele>
        <time>2020-09-01T16:11:21.498Z</time>
      </trkpt>
      <trkpt lat="42.48545" lon="2.51469">
        <ele>1402.9</ele>
        <time>2020-09-01T16:12:19.113Z</time>
      </trkpt>
      <trkpt lat="42.48551" lon="2.51461">
        <ele>1403.1</ele>
        <time>2020-09-01T16:12:47.134Z</time>
      </trkpt>
      <trkpt lat="42.48557" lon="2.51455">
        <ele>1404</ele>
        <time>2020-09-01T16:13:50.417Z</time>
      </trkpt>
      <trkpt lat="42.48564" lon="2.51449">
        <ele>1404.5</ele>
        <time>2020-09-01T16:14:30.890Z</time>
      </trkpt>
      <trkpt lat="42.48571" lon="2.51437">
        <ele>1405.4</ele>
        <time>2020-09-01T16:15:34.737Z</time>
      </trkpt>
      <trkpt lat="42.48576" lon="2.51425">
        <ele>1407.5</ele>
        <time>2020-09-01T16:17:16.867Z</time>
      </trkpt>
      <trkpt lat="42.48579" lon="2.51413">
        <ele>1404.7</ele>
        <time>2020-09-01T16:17:20.214Z</time>
      </trkpt>
      <trkpt lat="42.48582" lon="2.51399">
        <ele>1394.2</ele>
        <time>2020-09-01T16:17:24.065Z</time>
      </trkpt>
      <trkpt lat="42.48586" lon="2.51382">
        <ele>1420.1</ele>
        <time>2020-09-01T16:19:36.289Z</time>
      </trkpt>
      <trkpt lat="42.4859" lon="2.51356">
        <ele>1414.1</ele>
        <time>2020-09-01T16:19:43.304Z</time>
      </trkpt>
      <trkpt lat="42.48594" lon="2.51335">
        <ele>1405.8</ele>
        <time>2020-09-01T16:19:49.033Z</time>
      </trkpt>
      <trkpt lat="42.48597" lon="2.51322">
        <ele>1400.5</ele>
        <time>2020-09-01T16:19:52.631Z</time>
      </trkpt>
      <trkpt lat="42.48599" lon="2.51313">
        <ele>1401.8</ele>
        <time>2020-09-01T16:21:02.282Z</time>
      </trkpt>
      <trkpt lat="42.48604" lon="2.51303">
        <ele>1402.6</ele>
        <time>2020-09-01T16:21:57.178Z</time>
      </trkpt>
      <trkpt lat="42.4861" lon="2.51295">
        <ele>1403.3</ele>
        <time>2020-09-01T16:22:46.158Z</time>
      </trkpt>
      <trkpt lat="42.48625" lon="2.51285">
        <ele>1405.8</ele>
        <time>2020-09-01T16:25:34.107Z</time>
      </trkpt>
      <trkpt lat="42.48643" lon="2.51279">
        <ele>1409.2</ele>
        <time>2020-09-01T16:28:40.355Z</time>
      </trkpt>
      <trkpt lat="42.48658" lon="2.51276">
        <ele>1411.7</ele>
        <time>2020-09-01T16:31:12.705Z</time>
      </trkpt>
      <trkpt lat="42.48673" lon="2.51276">
        <ele>1433.6</ele>
        <time>2020-09-01T16:33:43.425Z</time>
      </trkpt>
      <trkpt lat="42.48679" lon="2.51276">
        <ele>1434.4</ele>
        <time>2020-09-01T16:34:43.626Z</time>
      </trkpt>
      <trkpt lat="42.48682" lon="2.51274">
        <ele>1434.7</ele>
        <time>2020-09-01T16:35:04.214Z</time>
      </trkpt>
      <trkpt lat="42.48686" lon="2.51269">
        <ele>1434.2</ele>
        <time>2020-09-01T16:35:06.163Z</time>
      </trkpt>
      <trkpt lat="42.48687" lon="2.51262">
        <ele>1432.9</ele>
        <time>2020-09-01T16:35:08.046Z</time>
      </trkpt>
      <trkpt lat="42.48687" lon="2.51254">
        <ele>1431.6</ele>
        <time>2020-09-01T16:35:10.159Z</time>
      </trkpt>
      <trkpt lat="42.48685" lon="2.51248">
        <ele>1430.1</ele>
        <time>2020-09-01T16:35:11.898Z</time>
      </trkpt>
      <trkpt lat="42.48679" lon="2.5124">
        <ele>1428.9</ele>
        <time>2020-09-01T16:35:14.912Z</time>
      </trkpt>
      <trkpt lat="42.48673" lon="2.5123">
        <ele>1430.8</ele>
        <time>2020-09-01T16:36:50.437Z</time>
      </trkpt>
      <trkpt lat="42.48666" lon="2.5122">
        <ele>1411.4</ele>
        <time>2020-09-01T16:36:54.079Z</time>
      </trkpt>
      <trkpt lat="42.48664" lon="2.51211">
        <ele>1411.9</ele>
        <time>2020-09-01T16:37:31.009Z</time>
      </trkpt>
      <trkpt lat="42.48662" lon="2.51199">
        <ele>1414.1</ele>
        <time>2020-09-01T16:39:02.168Z</time>
      </trkpt>
      <trkpt lat="42.48662" lon="2.51188">
        <ele>1417.8</ele>
        <time>2020-09-01T16:40:23.676Z</time>
      </trkpt>
      <trkpt lat="42.48662" lon="2.5118">
        <ele>1421.8</ele>
        <time>2020-09-01T16:41:22.954Z</time>
      </trkpt>
      <trkpt lat="42.48659" lon="2.51172">
        <ele>1424.9</ele>
        <time>2020-09-01T16:42:29.456Z</time>
      </trkpt>
      <trkpt lat="42.48655" lon="2.51166">
        <ele>1430.2</ele>
        <time>2020-09-01T16:43:29.389Z</time>
      </trkpt>
      <trkpt lat="42.48651" lon="2.51156">
        <ele>1428.9</ele>
        <time>2020-09-01T16:43:32.394Z</time>
      </trkpt>
      <trkpt lat="42.48649" lon="2.51147">
        <ele>1428.5</ele>
        <time>2020-09-01T16:43:34.834Z</time>
      </trkpt>
      <trkpt lat="42.48646" lon="2.51138">
        <ele>1428.4</ele>
        <time>2020-09-01T16:43:38.825Z</time>
      </trkpt>
      <trkpt lat="42.48641" lon="2.51132">
        <ele>1428.2</ele>
        <time>2020-09-01T16:43:41.861Z</time>
      </trkpt>
      <trkpt lat="42.48634" lon="2.51125">
        <ele>1427.6</ele>
        <time>2020-09-01T16:43:44.976Z</time>
      </trkpt>
      <trkpt lat="42.48625" lon="2.5112">
        <ele>1426.2</ele>
        <time>2020-09-01T16:43:48.460Z</time>
      </trkpt>
      <trkpt lat="42.48616" lon="2.51115">
        <ele>1424.8</ele>
        <time>2020-09-01T16:43:51.943Z</time>
      </trkpt>
      <trkpt lat="42.48607" lon="2.5111">
        <ele>1423.7</ele>
        <time>2020-09-01T16:43:55.427Z</time>
      </trkpt>
      <trkpt lat="42.48598" lon="2.51104">
        <ele>1422.7</ele>
        <time>2020-09-01T16:43:59.019Z</time>
      </trkpt>
      <trkpt lat="42.48592" lon="2.511">
        <ele>1422.2</ele>
        <time>2020-09-01T16:44:01.414Z</time>
      </trkpt>
      <trkpt lat="42.48588" lon="2.51092">
        <ele>1421.5</ele>
        <time>2020-09-01T16:44:03.967Z</time>
      </trkpt>
      <trkpt lat="42.48584" lon="2.5108">
        <ele>1423.4</ele>
        <time>2020-09-01T16:45:41.547Z</time>
      </trkpt>
      <trkpt lat="42.48583" lon="2.51069">
        <ele>1418.1</ele>
        <time>2020-09-01T16:45:44.474Z</time>
      </trkpt>
      <trkpt lat="42.48583" lon="2.51059">
        <ele>1418.2</ele>
        <time>2020-09-01T16:46:06.410Z</time>
      </trkpt>
      <trkpt lat="42.48586" lon="2.51047">
        <ele>1438.5</ele>
        <time>2020-09-01T16:47:40.298Z</time>
      </trkpt>
      <trkpt lat="42.4859" lon="2.51038">
        <ele>1440.4</ele>
        <time>2020-09-01T16:48:58.162Z</time>
      </trkpt>
      <trkpt lat="42.48598" lon="2.51018">
        <ele>1442.7</ele>
        <time>2020-09-01T16:51:46.756Z</time>
      </trkpt>
      <trkpt lat="42.48603" lon="2.51005">
        <ele>1443.4</ele>
        <time>2020-09-01T16:52:41.272Z</time>
      </trkpt>
      <trkpt lat="42.48608" lon="2.50994">
        <ele>1456</ele>
        <time>2020-09-01T16:54:17.019Z</time>
      </trkpt>
      <trkpt lat="42.4861" lon="2.50986">
        <ele>1458.2</ele>
        <time>2020-09-01T16:55:19.611Z</time>
      </trkpt>
      <trkpt lat="42.4861" lon="2.50978">
        <ele>1459.7</ele>
        <time>2020-09-01T16:56:18.890Z</time>
      </trkpt>
      <trkpt lat="42.48607" lon="2.50972">
        <ele>1460.3</ele>
        <time>2020-09-01T16:57:00.008Z</time>
      </trkpt>
      <trkpt lat="42.48598" lon="2.50969">
        <ele>1459.8</ele>
        <time>2020-09-01T16:57:03.373Z</time>
      </trkpt>
      <trkpt lat="42.48593" lon="2.50969">
        <ele>1459.1</ele>
        <time>2020-09-01T16:57:05.164Z</time>
      </trkpt>
      <trkpt lat="42.48587" lon="2.5097">
        <ele>1458.2</ele>
        <time>2020-09-01T16:57:07.329Z</time>
      </trkpt>
      <trkpt lat="42.4858" lon="2.50973">
        <ele>1442.5</ele>
        <time>2020-09-01T16:57:09.959Z</time>
      </trkpt>
      <trkpt lat="42.48571" lon="2.50973">
        <ele>1441.8</ele>
        <time>2020-09-01T16:57:13.183Z</time>
      </trkpt>
      <trkpt lat="42.48558" lon="2.50973">
        <ele>1440.7</ele>
        <time>2020-09-01T16:57:17.839Z</time>
      </trkpt>
      <trkpt lat="42.48551" lon="2.5097">
        <ele>1440</ele>
        <time>2020-09-01T16:57:20.468Z</time>
      </trkpt>
      <trkpt lat="42.48542" lon="2.50966">
        <ele>1439.1</ele>
        <time>2020-09-01T16:57:23.861Z</time>
      </trkpt>
      <trkpt lat="42.48532" lon="2.50955">
        <ele>1439.5</ele>
        <time>2020-09-01T16:58:10.745Z</time>
      </trkpt>
      <trkpt lat="42.48524" lon="2.50944">
        <ele>1440.3</ele>
        <time>2020-09-01T16:59:10.566Z</time>
      </trkpt>
      <trkpt lat="42.48516" lon="2.50927">
        <ele>1441.6</ele>
        <time>2020-09-01T17:00:40.307Z</time>
      </trkpt>
      <trkpt lat="42.48502" lon="2.50896">
        <ele>1456.2</ele>
        <time>2020-09-01T17:05:09.666Z</time>
      </trkpt>
      <trkpt lat="42.48478" lon="2.5084">
        <ele>1449.1</ele>
        <time>2020-09-01T17:05:26.774Z</time>
      </trkpt>
      <trkpt lat="42.48474" lon="2.50832">
        <ele>1460</ele>
        <time>2020-09-01T17:06:38.395Z</time>
      </trkpt>
      <trkpt lat="42.48462" lon="2.5081">
        <ele>1458.3</ele>
        <time>2020-09-01T17:06:45.623Z</time>
      </trkpt>
      <trkpt lat="42.48462" lon="2.50809">
        <ele>1458.2</ele>
        <time>2020-09-01T17:06:45.887Z</time>
        <extensions>
          <visugpx:TrkExtension xmlns:visugpx="https://www.visugpx.com/editgpx/">
            <visugpx:node>7</visugpx:node>
            </visugpx:TrkExtension>
        </extensions>
      </trkpt>
      <trkpt lat="42.48454" lon="2.50797">
        <ele>1457.8</ele>
        <time>2020-09-01T17:06:51.114Z</time>
      </trkpt>
      <trkpt lat="42.48442" lon="2.50781">
        <ele>1456.8</ele>
        <time>2020-09-01T17:06:56.957Z</time>
      </trkpt>
      <trkpt lat="42.48435" lon="2.50771">
        <ele>1455.9</ele>
        <time>2020-09-01T17:07:00.599Z</time>
      </trkpt>
      <trkpt lat="42.48431" lon="2.50762">
        <ele>1454.6</ele>
        <time>2020-09-01T17:07:03.375Z</time>
      </trkpt>
      <trkpt lat="42.48427" lon="2.50752">
        <ele>1453</ele>
        <time>2020-09-01T17:07:06.380Z</time>
      </trkpt>
      <trkpt lat="42.48426" lon="2.50738">
        <ele>1458.9</ele>
        <time>2020-09-01T17:08:50.606Z</time>
      </trkpt>
      <trkpt lat="42.48425" lon="2.50725">
        <ele>1462.3</ele>
        <time>2020-09-01T17:10:27.459Z</time>
      </trkpt>
      <trkpt lat="42.48423" lon="2.50716">
        <ele>1463.5</ele>
        <time>2020-09-01T17:11:37.111Z</time>
      </trkpt>
      <trkpt lat="42.48418" lon="2.50702">
        <ele>1464.1</ele>
        <time>2020-09-01T17:12:30.165Z</time>
      </trkpt>
      <trkpt lat="42.48414" lon="2.50689">
        <ele>1455.1</ele>
        <time>2020-09-01T17:12:33.886Z</time>
      </trkpt>
      <trkpt lat="42.48413" lon="2.5067">
        <ele>1456.5</ele>
        <time>2020-09-01T17:14:08.736Z</time>
      </trkpt>
      <trkpt lat="42.48416" lon="2.50656">
        <ele>1460.5</ele>
        <time>2020-09-01T17:15:56.768Z</time>
      </trkpt>
      <trkpt lat="42.4842" lon="2.50646">
        <ele>1467.1</ele>
        <time>2020-09-01T17:17:21.066Z</time>
      </trkpt>
      <trkpt lat="42.48433" lon="2.50626">
        <ele>1471.8</ele>
        <time>2020-09-01T17:20:38.616Z</time>
      </trkpt>
      <trkpt lat="42.48443" lon="2.50614">
        <ele>1473.5</ele>
        <time>2020-09-01T17:22:41.878Z</time>
      </trkpt>
      <trkpt lat="42.48451" lon="2.5061">
        <ele>1474.7</ele>
        <time>2020-09-01T17:24:07.552Z</time>
      </trkpt>
      <trkpt lat="42.48487" lon="2.50604">
        <ele>1479.9</ele>
        <time>2020-09-01T17:30:12.002Z</time>
      </trkpt>
      <trkpt lat="42.48492" lon="2.50601">
        <ele>1480.9</ele>
        <time>2020-09-01T17:31:06.941Z</time>
      </trkpt>
      <trkpt lat="42.48497" lon="2.50596">
        <ele>1482</ele>
        <time>2020-09-01T17:32:09.364Z</time>
      </trkpt>
      <trkpt lat="42.48497" lon="2.50591">
        <ele>1483.1</ele>
        <time>2020-09-01T17:32:46.414Z</time>
      </trkpt>
      <trkpt lat="42.48451" lon="2.5055">
        <ele>1487.6</ele>
        <time>2020-09-01T17:38:03.016Z</time>
      </trkpt>
      <trkpt lat="42.48439" lon="2.50545">
        <ele>1487.6</ele>
        <time>2020-09-01T17:38:35.719Z</time>
      </trkpt>
      <trkpt lat="42.48423" lon="2.50547">
        <ele>1486.3</ele>
        <time>2020-09-01T17:38:41.474Z</time>
      </trkpt>
      <trkpt lat="42.483" lon="2.50645">
        <ele>1483.7</ele>
        <time>2020-09-01T17:39:55.446Z</time>
      </trkpt>
      <trkpt lat="42.48289" lon="2.50657">
        <ele>1486.2</ele>
        <time>2020-09-01T17:42:17.303Z</time>
      </trkpt>
      <trkpt lat="42.48289" lon="2.50668">
        <ele>1479.4</ele>
        <time>2020-09-01T17:42:20.209Z</time>
        <extensions>
          <visugpx:TrkExtension xmlns:visugpx="https://www.visugpx.com/editgpx/">
            <visugpx:node>8</visugpx:node>
            </visugpx:TrkExtension>
        </extensions>
      </trkpt>
      <trkpt lat="42.48289" lon="2.50672">
        <ele>1479.3</ele>
        <time>2020-09-01T17:42:21.497Z</time>
      </trkpt>
      <trkpt lat="42.48292" lon="2.50683">
        <ele>1478</ele>
        <time>2020-09-01T17:42:24.595Z</time>
      </trkpt>
      <trkpt lat="42.48291" lon="2.5069">
        <ele>1478.3</ele>
        <time>2020-09-01T17:42:49.707Z</time>
      </trkpt>
      <trkpt lat="42.48284" lon="2.50704">
        <ele>1479.8</ele>
        <time>2020-09-01T17:44:34.985Z</time>
      </trkpt>
      <trkpt lat="42.48276" lon="2.50717">
        <ele>1481.5</ele>
        <time>2020-09-01T17:46:40.451Z</time>
      </trkpt>
      <trkpt lat="42.48271" lon="2.50725">
        <ele>1483.1</ele>
        <time>2020-09-01T17:47:58.157Z</time>
      </trkpt>
      <trkpt lat="42.48273" lon="2.50742">
        <ele>1483.9</ele>
        <time>2020-09-01T17:49:01.378Z</time>
      </trkpt>
      <trkpt lat="42.48281" lon="2.50764">
        <ele>1475.5</ele>
        <time>2020-09-01T17:49:07.857Z</time>
      </trkpt>
      <trkpt lat="42.48276" lon="2.50773">
        <ele>1476.5</ele>
        <time>2020-09-01T17:50:18.066Z</time>
      </trkpt>
      <trkpt lat="42.4826" lon="2.50776">
        <ele>1480.2</ele>
        <time>2020-09-01T17:53:00.364Z</time>
      </trkpt>
      <trkpt lat="42.48247" lon="2.50784">
        <ele>1507.5</ele>
        <time>2020-09-01T17:55:23.810Z</time>
      </trkpt>
      <trkpt lat="42.48276" lon="2.50782">
        <ele>1475</ele>
        <time>2020-09-01T17:55:34.211Z</time>
      </trkpt>
      <trkpt lat="42.48282" lon="2.50782">
        <ele>1473.5</ele>
        <time>2020-09-01T17:55:36.360Z</time>
      </trkpt>
      <trkpt lat="42.48283" lon="2.50785">
        <ele>1472.9</ele>
        <time>2020-09-01T17:55:37.230Z</time>
      </trkpt>
      <trkpt lat="42.48282" lon="2.5079">
        <ele>1472.9</ele>
        <time>2020-09-01T17:55:47.183Z</time>
      </trkpt>
      <trkpt lat="42.48266" lon="2.50809">
        <ele>1476.6</ele>
        <time>2020-09-01T17:59:20.886Z</time>
      </trkpt>
      <trkpt lat="42.48262" lon="2.50814">
        <ele>1478.3</ele>
        <time>2020-09-01T18:00:15.551Z</time>
      </trkpt>
      <trkpt lat="42.48261" lon="2.50818">
        <ele>1479.3</ele>
        <time>2020-09-01T18:00:46.848Z</time>
      </trkpt>
      <trkpt lat="42.48268" lon="2.50824">
        <ele>1477.7</ele>
        <time>2020-09-01T18:00:49.814Z</time>
      </trkpt>
      <trkpt lat="42.4828" lon="2.50831">
        <ele>1473.3</ele>
        <time>2020-09-01T18:00:54.494Z</time>
      </trkpt>
      <trkpt lat="42.48281" lon="2.50837">
        <ele>1469.5</ele>
        <time>2020-09-01T18:00:56.118Z</time>
      </trkpt>
      <trkpt lat="42.48277" lon="2.50845">
        <ele>1470.9</ele>
        <time>2020-09-01T18:02:07.740Z</time>
      </trkpt>
      <trkpt lat="42.48278" lon="2.50849">
        <ele>1470.2</ele>
        <time>2020-09-01T18:02:08.856Z</time>
      </trkpt>
      <trkpt lat="42.4829" lon="2.50855">
        <ele>1465.5</ele>
        <time>2020-09-01T18:02:13.437Z</time>
      </trkpt>
      <trkpt lat="42.48296" lon="2.50861">
        <ele>1463.5</ele>
        <time>2020-09-01T18:02:16.107Z</time>
      </trkpt>
      <trkpt lat="42.48307" lon="2.50887">
        <ele>1459.6</ele>
        <time>2020-09-01T18:02:24.025Z</time>
      </trkpt>
      <trkpt lat="42.48311" lon="2.50903">
        <ele>1456.1</ele>
        <time>2020-09-01T18:02:28.488Z</time>
      </trkpt>
      <trkpt lat="42.48316" lon="2.50951">
        <ele>1458.4</ele>
        <time>2020-09-01T18:05:28.213Z</time>
      </trkpt>
      <trkpt lat="42.48321" lon="2.50968">
        <ele>1457.4</ele>
        <time>2020-09-01T18:05:33.048Z</time>
      </trkpt>
      <trkpt lat="42.48334" lon="2.50997">
        <ele>1439</ele>
        <time>2020-09-01T18:05:42.012Z</time>
      </trkpt>
      <trkpt lat="42.48341" lon="2.51015">
        <ele>1433.2</ele>
        <time>2020-09-01T18:05:47.387Z</time>
      </trkpt>
      <trkpt lat="42.48344" lon="2.51034">
        <ele>1430.6</ele>
        <time>2020-09-01T18:05:52.520Z</time>
      </trkpt>
      <trkpt lat="42.48344" lon="2.51055">
        <ele>1432.4</ele>
        <time>2020-09-01T18:07:57.140Z</time>
      </trkpt>
      <trkpt lat="42.4834" lon="2.51071">
        <ele>1437.9</ele>
        <time>2020-09-01T18:10:02.329Z</time>
      </trkpt>
      <trkpt lat="42.48332" lon="2.51091">
        <ele>1451.7</ele>
        <time>2020-09-01T18:12:50.928Z</time>
      </trkpt>
      <trkpt lat="42.48318" lon="2.51111">
        <ele>1457.8</ele>
        <time>2020-09-01T18:16:15.263Z</time>
      </trkpt>
      <trkpt lat="42.48287" lon="2.51142">
        <ele>1463</ele>
        <time>2020-09-01T18:22:42.295Z</time>
      </trkpt>
      <trkpt lat="42.48281" lon="2.51152">
        <ele>1464.4</ele>
        <time>2020-09-01T18:24:17.824Z</time>
      </trkpt>
      <trkpt lat="42.48262" lon="2.51189">
        <ele>1451.1</ele>
        <time>2020-09-01T18:24:29.733Z</time>
      </trkpt>
      <trkpt lat="42.48255" lon="2.51203">
        <ele>1446.2</ele>
        <time>2020-09-01T18:24:34.201Z</time>
      </trkpt>
      <trkpt lat="42.48247" lon="2.51213">
        <ele>1462.9</ele>
        <time>2020-09-01T18:26:23.530Z</time>
      </trkpt>
      <trkpt lat="42.48215" lon="2.51241">
        <ele>1461</ele>
        <time>2020-09-01T18:26:37.847Z</time>
      </trkpt>
      <trkpt lat="42.48192" lon="2.51264">
        <ele>1440.7</ele>
        <time>2020-09-01T18:26:48.083Z</time>
      </trkpt>
      <trkpt lat="42.48185" lon="2.51265">
        <ele>1442.5</ele>
        <time>2020-09-01T18:27:58.809Z</time>
      </trkpt>
      <trkpt lat="42.48175" lon="2.51266">
        <ele>1446</ele>
        <time>2020-09-01T18:29:39.561Z</time>
      </trkpt>
      <trkpt lat="42.4816" lon="2.5127">
        <ele>1457.7</ele>
        <time>2020-09-01T18:32:13.168Z</time>
      </trkpt>
      <trkpt lat="42.48147" lon="2.51289">
        <ele>1453.2</ele>
        <time>2020-09-01T18:32:20.015Z</time>
      </trkpt>
      <trkpt lat="42.48135" lon="2.51299">
        <ele>1452.1</ele>
        <time>2020-09-01T18:32:25.060Z</time>
      </trkpt>
      <trkpt lat="42.48128" lon="2.51299">
        <ele>1453.2</ele>
        <time>2020-09-01T18:33:35.396Z</time>
      </trkpt>
      <trkpt lat="42.48124" lon="2.51303">
        <ele>1452.9</ele>
        <time>2020-09-01T18:33:37.109Z</time>
      </trkpt>
      <trkpt lat="42.48091" lon="2.51362">
        <ele>1426.1</ele>
        <time>2020-09-01T18:33:56.669Z</time>
      </trkpt>
      <trkpt lat="42.4808" lon="2.51373">
        <ele>1435.8</ele>
        <time>2020-09-01T18:36:14.005Z</time>
      </trkpt>
      <trkpt lat="42.48064" lon="2.51378">
        <ele>1435.2</ele>
        <time>2020-09-01T18:36:20.987Z</time>
      </trkpt>
      <trkpt lat="42.48034" lon="2.51393">
        <ele>1435.2</ele>
        <time>2020-09-01T18:37:44.282Z</time>
      </trkpt>
      <trkpt lat="42.48002" lon="2.51409">
        <ele>1431</ele>
        <time>2020-09-01T18:37:56.498Z</time>
      </trkpt>
      <trkpt lat="42.47989" lon="2.51416">
        <ele>1440.7</ele>
        <time>2020-09-01T18:40:17.046Z</time>
      </trkpt>
      <trkpt lat="42.47975" lon="2.51427">
        <ele>1431.3</ele>
        <time>2020-09-01T18:40:22.841Z</time>
      </trkpt>
      <trkpt lat="42.47954" lon="2.51453">
        <ele>1432.7</ele>
        <time>2020-09-01T18:42:31.726Z</time>
      </trkpt>
      <trkpt lat="42.47941" lon="2.51463">
        <ele>1433.8</ele>
        <time>2020-09-01T18:43:52.259Z</time>
      </trkpt>
      <trkpt lat="42.47925" lon="2.51485">
        <ele>1435.3</ele>
        <time>2020-09-01T18:45:48.065Z</time>
      </trkpt>
      <trkpt lat="42.479" lon="2.51524">
        <ele>1441.3</ele>
        <time>2020-09-01T18:52:10.989Z</time>
      </trkpt>
      <trkpt lat="42.47886" lon="2.51542">
        <ele>1441</ele>
        <time>2020-09-01T18:52:21.324Z</time>
      </trkpt>
      <trkpt lat="42.47867" lon="2.51561">
        <ele>1442.4</ele>
        <time>2020-09-01T18:54:15.841Z</time>
      </trkpt>
      <trkpt lat="42.47831" lon="2.51584">
        <ele>1449</ele>
        <time>2020-09-01T19:00:55.714Z</time>
      </trkpt>
      <trkpt lat="42.47805" lon="2.51599">
        <ele>1457.4</ele>
        <time>2020-09-01T19:05:39.628Z</time>
      </trkpt>
      <trkpt lat="42.4778" lon="2.51611">
        <ele>1463.7</ele>
        <time>2020-09-01T19:10:06.105Z</time>
      </trkpt>
      <trkpt lat="42.47769" lon="2.51621">
        <ele>1465</ele>
        <time>2020-09-01T19:11:34.243Z</time>
      </trkpt>
      <trkpt lat="42.47761" lon="2.51638">
        <ele>1464.8</ele>
        <time>2020-09-01T19:11:42.423Z</time>
      </trkpt>
      <trkpt lat="42.47754" lon="2.51661">
        <ele>1469.5</ele>
        <time>2020-09-01T19:14:46.813Z</time>
      </trkpt>
      <trkpt lat="42.47748" lon="2.51678">
        <ele>1478.3</ele>
        <time>2020-09-01T19:17:06.479Z</time>
      </trkpt>
      <trkpt lat="42.47738" lon="2.51709">
        <ele>1481.9</ele>
        <time>2020-09-01T19:21:17.228Z</time>
      </trkpt>
      <trkpt lat="42.47729" lon="2.5173">
        <ele>1480.1</ele>
        <time>2020-09-01T19:21:23.644Z</time>
      </trkpt>
      <trkpt lat="42.47715" lon="2.51752">
        <ele>1474.8</ele>
        <time>2020-09-01T19:21:31.320Z</time>
      </trkpt>
      <trkpt lat="42.47695" lon="2.51779">
        <ele>1479.9</ele>
        <time>2020-09-01T19:26:14.909Z</time>
      </trkpt>
      <trkpt lat="42.47687" lon="2.51792">
        <ele>1480.1</ele>
        <time>2020-09-01T19:26:53.031Z</time>
      </trkpt>
      <trkpt lat="42.47678" lon="2.51819">
        <ele>1481.5</ele>
        <time>2020-09-01T19:28:42.677Z</time>
      </trkpt>
      <trkpt lat="42.47674" lon="2.51826">
        <ele>1483.5</ele>
        <time>2020-09-01T19:29:48.302Z</time>
      </trkpt>
      <trkpt lat="42.47669" lon="2.51828">
        <ele>1485.6</ele>
        <time>2020-09-01T19:30:40.683Z</time>
      </trkpt>
      <trkpt lat="42.47659" lon="2.51828">
        <ele>1492.9</ele>
        <time>2020-09-01T19:32:21.162Z</time>
      </trkpt>
      <trkpt lat="42.47635" lon="2.51817">
        <ele>1500.4</ele>
        <time>2020-09-01T19:36:35.721Z</time>
      </trkpt>
      <trkpt lat="42.47589" lon="2.51792">
        <ele>1507.7</ele>
        <time>2020-09-01T19:44:53.679Z</time>
      </trkpt>
      <trkpt lat="42.47555" lon="2.51771">
        <ele>1518.6</ele>
        <time>2020-09-01T19:51:09.090Z</time>
      </trkpt>
      <trkpt lat="42.47535" lon="2.51762">
        <ele>1520.4</ele>
        <time>2020-09-01T19:53:14.085Z</time>
      </trkpt>
      <trkpt lat="42.47513" lon="2.51758">
        <ele>1525.8</ele>
        <time>2020-09-01T19:56:57.120Z</time>
      </trkpt>
      <trkpt lat="42.47488" lon="2.51756">
        <ele>1526.6</ele>
        <time>2020-09-01T19:58:29.344Z</time>
      </trkpt>
      <trkpt lat="42.47475" lon="2.51753">
        <ele>1523</ele>
        <time>2020-09-01T19:58:34.067Z</time>
      </trkpt>
      <trkpt lat="42.47434" lon="2.51725">
        <ele>1543.8</ele>
        <time>2020-09-01T20:06:15.347Z</time>
      </trkpt>
      <trkpt lat="42.47404" lon="2.51702">
        <ele>1538.7</ele>
        <time>2020-09-01T20:06:27.692Z</time>
      </trkpt>
      <trkpt lat="42.47375" lon="2.51677">
        <ele>1537.2</ele>
        <time>2020-09-01T20:06:41.352Z</time>
      </trkpt>
      <trkpt lat="42.47371" lon="2.5167">
        <ele>1536.6</ele>
        <time>2020-09-01T20:06:43.691Z</time>
      </trkpt>
      <trkpt lat="42.47371" lon="2.51661">
        <ele>1551.4</ele>
        <time>2020-09-01T20:07:50.392Z</time>
      </trkpt>
      <trkpt lat="42.47369" lon="2.51622">
        <ele>1556</ele>
        <time>2020-09-01T20:12:40.130Z</time>
      </trkpt>
      <trkpt lat="42.47363" lon="2.51599">
        <ele>1557.5</ele>
        <time>2020-09-01T20:14:25.022Z</time>
      </trkpt>
      <trkpt lat="42.47353" lon="2.5157">
        <ele>1569.6</ele>
        <time>2020-09-01T20:18:22.277Z</time>
      </trkpt>
      <trkpt lat="42.47343" lon="2.51545">
        <ele>1574</ele>
        <time>2020-09-01T20:21:53.051Z</time>
      </trkpt>
      <trkpt lat="42.47327" lon="2.51521">
        <ele>1563.6</ele>
        <time>2020-09-01T20:22:01.598Z</time>
      </trkpt>
      <trkpt lat="42.47305" lon="2.51494">
        <ele>1571.8</ele>
        <time>2020-09-01T20:26:59.773Z</time>
      </trkpt>
      <trkpt lat="42.47295" lon="2.51477">
        <ele>1570.4</ele>
        <time>2020-09-01T20:27:05.518Z</time>
      </trkpt>
      <trkpt lat="42.47287" lon="2.51442">
        <ele>1571.6</ele>
        <time>2020-09-01T20:29:04.185Z</time>
      </trkpt>
      <trkpt lat="42.47286" lon="2.51413">
        <ele>1578.5</ele>
        <time>2020-09-01T20:32:39.350Z</time>
      </trkpt>
      <trkpt lat="42.47291" lon="2.51378">
        <ele>1581.3</ele>
        <time>2020-09-01T20:35:49.496Z</time>
      </trkpt>
      <trkpt lat="42.47303" lon="2.51342">
        <ele>1585.8</ele>
        <time>2020-09-01T20:40:42.286Z</time>
      </trkpt>
      <trkpt lat="42.4732" lon="2.51297">
        <ele>1593.2</ele>
        <time>2020-09-01T20:46:56.995Z</time>
      </trkpt>
      <trkpt lat="42.4733" lon="2.51258">
        <ele>1601.1</ele>
        <time>2020-09-01T20:52:03.004Z</time>
      </trkpt>
      <trkpt lat="42.4734" lon="2.51217">
        <ele>1621.1</ele>
        <time>2020-09-01T20:57:23.050Z</time>
      </trkpt>
      <trkpt lat="42.47344" lon="2.51189">
        <ele>1623.4</ele>
        <time>2020-09-01T20:59:59.818Z</time>
      </trkpt>
      <trkpt lat="42.47341" lon="2.51168">
        <ele>1620.9</ele>
        <time>2020-09-01T21:00:05.470Z</time>
      </trkpt>
      <trkpt lat="42.47335" lon="2.5113">
        <ele>1637.4</ele>
        <time>2020-09-01T21:04:53.480Z</time>
      </trkpt>
      <trkpt lat="42.4733" lon="2.51111">
        <ele>1625.1</ele>
        <time>2020-09-01T21:04:58.810Z</time>
      </trkpt>
      <trkpt lat="42.47322" lon="2.51073">
        <ele>1637.9</ele>
        <time>2020-09-01T21:09:51.687Z</time>
      </trkpt>
      <trkpt lat="42.47311" lon="2.51061">
        <ele>1637.4</ele>
        <time>2020-09-01T21:09:57.758Z</time>
      </trkpt>
      <trkpt lat="42.47309" lon="2.51046">
        <ele>1638.3</ele>
        <time>2020-09-01T21:11:01.526Z</time>
      </trkpt>
      <trkpt lat="42.47309" lon="2.51024">
        <ele>1641.1</ele>
        <time>2020-09-01T21:13:44.576Z</time>
      </trkpt>
      <trkpt lat="42.47316" lon="2.51013">
        <ele>1644.6</ele>
        <time>2020-09-01T21:15:32.249Z</time>
      </trkpt>
      <trkpt lat="42.47305" lon="2.50985">
        <ele>1652.1</ele>
        <time>2020-09-01T21:19:27.366Z</time>
      </trkpt>
      <trkpt lat="42.47297" lon="2.5097">
        <ele>1652.2</ele>
        <time>2020-09-01T21:20:05.491Z</time>
      </trkpt>
      <trkpt lat="42.47292" lon="2.5095">
        <ele>1653.2</ele>
        <time>2020-09-01T21:21:23.720Z</time>
      </trkpt>
      <trkpt lat="42.47288" lon="2.50934">
        <ele>1654</ele>
        <time>2020-09-01T21:22:26.303Z</time>
      </trkpt>
      <trkpt lat="42.47284" lon="2.5092">
        <ele>1654</ele>
        <time>2020-09-01T21:22:55.152Z</time>
      </trkpt>
      <trkpt lat="42.47277" lon="2.50907">
        <ele>1664</ele>
        <time>2020-09-01T21:24:54.441Z</time>
      </trkpt>
      <trkpt lat="42.4727" lon="2.50896">
        <ele>1664.1</ele>
        <time>2020-09-01T21:25:24.966Z</time>
      </trkpt>
      <trkpt lat="42.47262" lon="2.50886">
        <ele>1664.8</ele>
        <time>2020-09-01T21:26:19.667Z</time>
      </trkpt>
      <trkpt lat="42.47252" lon="2.50874">
        <ele>1666</ele>
        <time>2020-09-01T21:27:41.999Z</time>
      </trkpt>
      <trkpt lat="42.47243" lon="2.50864">
        <ele>1655.8</ele>
        <time>2020-09-01T21:27:46.167Z</time>
      </trkpt>
      <trkpt lat="42.47234" lon="2.50855">
        <ele>1656.5</ele>
        <time>2020-09-01T21:28:41.689Z</time>
      </trkpt>
      <trkpt lat="42.47225" lon="2.50848">
        <ele>1656.1</ele>
        <time>2020-09-01T21:28:46.015Z</time>
      </trkpt>
      <trkpt lat="42.47215" lon="2.5084">
        <ele>1655.2</ele>
        <time>2020-09-01T21:28:50.174Z</time>
      </trkpt>
      <trkpt lat="42.47207" lon="2.50832">
        <ele>1666.9</ele>
        <time>2020-09-01T21:30:30.060Z</time>
      </trkpt>
      <trkpt lat="42.472" lon="2.50826">
        <ele>1666.3</ele>
        <time>2020-09-01T21:30:33.026Z</time>
      </trkpt>
      <trkpt lat="42.47192" lon="2.50819">
        <ele>1665.6</ele>
        <time>2020-09-01T21:30:36.437Z</time>
      </trkpt>
      <trkpt lat="42.47185" lon="2.50813">
        <ele>1665.3</ele>
        <time>2020-09-01T21:30:39.969Z</time>
      </trkpt>
      <trkpt lat="42.47183" lon="2.50812">
        <ele>1665.1</ele>
        <time>2020-09-01T21:30:40.733Z</time>
        <extensions>
          <visugpx:TrkExtension xmlns:visugpx="https://www.visugpx.com/editgpx/">
            <visugpx:node>9</visugpx:node>
            </visugpx:TrkExtension>
        </extensions>
      </trkpt>
      <trkpt lat="42.47177" lon="2.5081">
        <ele>1664.8</ele>
        <time>2020-09-01T21:30:43.083Z</time>
      </trkpt>
      <trkpt lat="42.47169" lon="2.50814">
        <ele>1662.7</ele>
        <time>2020-09-01T21:30:46.137Z</time>
      </trkpt>
      <trkpt lat="42.47159" lon="2.50815">
        <ele>1661.8</ele>
        <time>2020-09-01T21:30:49.728Z</time>
      </trkpt>
      <trkpt lat="42.47151" lon="2.50812">
        <ele>1663.6</ele>
        <time>2020-09-01T21:32:13.131Z</time>
      </trkpt>
      <trkpt lat="42.47146" lon="2.50806">
        <ele>1665.8</ele>
        <time>2020-09-01T21:33:20.225Z</time>
      </trkpt>
      <trkpt lat="42.47143" lon="2.50799">
        <ele>1667.6</ele>
        <time>2020-09-01T21:34:20.227Z</time>
      </trkpt>
      <trkpt lat="42.47139" lon="2.50791">
        <ele>1669.2</ele>
        <time>2020-09-01T21:35:31.858Z</time>
      </trkpt>
      <trkpt lat="42.47137" lon="2.50785">
        <ele>1670.4</ele>
        <time>2020-09-01T21:36:20.657Z</time>
      </trkpt>
      <trkpt lat="42.47134" lon="2.50782">
        <ele>1670.9</ele>
        <time>2020-09-01T21:36:58.114Z</time>
      </trkpt>
      <trkpt lat="42.4713" lon="2.50783">
        <ele>1671</ele>
        <time>2020-09-01T21:37:11.790Z</time>
      </trkpt>
      <trkpt lat="42.47125" lon="2.50788">
        <ele>1670.6</ele>
        <time>2020-09-01T21:37:13.864Z</time>
      </trkpt>
      <trkpt lat="42.47119" lon="2.50797">
        <ele>1669.6</ele>
        <time>2020-09-01T21:37:17.069Z</time>
      </trkpt>
      <trkpt lat="42.47114" lon="2.50803">
        <ele>1669</ele>
        <time>2020-09-01T21:37:19.461Z</time>
      </trkpt>
      <trkpt lat="42.47108" lon="2.50804">
        <ele>1669.1</ele>
        <time>2020-09-01T21:37:38.021Z</time>
      </trkpt>
      <trkpt lat="42.471" lon="2.50805">
        <ele>1669.2</ele>
        <time>2020-09-01T21:38:01.643Z</time>
      </trkpt>
      <trkpt lat="42.47092" lon="2.50808">
        <ele>1668.9</ele>
        <time>2020-09-01T21:38:05.187Z</time>
      </trkpt>
      <trkpt lat="42.47083" lon="2.50809">
        <ele>1677.1</ele>
        <time>2020-09-01T21:39:35.922Z</time>
      </trkpt>
      <trkpt lat="42.47074" lon="2.50811">
        <ele>1677.2</ele>
        <time>2020-09-01T21:40:02.333Z</time>
      </trkpt>
      <trkpt lat="42.47066" lon="2.50818">
        <ele>1677.1</ele>
        <time>2020-09-01T21:40:07.773Z</time>
      </trkpt>
      <trkpt lat="42.47053" lon="2.50829">
        <ele>1679.3</ele>
        <time>2020-09-01T21:42:41.752Z</time>
      </trkpt>
      <trkpt lat="42.4704" lon="2.50839">
        <ele>1668.4</ele>
        <time>2020-09-01T21:42:47.105Z</time>
      </trkpt>
      <trkpt lat="42.47032" lon="2.5085">
        <ele>1669.2</ele>
        <time>2020-09-01T21:43:46.929Z</time>
      </trkpt>
      <trkpt lat="42.47024" lon="2.50861">
        <ele>1668.9</ele>
        <time>2020-09-01T21:43:52.315Z</time>
      </trkpt>
      <trkpt lat="42.47014" lon="2.50871">
        <ele>1668.1</ele>
        <time>2020-09-01T21:43:56.464Z</time>
      </trkpt>
      <trkpt lat="42.47004" lon="2.50879">
        <ele>1667.4</ele>
        <time>2020-09-01T21:44:00.468Z</time>
      </trkpt>
      <trkpt lat="42.46995" lon="2.50887">
        <ele>1677.4</ele>
        <time>2020-09-01T21:45:48.605Z</time>
      </trkpt>
      <trkpt lat="42.46985" lon="2.50897">
        <ele>1675.9</ele>
        <time>2020-09-01T21:45:53.056Z</time>
      </trkpt>
      <trkpt lat="42.46978" lon="2.50902">
        <ele>1675.9</ele>
        <time>2020-09-01T21:46:13.668Z</time>
      </trkpt>
      <trkpt lat="42.46974" lon="2.50906">
        <ele>1676.2</ele>
        <time>2020-09-01T21:46:37.957Z</time>
      </trkpt>
      <trkpt lat="42.46969" lon="2.50905">
        <ele>1677.2</ele>
        <time>2020-09-01T21:47:28.740Z</time>
      </trkpt>
      <trkpt lat="42.46961" lon="2.50903">
        <ele>1678.5</ele>
        <time>2020-09-01T21:48:50.480Z</time>
      </trkpt>
      <trkpt lat="42.46953" lon="2.50901">
        <ele>1679.4</ele>
        <time>2020-09-01T21:49:51.960Z</time>
      </trkpt>
      <trkpt lat="42.46949" lon="2.50901">
        <ele>1679.7</ele>
        <time>2020-09-01T21:50:13.749Z</time>
      </trkpt>
      <trkpt lat="42.46943" lon="2.50902">
        <ele>1679.8</ele>
        <time>2020-09-01T21:50:32.309Z</time>
      </trkpt>
      <trkpt lat="42.46935" lon="2.50903">
        <ele>1679.5</ele>
        <time>2020-09-01T21:50:35.699Z</time>
      </trkpt>
      <trkpt lat="42.46928" lon="2.50904">
        <ele>1678.9</ele>
        <time>2020-09-01T21:50:38.220Z</time>
      </trkpt>
      <trkpt lat="42.4692" lon="2.50905">
        <ele>1678.4</ele>
        <time>2020-09-01T21:50:40.948Z</time>
      </trkpt>
      <trkpt lat="42.46914" lon="2.50903">
        <ele>1685.6</ele>
        <time>2020-09-01T21:51:43.031Z</time>
      </trkpt>
      <trkpt lat="42.46907" lon="2.50903">
        <ele>1687.6</ele>
        <time>2020-09-01T21:52:53.367Z</time>
      </trkpt>
      <trkpt lat="42.46901" lon="2.50902">
        <ele>1689.9</ele>
        <time>2020-09-01T21:53:54.109Z</time>
      </trkpt>
      <trkpt lat="42.46892" lon="2.50902">
        <ele>1692.3</ele>
        <time>2020-09-01T21:55:24.541Z</time>
      </trkpt>
      <trkpt lat="42.46884" lon="2.50901">
        <ele>1694.6</ele>
        <time>2020-09-01T21:56:45.266Z</time>
      </trkpt>
      <trkpt lat="42.46878" lon="2.50898">
        <ele>1696.3</ele>
        <time>2020-09-01T21:57:49.524Z</time>
      </trkpt>
      <trkpt lat="42.46873" lon="2.50898">
        <ele>1697</ele>
        <time>2020-09-01T21:58:39.764Z</time>
      </trkpt>
      <trkpt lat="42.46865" lon="2.509">
        <ele>1697.7</ele>
        <time>2020-09-01T21:59:28.278Z</time>
      </trkpt>
      <trkpt lat="42.4686" lon="2.50902">
        <ele>1698</ele>
        <time>2020-09-01T21:59:53.259Z</time>
      </trkpt>
      <trkpt lat="42.46854" lon="2.50901">
        <ele>1698.3</ele>
        <time>2020-09-01T22:00:20.728Z</time>
      </trkpt>
      <trkpt lat="42.4685" lon="2.50903">
        <ele>1698.2</ele>
        <time>2020-09-01T22:00:22.808Z</time>
      </trkpt>
      <trkpt lat="42.46845" lon="2.50908">
        <ele>1697.5</ele>
        <time>2020-09-01T22:00:25.033Z</time>
      </trkpt>
      <trkpt lat="42.46841" lon="2.50917">
        <ele>1696.4</ele>
        <time>2020-09-01T22:00:27.810Z</time>
      </trkpt>
      <trkpt lat="42.46837" lon="2.50927">
        <ele>1686.5</ele>
        <time>2020-09-01T22:00:30.815Z</time>
      </trkpt>
      <trkpt lat="42.46831" lon="2.50933">
        <ele>1689.7</ele>
        <time>2020-09-01T22:01:45.731Z</time>
      </trkpt>
      <trkpt lat="42.46824" lon="2.50939">
        <ele>1688.1</ele>
        <time>2020-09-01T22:01:48.697Z</time>
      </trkpt>
      <trkpt lat="42.46817" lon="2.50946">
        <ele>1686.7</ele>
        <time>2020-09-01T22:01:51.813Z</time>
      </trkpt>
      <trkpt lat="42.46808" lon="2.50953">
        <ele>1685.5</ele>
        <time>2020-09-01T22:01:55.529Z</time>
      </trkpt>
      <trkpt lat="42.468" lon="2.50959">
        <ele>1684.7</ele>
        <time>2020-09-01T22:01:58.804Z</time>
      </trkpt>
      <trkpt lat="42.4679" lon="2.50966">
        <ele>1684.2</ele>
        <time>2020-09-01T22:02:03.246Z</time>
      </trkpt>
      <trkpt lat="42.46781" lon="2.50972">
        <ele>1683.7</ele>
        <time>2020-09-01T22:02:07.018Z</time>
      </trkpt>
      <trkpt lat="42.46771" lon="2.50979">
        <ele>1682.7</ele>
        <time>2020-09-01T22:02:11.049Z</time>
      </trkpt>
      <trkpt lat="42.4676" lon="2.50983">
        <ele>1681.7</ele>
        <time>2020-09-01T22:02:15.128Z</time>
      </trkpt>
      <trkpt lat="42.46749" lon="2.50985">
        <ele>1681.2</ele>
        <time>2020-09-01T22:02:19.483Z</time>
      </trkpt>
      <trkpt lat="42.46739" lon="2.50987">
        <ele>1681.3</ele>
        <time>2020-09-01T22:02:48.440Z</time>
      </trkpt>
      <trkpt lat="42.46728" lon="2.50987">
        <ele>1682.2</ele>
        <time>2020-09-01T22:03:51.742Z</time>
      </trkpt>
      <trkpt lat="42.46716" lon="2.50987">
        <ele>1682.3</ele>
        <time>2020-09-01T22:04:25.586Z</time>
      </trkpt>
      <trkpt lat="42.46707" lon="2.50987">
        <ele>1681.9</ele>
        <time>2020-09-01T22:04:29.137Z</time>
      </trkpt>
      <trkpt lat="42.46698" lon="2.50986">
        <ele>1681.3</ele>
        <time>2020-09-01T22:04:32.106Z</time>
      </trkpt>
      <trkpt lat="42.46692" lon="2.50982">
        <ele>1681.1</ele>
        <time>2020-09-01T22:04:35.147Z</time>
      </trkpt>
      <trkpt lat="42.46685" lon="2.50976">
        <ele>1681.2</ele>
        <time>2020-09-01T22:04:59.404Z</time>
      </trkpt>
      <trkpt lat="42.46676" lon="2.50968">
        <ele>1682.2</ele>
        <time>2020-09-01T22:06:07.605Z</time>
      </trkpt>
      <trkpt lat="42.46668" lon="2.50957">
        <ele>1684.1</ele>
        <time>2020-09-01T22:08:02.100Z</time>
      </trkpt>
      <trkpt lat="42.46662" lon="2.50949">
        <ele>1680.2</ele>
        <time>2020-09-01T22:08:05.115Z</time>
      </trkpt>
      <trkpt lat="42.46651" lon="2.50932">
        <ele>1682.8</ele>
        <time>2020-09-01T22:10:52.727Z</time>
      </trkpt>
      <trkpt lat="42.46641" lon="2.50912">
        <ele>1696</ele>
        <time>2020-09-01T22:13:51.814Z</time>
      </trkpt>
      <trkpt lat="42.46636" lon="2.50904">
        <ele>1697.1</ele>
        <time>2020-09-01T22:15:09.533Z</time>
      </trkpt>
      <trkpt lat="42.46631" lon="2.50896">
        <ele>1698</ele>
        <time>2020-09-01T22:16:11.867Z</time>
      </trkpt>
      <trkpt lat="42.46623" lon="2.5089">
        <ele>1698.5</ele>
        <time>2020-09-01T22:16:54.833Z</time>
      </trkpt>
      <trkpt lat="42.46616" lon="2.50885">
        <ele>1698.8</ele>
        <time>2020-09-01T22:17:26.412Z</time>
      </trkpt>
      <trkpt lat="42.46611" lon="2.5088">
        <ele>1699.1</ele>
        <time>2020-09-01T22:17:54.399Z</time>
      </trkpt>
      <trkpt lat="42.46605" lon="2.50878">
        <ele>1699.2</ele>
        <time>2020-09-01T22:18:13.296Z</time>
      </trkpt>
      <trkpt lat="42.46601" lon="2.50877">
        <ele>1699</ele>
        <time>2020-09-01T22:18:14.835Z</time>
      </trkpt>
      <trkpt lat="42.46596" lon="2.50881">
        <ele>1698.1</ele>
        <time>2020-09-01T22:18:16.914Z</time>
      </trkpt>
      <trkpt lat="42.4659" lon="2.50887">
        <ele>1696.2</ele>
        <time>2020-09-01T22:18:19.585Z</time>
      </trkpt>
      <trkpt lat="42.46585" lon="2.50894">
        <ele>1694</ele>
        <time>2020-09-01T22:18:22.159Z</time>
      </trkpt>
      <trkpt lat="42.46583" lon="2.50902">
        <ele>1693.2</ele>
        <time>2020-09-01T22:18:24.391Z</time>
      </trkpt>
      <trkpt lat="42.46586" lon="2.50912">
        <ele>1687</ele>
        <time>2020-09-01T22:18:27.244Z</time>
      </trkpt>
      <trkpt lat="42.46586" lon="2.50921">
        <ele>1682.7</ele>
        <time>2020-09-01T22:18:29.622Z</time>
      </trkpt>
      <trkpt lat="42.46586" lon="2.50928">
        <ele>1681.4</ele>
        <time>2020-09-01T22:18:31.471Z</time>
      </trkpt>
      <trkpt lat="42.46585" lon="2.50935">
        <ele>1680.3</ele>
        <time>2020-09-01T22:18:33.355Z</time>
      </trkpt>
      <trkpt lat="42.46583" lon="2.50941">
        <ele>1683.7</ele>
        <time>2020-09-01T22:19:22.158Z</time>
      </trkpt>
      <trkpt lat="42.46581" lon="2.50947">
        <ele>1683.3</ele>
        <time>2020-09-01T22:19:23.898Z</time>
      </trkpt>
      <trkpt lat="42.46578" lon="2.50951">
        <ele>1682.9</ele>
        <time>2020-09-01T22:19:25.405Z</time>
      </trkpt>
      <trkpt lat="42.46573" lon="2.50957">
        <ele>1682.6</ele>
        <time>2020-09-01T22:19:28.028Z</time>
      </trkpt>
      <trkpt lat="42.46567" lon="2.50962">
        <ele>1682.3</ele>
        <time>2020-09-01T22:19:30.855Z</time>
      </trkpt>
      <trkpt lat="42.46561" lon="2.50968">
        <ele>1682.1</ele>
        <time>2020-09-01T22:19:34.360Z</time>
      </trkpt>
      <trkpt lat="42.46559" lon="2.50969">
        <ele>1682.1</ele>
        <time>2020-09-01T22:19:39.913Z</time>
      </trkpt>
      <trkpt lat="42.46553" lon="2.50977">
        <ele>1682.1</ele>
        <time>2020-09-01T22:20:01.837Z</time>
      </trkpt>
      <trkpt lat="42.46543" lon="2.50988">
        <ele>1682.7</ele>
        <time>2020-09-01T22:20:59.216Z</time>
      </trkpt>
      <trkpt lat="42.46535" lon="2.50998">
        <ele>1683.7</ele>
        <time>2020-09-01T22:22:07.539Z</time>
      </trkpt>
      <trkpt lat="42.46528" lon="2.51006">
        <ele>1675.2</ele>
        <time>2020-09-01T22:22:10.818Z</time>
      </trkpt>
      <trkpt lat="42.46522" lon="2.51017">
        <ele>1675.6</ele>
        <time>2020-09-01T22:22:52.093Z</time>
      </trkpt>
      <trkpt lat="42.46517" lon="2.51026">
        <ele>1675</ele>
        <time>2020-09-01T22:22:55.070Z</time>
      </trkpt>
      <trkpt lat="42.46512" lon="2.51037">
        <ele>1674.2</ele>
        <time>2020-09-01T22:22:58.484Z</time>
      </trkpt>
      <trkpt lat="42.46506" lon="2.51046">
        <ele>1673.6</ele>
        <time>2020-09-01T22:23:01.689Z</time>
      </trkpt>
      <trkpt lat="42.46498" lon="2.5106">
        <ele>1687.4</ele>
        <time>2020-09-01T22:25:12.953Z</time>
      </trkpt>
      <trkpt lat="42.4649" lon="2.51074">
        <ele>1684.6</ele>
        <time>2020-09-01T22:25:17.632Z</time>
      </trkpt>
      <trkpt lat="42.4648" lon="2.5109">
        <ele>1679.2</ele>
        <time>2020-09-01T22:25:23.173Z</time>
      </trkpt>
      <trkpt lat="42.46469" lon="2.51106">
        <ele>1679.9</ele>
        <time>2020-09-01T22:26:32.922Z</time>
      </trkpt>
      <trkpt lat="42.46462" lon="2.51117">
        <ele>1679.8</ele>
        <time>2020-09-01T22:26:39.141Z</time>
      </trkpt>
      <trkpt lat="42.46457" lon="2.51126">
        <ele>1679.6</ele>
        <time>2020-09-01T22:26:43.169Z</time>
      </trkpt>
      <trkpt lat="42.46452" lon="2.51136">
        <ele>1679.2</ele>
        <time>2020-09-01T22:26:46.672Z</time>
      </trkpt>
      <trkpt lat="42.46448" lon="2.51144">
        <ele>1679</ele>
        <time>2020-09-01T22:26:49.979Z</time>
      </trkpt>
      <trkpt lat="42.46443" lon="2.51156">
        <ele>1679.1</ele>
        <time>2020-09-01T22:27:19.086Z</time>
      </trkpt>
      <trkpt lat="42.46437" lon="2.51168">
        <ele>1671.6</ele>
        <time>2020-09-01T22:27:22.917Z</time>
      </trkpt>
      <trkpt lat="42.46431" lon="2.51182">
        <ele>1671.4</ele>
        <time>2020-09-01T22:27:29.222Z</time>
      </trkpt>
      <trkpt lat="42.46426" lon="2.51194">
        <ele>1669.5</ele>
        <time>2020-09-01T22:27:32.863Z</time>
      </trkpt>
      <trkpt lat="42.46422" lon="2.51205">
        <ele>1668</ele>
        <time>2020-09-01T22:27:36.104Z</time>
      </trkpt>
      <trkpt lat="42.46415" lon="2.51219">
        <ele>1679.2</ele>
        <time>2020-09-01T22:29:41.468Z</time>
      </trkpt>
      <trkpt lat="42.46412" lon="2.51227">
        <ele>1677.6</ele>
        <time>2020-09-01T22:29:43.839Z</time>
      </trkpt>
      <trkpt lat="42.46411" lon="2.51236">
        <ele>1675.3</ele>
        <time>2020-09-01T22:29:46.244Z</time>
      </trkpt>
      <trkpt lat="42.46411" lon="2.51245">
        <ele>1672.6</ele>
        <time>2020-09-01T22:29:48.622Z</time>
      </trkpt>
      <trkpt lat="42.46411" lon="2.51253">
        <ele>1669.9</ele>
        <time>2020-09-01T22:29:50.736Z</time>
      </trkpt>
      <trkpt lat="42.4641" lon="2.51264">
        <ele>1671.4</ele>
        <time>2020-09-01T22:31:12.889Z</time>
      </trkpt>
      <trkpt lat="42.4641" lon="2.51275">
        <ele>1672.3</ele>
        <time>2020-09-01T22:32:14.401Z</time>
      </trkpt>
      <trkpt lat="42.46409" lon="2.51285">
        <ele>1672.5</ele>
        <time>2020-09-01T22:32:40.124Z</time>
      </trkpt>
      <trkpt lat="42.46409" lon="2.51298">
        <ele>1672.2</ele>
        <time>2020-09-01T22:32:44.424Z</time>
      </trkpt>
      <trkpt lat="42.46408" lon="2.5131">
        <ele>1671.2</ele>
        <time>2020-09-01T22:32:47.615Z</time>
      </trkpt>
      <trkpt lat="42.46407" lon="2.51322">
        <ele>1669.7</ele>
        <time>2020-09-01T22:32:50.806Z</time>
      </trkpt>
      <trkpt lat="42.46405" lon="2.5133">
        <ele>1669</ele>
        <time>2020-09-01T22:32:53.038Z</time>
      </trkpt>
      <trkpt lat="42.46403" lon="2.51337">
        <ele>1667.4</ele>
        <time>2020-09-01T22:32:55.021Z</time>
      </trkpt>
      <trkpt lat="42.46401" lon="2.51345">
        <ele>1667.9</ele>
        <time>2020-09-01T22:33:30.419Z</time>
      </trkpt>
      <trkpt lat="42.46401" lon="2.51354">
        <ele>1668.3</ele>
        <time>2020-09-01T22:34:02.838Z</time>
      </trkpt>
      <trkpt lat="42.46399" lon="2.51362">
        <ele>1668.6</ele>
        <time>2020-09-01T22:34:30.881Z</time>
      </trkpt>
      <trkpt lat="42.46395" lon="2.5137">
        <ele>1668.8</ele>
        <time>2020-09-01T22:34:55.876Z</time>
      </trkpt>
      <trkpt lat="42.46391" lon="2.51376">
        <ele>1669</ele>
        <time>2020-09-01T22:35:18.304Z</time>
      </trkpt>
      <trkpt lat="42.46384" lon="2.51384">
        <ele>1669.2</ele>
        <time>2020-09-01T22:35:48.121Z</time>
      </trkpt>
      <trkpt lat="42.46376" lon="2.51392">
        <ele>1669.5</ele>
        <time>2020-09-01T22:36:23.912Z</time>
      </trkpt>
      <trkpt lat="42.4637" lon="2.51398">
        <ele>1669.7</ele>
        <time>2020-09-01T22:36:49.662Z</time>
      </trkpt>
      <trkpt lat="42.46363" lon="2.51404">
        <ele>1669.9</ele>
        <time>2020-09-01T22:37:17.364Z</time>
      </trkpt>
      <trkpt lat="42.46357" lon="2.5141">
        <ele>1670.2</ele>
        <time>2020-09-01T22:37:48.124Z</time>
      </trkpt>
      <trkpt lat="42.4635" lon="2.51416">
        <ele>1670.4</ele>
        <time>2020-09-01T22:38:15.827Z</time>
      </trkpt>
      <trkpt lat="42.46344" lon="2.51423">
        <ele>1668.4</ele>
        <time>2020-09-01T22:38:18.662Z</time>
      </trkpt>
      <trkpt lat="42.46339" lon="2.5143">
        <ele>1668.1</ele>
        <time>2020-09-01T22:38:21.570Z</time>
      </trkpt>
      <trkpt lat="42.46334" lon="2.51438">
        <ele>1667.2</ele>
        <time>2020-09-01T22:38:24.341Z</time>
      </trkpt>
      <trkpt lat="42.4633" lon="2.51447">
        <ele>1665.3</ele>
        <time>2020-09-01T22:38:27.117Z</time>
      </trkpt>
      <trkpt lat="42.46326" lon="2.51455">
        <ele>1664.3</ele>
        <time>2020-09-01T22:38:29.671Z</time>
      </trkpt>
      <trkpt lat="42.46322" lon="2.51465">
        <ele>1663.2</ele>
        <time>2020-09-01T22:38:32.677Z</time>
      </trkpt>
      <trkpt lat="42.46319" lon="2.51472">
        <ele>1662.4</ele>
        <time>2020-09-01T22:38:34.816Z</time>
      </trkpt>
      <trkpt lat="42.46316" lon="2.51478">
        <ele>1661.9</ele>
        <time>2020-09-01T22:38:36.731Z</time>
      </trkpt>
      <trkpt lat="42.46312" lon="2.51487">
        <ele>1661.3</ele>
        <time>2020-09-01T22:38:39.507Z</time>
      </trkpt>
      <trkpt lat="42.46313" lon="2.51478">
        <ele>1662</ele>
        <time>2020-09-01T22:39:26.960Z</time>
      </trkpt>
      <trkpt lat="42.46315" lon="2.5147">
        <ele>1662.6</ele>
        <time>2020-09-01T22:40:07.700Z</time>
      </trkpt>
      <trkpt lat="42.46317" lon="2.51464">
        <ele>1663.2</ele>
        <time>2020-09-01T22:40:50.393Z</time>
      </trkpt>
      <trkpt lat="42.4632" lon="2.51458">
        <ele>1663.8</ele>
        <time>2020-09-01T22:41:31.508Z</time>
      </trkpt>
      <trkpt lat="42.46331" lon="2.51433">
        <ele>1667.3</ele>
        <time>2020-09-01T22:45:07.280Z</time>
      </trkpt>
      <trkpt lat="42.46339" lon="2.51416">
        <ele>1670.8</ele>
        <time>2020-09-01T22:47:36.748Z</time>
      </trkpt>
      <trkpt lat="42.4635" lon="2.51392">
        <ele>1670.8</ele>
        <time>2020-09-01T22:48:31.047Z</time>
      </trkpt>
      <trkpt lat="42.46357" lon="2.51373">
        <ele>1671.2</ele>
        <time>2020-09-01T22:49:24.318Z</time>
      </trkpt>
      <trkpt lat="42.46363" lon="2.51355">
        <ele>1671.7</ele>
        <time>2020-09-01T22:50:19.677Z</time>
      </trkpt>
      <trkpt lat="42.46373" lon="2.51327">
        <ele>1674.8</ele>
        <time>2020-09-01T22:54:10.269Z</time>
      </trkpt>
      <trkpt lat="42.46374" lon="2.51321">
        <ele>1674.7</ele>
        <time>2020-09-01T22:54:12.519Z</time>
      </trkpt>
      <trkpt lat="42.46374" lon="2.51318">
        <ele>1674.7</ele>
        <time>2020-09-01T22:54:18.284Z</time>
      </trkpt>
      <trkpt lat="42.46374" lon="2.51316">
        <ele>1674.8</ele>
        <time>2020-09-01T22:54:25.891Z</time>
      </trkpt>
      <trkpt lat="42.46373" lon="2.51313">
        <ele>1675</ele>
        <time>2020-09-01T22:54:39.929Z</time>
      </trkpt>
      <trkpt lat="42.46372" lon="2.51311">
        <ele>1675.2</ele>
        <time>2020-09-01T22:54:53.634Z</time>
      </trkpt>
      <trkpt lat="42.4637" lon="2.51309">
        <ele>1675.5</ele>
        <time>2020-09-01T22:55:14.727Z</time>
      </trkpt>
      <trkpt lat="42.46366" lon="2.51307">
        <ele>1675.9</ele>
        <time>2020-09-01T22:55:41.969Z</time>
      </trkpt>
      <trkpt lat="42.46362" lon="2.51305">
        <ele>1676.4</ele>
        <time>2020-09-01T22:56:16.698Z</time>
      </trkpt>
      <trkpt lat="42.46357" lon="2.51302">
        <ele>1677</ele>
        <time>2020-09-01T22:56:57.620Z</time>
      </trkpt>
      <trkpt lat="42.46352" lon="2.51298">
        <ele>1677.5</ele>
        <time>2020-09-01T22:57:32.265Z</time>
      </trkpt>
      <trkpt lat="42.46347" lon="2.51294">
        <ele>1678</ele>
        <time>2020-09-01T22:58:06.910Z</time>
      </trkpt>
      <trkpt lat="42.46343" lon="2.51288">
        <ele>1678.8</ele>
        <time>2020-09-01T22:59:06.855Z</time>
      </trkpt>
      <trkpt lat="42.46339" lon="2.51281">
        <ele>1679.7</ele>
        <time>2020-09-01T23:00:12.488Z</time>
      </trkpt>
      <trkpt lat="42.46336" lon="2.51274">
        <ele>1681</ele>
        <time>2020-09-01T23:01:12.497Z</time>
      </trkpt>
      <trkpt lat="42.46333" lon="2.51267">
        <ele>1684.1</ele>
        <time>2020-09-01T23:02:12.505Z</time>
      </trkpt>
      <trkpt lat="42.4633" lon="2.51259">
        <ele>1685.7</ele>
        <time>2020-09-01T23:03:19.026Z</time>
      </trkpt>
      <trkpt lat="42.46328" lon="2.51252">
        <ele>1686.8</ele>
        <time>2020-09-01T23:04:14.670Z</time>
      </trkpt>
      <trkpt lat="42.46325" lon="2.51245">
        <ele>1688.6</ele>
        <time>2020-09-01T23:05:14.678Z</time>
      </trkpt>
      <trkpt lat="42.46322" lon="2.51239">
        <ele>1688.5</ele>
        <time>2020-09-01T23:05:17.435Z</time>
      </trkpt>
      <trkpt lat="42.46319" lon="2.51233">
        <ele>1688.5</ele>
        <time>2020-09-01T23:05:31.364Z</time>
      </trkpt>
      <trkpt lat="42.46315" lon="2.51228">
        <ele>1688.5</ele>
        <time>2020-09-01T23:05:45.538Z</time>
      </trkpt>
      <trkpt lat="42.46312" lon="2.51224">
        <ele>1688.5</ele>
        <time>2020-09-01T23:05:56.500Z</time>
      </trkpt>
      <trkpt lat="42.46311" lon="2.51219">
        <ele>1688.7</ele>
        <time>2020-09-01T23:06:14.179Z</time>
      </trkpt>
      <trkpt lat="42.4631" lon="2.51214">
        <ele>1689</ele>
        <time>2020-09-01T23:06:35.584Z</time>
      </trkpt>
      <trkpt lat="42.46309" lon="2.51206">
        <ele>1689.4</ele>
        <time>2020-09-01T23:07:06.228Z</time>
      </trkpt>
      <trkpt lat="42.46307" lon="2.512">
        <ele>1689.8</ele>
        <time>2020-09-01T23:07:34.304Z</time>
      </trkpt>
      <trkpt lat="42.46304" lon="2.51193">
        <ele>1690.1</ele>
        <time>2020-09-01T23:08:01.549Z</time>
      </trkpt>
      <trkpt lat="42.46301" lon="2.51187">
        <ele>1690.3</ele>
        <time>2020-09-01T23:08:22.738Z</time>
      </trkpt>
      <trkpt lat="42.46297" lon="2.5118">
        <ele>1690.4</ele>
        <time>2020-09-01T23:08:42.529Z</time>
      </trkpt>
      <trkpt lat="42.46291" lon="2.5117">
        <ele>1690.3</ele>
        <time>2020-09-01T23:08:47.961Z</time>
      </trkpt>
      <trkpt lat="42.46286" lon="2.51161">
        <ele>1698</ele>
        <time>2020-09-01T23:10:11.476Z</time>
      </trkpt>
      <trkpt lat="42.46281" lon="2.51152">
        <ele>1698.1</ele>
        <time>2020-09-01T23:10:35.809Z</time>
      </trkpt>
      <trkpt lat="42.46276" lon="2.51142">
        <ele>1698.4</ele>
        <time>2020-09-01T23:11:09.375Z</time>
      </trkpt>
      <trkpt lat="42.46272" lon="2.51133">
        <ele>1699</ele>
        <time>2020-09-01T23:11:52.410Z</time>
      </trkpt>
      <trkpt lat="42.46269" lon="2.51126">
        <ele>1699.5</ele>
        <time>2020-09-01T23:12:27.329Z</time>
      </trkpt>
      <trkpt lat="42.46266" lon="2.51117">
        <ele>1700.1</ele>
        <time>2020-09-01T23:13:09.444Z</time>
      </trkpt>
      <trkpt lat="42.46262" lon="2.51107">
        <ele>1700.7</ele>
        <time>2020-09-01T23:13:53.936Z</time>
      </trkpt>
      <trkpt lat="42.4626" lon="2.51097">
        <ele>1701</ele>
        <time>2020-09-01T23:14:25.024Z</time>
      </trkpt>
      <trkpt lat="42.46259" lon="2.51087">
        <ele>1701.2</ele>
        <time>2020-09-01T23:14:50.748Z</time>
      </trkpt>
      <trkpt lat="42.46258" lon="2.51076">
        <ele>1706</ele>
        <time>2020-09-01T23:16:12.903Z</time>
      </trkpt>
      <trkpt lat="42.46257" lon="2.51068">
        <ele>1707.9</ele>
        <time>2020-09-01T23:17:13.049Z</time>
      </trkpt>
      <trkpt lat="42.46257" lon="2.51059">
        <ele>1710</ele>
        <time>2020-09-01T23:18:19.762Z</time>
      </trkpt>
      <trkpt lat="42.46256" lon="2.51048">
        <ele>1711.7</ele>
        <time>2020-09-01T23:19:41.917Z</time>
      </trkpt>
      <trkpt lat="42.46255" lon="2.51039">
        <ele>1712.8</ele>
        <time>2020-09-01T23:20:49.383Z</time>
      </trkpt>
      <trkpt lat="42.46254" lon="2.5103">
        <ele>1713.6</ele>
        <time>2020-09-01T23:21:45.303Z</time>
      </trkpt>
      <trkpt lat="42.46251" lon="2.51021">
        <ele>1714</ele>
        <time>2020-09-01T23:22:19.591Z</time>
      </trkpt>
      <trkpt lat="42.46249" lon="2.51012">
        <ele>1708</ele>
        <time>2020-09-01T23:22:22.075Z</time>
      </trkpt>
      <trkpt lat="42.46246" lon="2.51001">
        <ele>1711.3</ele>
        <time>2020-09-01T23:23:49.007Z</time>
      </trkpt>
      <trkpt lat="42.46243" lon="2.50993">
        <ele>1715.1</ele>
        <time>2020-09-01T23:24:55.529Z</time>
      </trkpt>
      <trkpt lat="42.4624" lon="2.50985">
        <ele>1715.9</ele>
        <time>2020-09-01T23:25:51.806Z</time>
      </trkpt>
      <trkpt lat="42.46237" lon="2.50977">
        <ele>1716.8</ele>
        <time>2020-09-01T23:26:58.328Z</time>
      </trkpt>
      <trkpt lat="42.46232" lon="2.50969">
        <ele>1717.7</ele>
        <time>2020-09-01T23:28:00.662Z</time>
      </trkpt>
      <trkpt lat="42.46228" lon="2.50962">
        <ele>1718.5</ele>
        <time>2020-09-01T23:28:57.320Z</time>
      </trkpt>
      <trkpt lat="42.46224" lon="2.50955">
        <ele>1719.2</ele>
        <time>2020-09-01T23:29:44.892Z</time>
      </trkpt>
      <trkpt lat="42.46219" lon="2.50947">
        <ele>1720</ele>
        <time>2020-09-01T23:30:39.101Z</time>
      </trkpt>
      <trkpt lat="42.46215" lon="2.50941">
        <ele>1720.5</ele>
        <time>2020-09-01T23:31:14.009Z</time>
      </trkpt>
      <trkpt lat="42.46211" lon="2.50934">
        <ele>1720.7</ele>
        <time>2020-09-01T23:31:37.658Z</time>
      </trkpt>
      <trkpt lat="42.46207" lon="2.50928">
        <ele>1720.9</ele>
        <time>2020-09-01T23:32:00.087Z</time>
      </trkpt>
      <trkpt lat="42.46204" lon="2.50921">
        <ele>1720.9</ele>
        <time>2020-09-01T23:32:15.645Z</time>
      </trkpt>
      <trkpt lat="42.462" lon="2.50916">
        <ele>1735.1</ele>
        <time>2020-09-01T23:33:10.317Z</time>
      </trkpt>
      <trkpt lat="42.46195" lon="2.5091">
        <ele>1734.5</ele>
        <time>2020-09-01T23:33:12.709Z</time>
      </trkpt>
      <trkpt lat="42.46192" lon="2.50906">
        <ele>1734.2</ele>
        <time>2020-09-01T23:33:14.216Z</time>
      </trkpt>
      <trkpt lat="42.46186" lon="2.50901">
        <ele>1733.6</ele>
        <time>2020-09-01T23:33:16.739Z</time>
      </trkpt>
      <trkpt lat="42.46181" lon="2.50898">
        <ele>1733.2</ele>
        <time>2020-09-01T23:33:18.697Z</time>
      </trkpt>
      <trkpt lat="42.46177" lon="2.50896">
        <ele>1733.1</ele>
        <time>2020-09-01T23:33:20.778Z</time>
      </trkpt>
      <trkpt lat="42.46171" lon="2.50891">
        <ele>1733.7</ele>
        <time>2020-09-01T23:34:02.473Z</time>
      </trkpt>
      <trkpt lat="42.46166" lon="2.50887">
        <ele>1723.2</ele>
        <time>2020-09-01T23:34:04.553Z</time>
      </trkpt>
      <trkpt lat="42.46161" lon="2.50881">
        <ele>1723.8</ele>
        <time>2020-09-01T23:34:45.719Z</time>
      </trkpt>
      <trkpt lat="42.46156" lon="2.50874">
        <ele>1724.7</ele>
        <time>2020-09-01T23:35:50.270Z</time>
      </trkpt>
      <trkpt lat="42.46153" lon="2.50867">
        <ele>1725.6</ele>
        <time>2020-09-01T23:36:50.279Z</time>
      </trkpt>
      <trkpt lat="42.46149" lon="2.50857">
        <ele>1726.9</ele>
        <time>2020-09-01T23:38:14.601Z</time>
      </trkpt>
      <trkpt lat="42.46147" lon="2.5085">
        <ele>1727.9</ele>
        <time>2020-09-01T23:39:10.246Z</time>
      </trkpt>
      <trkpt lat="42.46144" lon="2.50839">
        <ele>1728.6</ele>
        <time>2020-09-01T23:39:59.663Z</time>
      </trkpt>
      <trkpt lat="42.46141" lon="2.50828">
        <ele>1734.6</ele>
        <time>2020-09-01T23:41:26.597Z</time>
      </trkpt>
      <trkpt lat="42.46138" lon="2.50818">
        <ele>1734.2</ele>
        <time>2020-09-01T23:41:29.582Z</time>
      </trkpt>
      <trkpt lat="42.46136" lon="2.50806">
        <ele>1734</ele>
        <time>2020-09-01T23:41:34.082Z</time>
      </trkpt>
      <trkpt lat="42.46134" lon="2.50796">
        <ele>1734.1</ele>
        <time>2020-09-01T23:41:56.705Z</time>
      </trkpt>
      <trkpt lat="42.46132" lon="2.50785">
        <ele>1734.5</ele>
        <time>2020-09-01T23:42:34.249Z</time>
      </trkpt>
      <trkpt lat="42.46131" lon="2.50774">
        <ele>1735</ele>
        <time>2020-09-01T23:43:14.429Z</time>
      </trkpt>
      <trkpt lat="42.4613" lon="2.50762">
        <ele>1735.5</ele>
        <time>2020-09-01T23:43:56.706Z</time>
      </trkpt>
      <trkpt lat="42.4613" lon="2.50749">
        <ele>1739.2</ele>
        <time>2020-09-01T23:45:33.072Z</time>
      </trkpt>
      <trkpt lat="42.4613" lon="2.50739">
        <ele>1739.2</ele>
        <time>2020-09-01T23:45:52.290Z</time>
      </trkpt>
      <trkpt lat="42.4613" lon="2.50728">
        <ele>1739.2</ele>
        <time>2020-09-01T23:46:13.430Z</time>
      </trkpt>
      <trkpt lat="42.46131" lon="2.50717">
        <ele>1739.3</ele>
        <time>2020-09-01T23:46:37.417Z</time>
      </trkpt>
      <trkpt lat="42.46132" lon="2.50707">
        <ele>1739.6</ele>
        <time>2020-09-01T23:47:08.158Z</time>
      </trkpt>
      <trkpt lat="42.46133" lon="2.50697">
        <ele>1740.2</ele>
        <time>2020-09-01T23:47:50.571Z</time>
      </trkpt>
      <trkpt lat="42.46135" lon="2.50689">
        <ele>1741.1</ele>
        <time>2020-09-01T23:48:53.186Z</time>
      </trkpt>
      <trkpt lat="42.46137" lon="2.50679">
        <ele>1742.3</ele>
        <time>2020-09-01T23:50:09.989Z</time>
      </trkpt>
      <trkpt lat="42.46139" lon="2.50669">
        <ele>1743.6</ele>
        <time>2020-09-01T23:51:26.792Z</time>
      </trkpt>
      <trkpt lat="42.4614" lon="2.50659">
        <ele>1748</ele>
        <time>2020-09-01T23:52:41.597Z</time>
      </trkpt>
      <trkpt lat="42.46141" lon="2.5065">
        <ele>1748.2</ele>
        <time>2020-09-01T23:53:05.651Z</time>
      </trkpt>
      <trkpt lat="42.46142" lon="2.5064">
        <ele>1748.3</ele>
        <time>2020-09-01T23:53:27.766Z</time>
      </trkpt>
      <trkpt lat="42.46143" lon="2.50632">
        <ele>1748.7</ele>
        <time>2020-09-01T23:53:58.410Z</time>
      </trkpt>
      <trkpt lat="42.46143" lon="2.50622">
        <ele>1749.7</ele>
        <time>2020-09-01T23:55:12.538Z</time>
      </trkpt>
      <trkpt lat="42.46143" lon="2.50615">
        <ele>1750.6</ele>
        <time>2020-09-01T23:56:04.427Z</time>
      </trkpt>
      <trkpt lat="42.46144" lon="2.50608">
        <ele>1752</ele>
        <time>2020-09-01T23:56:57.280Z</time>
      </trkpt>
      <trkpt lat="42.46143" lon="2.50601">
        <ele>1753.3</ele>
        <time>2020-09-01T23:57:50.133Z</time>
      </trkpt>
      <trkpt lat="42.46141" lon="2.50593">
        <ele>1753.9</ele>
        <time>2020-09-01T23:58:30.873Z</time>
      </trkpt>
      <trkpt lat="42.4614" lon="2.50587">
        <ele>1753.7</ele>
        <time>2020-09-01T23:58:32.669Z</time>
      </trkpt>
      <trkpt lat="42.46138" lon="2.50578">
        <ele>1760</ele>
        <time>2020-09-01T23:59:42.345Z</time>
      </trkpt>
      <trkpt lat="42.46136" lon="2.50564">
        <ele>1759.1</ele>
        <time>2020-09-01T23:59:46.113Z</time>
      </trkpt>
      <trkpt lat="42.46134" lon="2.5055">
        <ele>1758.8</ele>
        <time>2020-09-01T23:59:50.969Z</time>
      </trkpt>
      <trkpt lat="42.46132" lon="2.5054">
        <ele>1759.1</ele>
        <time>2020-09-02T00:00:22.058Z</time>
      </trkpt>
      <trkpt lat="42.46131" lon="2.50531">
        <ele>1759.7</ele>
        <time>2020-09-02T00:01:03.271Z</time>
      </trkpt>
      <trkpt lat="42.4613" lon="2.50522">
        <ele>1760.2</ele>
        <time>2020-09-02T00:01:39.694Z</time>
      </trkpt>
      <trkpt lat="42.46128" lon="2.50515">
        <ele>1760</ele>
        <time>2020-09-02T00:01:42.059Z</time>
      </trkpt>
      <trkpt lat="42.46126" lon="2.50509">
        <ele>1759.5</ele>
        <time>2020-09-02T00:01:43.799Z</time>
      </trkpt>
      <trkpt lat="42.46124" lon="2.50502">
        <ele>1758.6</ele>
        <time>2020-09-02T00:01:45.782Z</time>
      </trkpt>
      <trkpt lat="42.46121" lon="2.50493">
        <ele>1762.2</ele>
        <time>2020-09-02T00:02:58.991Z</time>
      </trkpt>
      <trkpt lat="42.46118" lon="2.50488">
        <ele>1761.5</ele>
        <time>2020-09-02T00:03:00.694Z</time>
      </trkpt>
      <trkpt lat="42.46116" lon="2.50482">
        <ele>1761</ele>
        <time>2020-09-02T00:03:02.434Z</time>
      </trkpt>
      <trkpt lat="42.46115" lon="2.50475">
        <ele>1761</ele>
        <time>2020-09-02T00:03:16.137Z</time>
      </trkpt>
      <trkpt lat="42.46115" lon="2.50468">
        <ele>1761.5</ele>
        <time>2020-09-02T00:03:50.070Z</time>
      </trkpt>
      <trkpt lat="42.46117" lon="2.5046">
        <ele>1762.3</ele>
        <time>2020-09-02T00:04:48.421Z</time>
      </trkpt>
      <trkpt lat="42.46119" lon="2.50453">
        <ele>1762.9</ele>
        <time>2020-09-02T00:05:29.257Z</time>
      </trkpt>
      <trkpt lat="42.46123" lon="2.50438">
        <ele>1764</ele>
        <time>2020-09-02T00:06:44.211Z</time>
      </trkpt>
      <trkpt lat="42.46125" lon="2.50426">
        <ele>1764.8</ele>
        <time>2020-09-02T00:07:39.327Z</time>
      </trkpt>
      <trkpt lat="42.46126" lon="2.50421">
        <ele>1765</ele>
        <time>2020-09-02T00:07:57.006Z</time>
      </trkpt>
      <trkpt lat="42.46127" lon="2.50418">
        <ele>1765.6</ele>
        <time>2020-09-02T00:08:21.409Z</time>
      </trkpt>
      <trkpt lat="42.46129" lon="2.50415">
        <ele>1760.2</ele>
        <time>2020-09-02T00:08:22.477Z</time>
      </trkpt>
      <trkpt lat="42.4613" lon="2.50412">
        <ele>1760.5</ele>
        <time>2020-09-02T00:08:43.823Z</time>
      </trkpt>
      <trkpt lat="42.46131" lon="2.50409">
        <ele>1760.5</ele>
        <time>2020-09-02T00:08:50.150Z</time>
      </trkpt>
      <trkpt lat="42.46132" lon="2.50401">
        <ele>1760</ele>
        <time>2020-09-02T00:08:52.294Z</time>
      </trkpt>
      <trkpt lat="42.4613" lon="2.50403">
        <ele>1759.6</ele>
        <time>2020-09-02T00:08:53.184Z</time>
      </trkpt>
      <trkpt lat="42.46129" lon="2.50404">
        <ele>1759.3</ele>
        <time>2020-09-02T00:08:53.630Z</time>
      </trkpt>
      <trkpt lat="42.46128" lon="2.50405">
        <ele>1759.1</ele>
        <time>2020-09-02T00:08:54.075Z</time>
      </trkpt>
      <trkpt lat="42.46126" lon="2.50406">
        <ele>1758.6</ele>
        <time>2020-09-02T00:08:54.838Z</time>
      </trkpt>
      <trkpt lat="42.46125" lon="2.50405">
        <ele>1758.2</ele>
        <time>2020-09-02T00:08:55.283Z</time>
      </trkpt>
      <trkpt lat="42.46125" lon="2.50403">
        <ele>1757.8</ele>
        <time>2020-09-02T00:08:55.812Z</time>
      </trkpt>
      <trkpt lat="42.46123" lon="2.50402">
        <ele>1757.4</ele>
        <time>2020-09-02T00:08:56.575Z</time>
      </trkpt>
      <trkpt lat="42.46123" lon="2.50404">
        <ele>1757.3</ele>
        <time>2020-09-02T00:08:57.104Z</time>
      </trkpt>
      <trkpt lat="42.46122" lon="2.50405">
        <ele>1757.2</ele>
        <time>2020-09-02T00:08:57.549Z</time>
      </trkpt>
      <trkpt lat="42.46121" lon="2.50407">
        <ele>1757.1</ele>
        <time>2020-09-02T00:08:58.185Z</time>
      </trkpt>
      <trkpt lat="42.46121" lon="2.50408">
        <ele>1757</ele>
        <time>2020-09-02T00:08:58.449Z</time>
      </trkpt>
      <trkpt lat="42.4612" lon="2.5041">
        <ele>1756.9</ele>
        <time>2020-09-02T00:08:59.085Z</time>
      </trkpt>
      <trkpt lat="42.4612" lon="2.50411">
        <ele>1756.7</ele>
        <time>2020-09-02T00:08:59.349Z</time>
      </trkpt>
      <trkpt lat="42.46118" lon="2.50412">
        <ele>1756.3</ele>
        <time>2020-09-02T00:09:00.112Z</time>
      </trkpt>
      <trkpt lat="42.46118" lon="2.5041">
        <ele>1756.1</ele>
        <time>2020-09-02T00:09:00.641Z</time>
      </trkpt>
      <trkpt lat="42.46117" lon="2.50406">
        <ele>1755.9</ele>
        <time>2020-09-02T00:09:01.683Z</time>
      </trkpt>
      <trkpt lat="42.46118" lon="2.50401">
        <ele>1755.7</ele>
        <time>2020-09-02T00:09:03.090Z</time>
      </trkpt>
      <trkpt lat="42.46119" lon="2.50397">
        <ele>1755.8</ele>
        <time>2020-09-02T00:09:14.586Z</time>
      </trkpt>
      <trkpt lat="42.4612" lon="2.50395">
        <ele>1755.8</ele>
        <time>2020-09-02T00:09:19.230Z</time>
      </trkpt>
      <trkpt lat="42.46119" lon="2.50394">
        <ele>1755.4</ele>
        <time>2020-09-02T00:09:19.675Z</time>
      </trkpt>
      <trkpt lat="42.46117" lon="2.50397">
        <ele>1755.3</ele>
        <time>2020-09-02T00:09:20.982Z</time>
      </trkpt>
      <trkpt lat="42.46116" lon="2.50402">
        <ele>1755.2</ele>
        <time>2020-09-02T00:09:22.791Z</time>
      </trkpt>
      <trkpt lat="42.46114" lon="2.50408">
        <ele>1755</ele>
        <time>2020-09-02T00:09:24.767Z</time>
      </trkpt>
      <trkpt lat="42.46113" lon="2.50414">
        <ele>1754.9</ele>
        <time>2020-09-02T00:09:27.017Z</time>
      </trkpt>
      <trkpt lat="42.46112" lon="2.50419">
        <ele>1760.1</ele>
        <time>2020-09-02T00:10:05.419Z</time>
      </trkpt>
      <trkpt lat="42.46111" lon="2.50423">
        <ele>1759.8</ele>
        <time>2020-09-02T00:10:06.535Z</time>
      </trkpt>
      <trkpt lat="42.4611" lon="2.50427">
        <ele>1759.6</ele>
        <time>2020-09-02T00:10:07.577Z</time>
      </trkpt>
      <trkpt lat="42.46106" lon="2.50435">
        <ele>1759</ele>
        <time>2020-09-02T00:10:10.131Z</time>
      </trkpt>
      <trkpt lat="42.46106" lon="2.50429">
        <ele>1758.3</ele>
        <time>2020-09-02T00:10:11.716Z</time>
      </trkpt>
      <trkpt lat="42.46104" lon="2.50402">
        <ele>1752.2</ele>
        <time>2020-09-02T00:10:18.887Z</time>
      </trkpt>
      <trkpt lat="42.46103" lon="2.504">
        <ele>1752.2</ele>
        <time>2020-09-02T00:10:23.530Z</time>
      </trkpt>
      <trkpt lat="42.46103" lon="2.50398">
        <ele>1752.1</ele>
        <time>2020-09-02T00:10:24.058Z</time>
      </trkpt>
      <trkpt lat="42.46101" lon="2.504">
        <ele>1751.7</ele>
        <time>2020-09-02T00:10:24.949Z</time>
      </trkpt>
      <trkpt lat="42.46099" lon="2.50406">
        <ele>1751.2</ele>
        <time>2020-09-02T00:10:26.688Z</time>
      </trkpt>
      <trkpt lat="42.46097" lon="2.50414">
        <ele>1750.3</ele>
        <time>2020-09-02T00:10:28.920Z</time>
      </trkpt>
      <trkpt lat="42.46094" lon="2.50422">
        <ele>1753</ele>
        <time>2020-09-02T00:11:35.444Z</time>
      </trkpt>
      <trkpt lat="42.46091" lon="2.5043">
        <ele>1754</ele>
        <time>2020-09-02T00:12:41.968Z</time>
      </trkpt>
      <trkpt lat="42.46089" lon="2.50438">
        <ele>1755.5</ele>
        <time>2020-09-02T00:13:44.583Z</time>
      </trkpt>
      <trkpt lat="42.46087" lon="2.50447">
        <ele>1756.3</ele>
        <time>2020-09-02T00:14:39.833Z</time>
      </trkpt>
      <trkpt lat="42.46085" lon="2.50458">
        <ele>1756.1</ele>
        <time>2020-09-02T00:14:43.889Z</time>
      </trkpt>
      <trkpt lat="42.46083" lon="2.50467">
        <ele>1727.9</ele>
        <time>2020-09-02T00:14:46.373Z</time>
      </trkpt>
      <trkpt lat="42.46081" lon="2.50474">
        <ele>1728.2</ele>
        <time>2020-09-02T00:15:12.307Z</time>
      </trkpt>
      <trkpt lat="42.46081" lon="2.50479">
        <ele>1729</ele>
        <time>2020-09-02T00:15:49.371Z</time>
      </trkpt>
      <trkpt lat="42.4608" lon="2.50482">
        <ele>1729.5</ele>
        <time>2020-09-02T00:16:13.774Z</time>
      </trkpt>
      <trkpt lat="42.46078" lon="2.50482">
        <ele>1729.3</ele>
        <time>2020-09-02T00:16:14.491Z</time>
      </trkpt>
      <trkpt lat="42.46077" lon="2.50479">
        <ele>1728.4</ele>
        <time>2020-09-02T00:16:15.361Z</time>
      </trkpt>
      <trkpt lat="42.46075" lon="2.50471">
        <ele>1727.3</ele>
        <time>2020-09-02T00:16:17.593Z</time>
      </trkpt>
      <trkpt lat="42.46074" lon="2.50464">
        <ele>1726.7</ele>
        <time>2020-09-02T00:16:19.477Z</time>
      </trkpt>
      <trkpt lat="42.46072" lon="2.50456">
        <ele>1726.8</ele>
        <time>2020-09-02T00:16:38.508Z</time>
      </trkpt>
      <trkpt lat="42.4607" lon="2.50447">
        <ele>1727.7</ele>
        <time>2020-09-02T00:17:44.697Z</time>
      </trkpt>
      <trkpt lat="42.46069" lon="2.50438">
        <ele>1729.2</ele>
        <time>2020-09-02T00:18:52.165Z</time>
      </trkpt>
      <trkpt lat="42.46067" lon="2.50428">
        <ele>1731.1</ele>
        <time>2020-09-02T00:20:08.968Z</time>
      </trkpt>
      <trkpt lat="42.46066" lon="2.50417">
        <ele>1732</ele>
        <time>2020-09-02T00:21:10.387Z</time>
      </trkpt>
      <trkpt lat="42.46065" lon="2.50405">
        <ele>1727.2</ele>
        <time>2020-09-02T00:21:13.578Z</time>
      </trkpt>
      <trkpt lat="42.46065" lon="2.50393">
        <ele>1723.6</ele>
        <time>2020-09-02T00:21:16.749Z</time>
      </trkpt>
      <trkpt lat="42.46064" lon="2.50384">
        <ele>1721.1</ele>
        <time>2020-09-02T00:21:19.154Z</time>
      </trkpt>
      <trkpt lat="42.46064" lon="2.50373">
        <ele>1719.4</ele>
        <time>2020-09-02T00:21:22.061Z</time>
      </trkpt>
      <trkpt lat="42.46064" lon="2.50363">
        <ele>1718.8</ele>
        <time>2020-09-02T00:21:24.703Z</time>
      </trkpt>
      <trkpt lat="42.46066" lon="2.50355">
        <ele>1719</ele>
        <time>2020-09-02T00:21:47.696Z</time>
      </trkpt>
      <trkpt lat="42.46067" lon="2.50348">
        <ele>1719.6</ele>
        <time>2020-09-02T00:22:28.990Z</time>
      </trkpt>
      <trkpt lat="42.46068" lon="2.50341">
        <ele>1720.3</ele>
        <time>2020-09-02T00:23:21.573Z</time>
      </trkpt>
      <trkpt lat="42.46069" lon="2.50337">
        <ele>1721</ele>
        <time>2020-09-02T00:23:52.880Z</time>
      </trkpt>
      <trkpt lat="42.4607" lon="2.50333">
        <ele>1712.7</ele>
        <time>2020-09-02T00:23:53.996Z</time>
      </trkpt>
      <trkpt lat="42.4607" lon="2.50331">
        <ele>1712.6</ele>
        <time>2020-09-02T00:23:54.525Z</time>
      </trkpt>
      <trkpt lat="42.4607" lon="2.50329">
        <ele>1711.8</ele>
        <time>2020-09-02T00:23:55.053Z</time>
      </trkpt>
      <trkpt lat="42.46068" lon="2.50329">
        <ele>1710.5</ele>
        <time>2020-09-02T00:23:55.769Z</time>
      </trkpt>
      <trkpt lat="42.46066" lon="2.5033">
        <ele>1709.3</ele>
        <time>2020-09-02T00:23:56.533Z</time>
      </trkpt>
      <trkpt lat="42.46062" lon="2.50334">
        <ele>1718.7</ele>
        <time>2020-09-02T00:24:46.479Z</time>
      </trkpt>
      <trkpt lat="42.46055" lon="2.50342">
        <ele>1716.2</ele>
        <time>2020-09-02T00:24:49.758Z</time>
      </trkpt>
      <trkpt lat="42.46048" lon="2.50351">
        <ele>1714.4</ele>
        <time>2020-09-02T00:24:53.214Z</time>
      </trkpt>
      <trkpt lat="42.46043" lon="2.50359">
        <ele>1713.4</ele>
        <time>2020-09-02T00:24:55.985Z</time>
      </trkpt>
      <trkpt lat="42.46039" lon="2.50369">
        <ele>1713</ele>
        <time>2020-09-02T00:24:59.202Z</time>
      </trkpt>
      <trkpt lat="42.46034" lon="2.50379">
        <ele>1712.6</ele>
        <time>2020-09-02T00:25:02.705Z</time>
      </trkpt>
      <trkpt lat="42.46031" lon="2.50388">
        <ele>1712.2</ele>
        <time>2020-09-02T00:25:05.329Z</time>
      </trkpt>
      <trkpt lat="42.46027" lon="2.50398">
        <ele>1711.2</ele>
        <time>2020-09-02T00:25:08.335Z</time>
      </trkpt>
      <trkpt lat="42.46024" lon="2.50409">
        <ele>1709.7</ele>
        <time>2020-09-02T00:25:11.434Z</time>
      </trkpt>
      <trkpt lat="42.4602" lon="2.5042">
        <ele>1710.6</ele>
        <time>2020-09-02T00:26:12.414Z</time>
      </trkpt>
      <trkpt lat="42.46017" lon="2.50429">
        <ele>1710.4</ele>
        <time>2020-09-02T00:26:15.816Z</time>
      </trkpt>
      <trkpt lat="42.46014" lon="2.50439">
        <ele>1711.2</ele>
        <time>2020-09-02T00:27:10.006Z</time>
      </trkpt>
      <trkpt lat="42.46011" lon="2.5045">
        <ele>1712.1</ele>
        <time>2020-09-02T00:28:11.009Z</time>
      </trkpt>
      <trkpt lat="42.46009" lon="2.50461">
        <ele>1712</ele>
        <time>2020-09-02T00:28:15.694Z</time>
      </trkpt>
      <trkpt lat="42.46008" lon="2.50477">
        <ele>1709.8</ele>
        <time>2020-09-02T00:28:19.937Z</time>
      </trkpt>
      <trkpt lat="42.46008" lon="2.50491">
        <ele>1705.2</ele>
        <time>2020-09-02T00:28:23.636Z</time>
      </trkpt>
      <trkpt lat="42.46008" lon="2.50504">
        <ele>1701</ele>
        <time>2020-09-02T00:28:27.071Z</time>
      </trkpt>
      <trkpt lat="42.46009" lon="2.50516">
        <ele>1703.2</ele>
        <time>2020-09-02T00:29:56.592Z</time>
      </trkpt>
      <trkpt lat="42.4601" lon="2.50528">
        <ele>1704</ele>
        <time>2020-09-02T00:30:51.487Z</time>
      </trkpt>
      <trkpt lat="42.4601" lon="2.50538">
        <ele>1703.6</ele>
        <time>2020-09-02T00:30:54.160Z</time>
      </trkpt>
      <trkpt lat="42.46012" lon="2.50551">
        <ele>1701.7</ele>
        <time>2020-09-02T00:30:57.669Z</time>
      </trkpt>
      <trkpt lat="42.46013" lon="2.50562">
        <ele>1699.2</ele>
        <time>2020-09-02T00:31:00.598Z</time>
      </trkpt>
      <trkpt lat="42.46016" lon="2.50571">
        <ele>1697.3</ele>
        <time>2020-09-02T00:31:03.208Z</time>
      </trkpt>
      <trkpt lat="42.46018" lon="2.50577">
        <ele>1696.8</ele>
        <time>2020-09-02T00:31:04.948Z</time>
      </trkpt>
      <trkpt lat="42.46021" lon="2.50583">
        <ele>1697.5</ele>
        <time>2020-09-02T00:31:56.784Z</time>
      </trkpt>
      <trkpt lat="42.46024" lon="2.50589">
        <ele>1693.7</ele>
        <time>2020-09-02T00:31:58.699Z</time>
      </trkpt>
      <trkpt lat="42.46026" lon="2.50596">
        <ele>1694.8</ele>
        <time>2020-09-02T00:32:54.345Z</time>
      </trkpt>
      <trkpt lat="42.46026" lon="2.50603">
        <ele>1695.5</ele>
        <time>2020-09-02T00:33:46.235Z</time>
      </trkpt>
      <trkpt lat="42.46027" lon="2.50609">
        <ele>1695.8</ele>
        <time>2020-09-02T00:34:09.345Z</time>
      </trkpt>
      <trkpt lat="42.46027" lon="2.50617">
        <ele>1695.9</ele>
        <time>2020-09-02T00:34:27.544Z</time>
      </trkpt>
      <trkpt lat="42.46028" lon="2.50622">
        <ele>1696</ele>
        <time>2020-09-02T00:34:40.639Z</time>
      </trkpt>
      <trkpt lat="42.4603" lon="2.50627">
        <ele>1696.4</ele>
        <time>2020-09-02T00:35:07.827Z</time>
      </trkpt>
      <trkpt lat="42.46031" lon="2.50631">
        <ele>1696.5</ele>
        <time>2020-09-02T00:35:19.323Z</time>
      </trkpt>
      <trkpt lat="42.46031" lon="2.50636">
        <ele>1696.1</ele>
        <time>2020-09-02T00:35:20.644Z</time>
      </trkpt>
      <trkpt lat="42.46029" lon="2.5064">
        <ele>1695.2</ele>
        <time>2020-09-02T00:35:21.921Z</time>
      </trkpt>
      <trkpt lat="42.46025" lon="2.50645">
        <ele>1693.5</ele>
        <time>2020-09-02T00:35:23.870Z</time>
      </trkpt>
      <trkpt lat="42.46018" lon="2.50652">
        <ele>1689.8</ele>
        <time>2020-09-02T00:35:26.986Z</time>
      </trkpt>
      <trkpt lat="42.46013" lon="2.50658">
        <ele>1686.4</ele>
        <time>2020-09-02T00:35:29.378Z</time>
      </trkpt>
      <trkpt lat="42.46008" lon="2.50664">
        <ele>1681.9</ele>
        <time>2020-09-02T00:35:31.770Z</time>
      </trkpt>
      <trkpt lat="42.46003" lon="2.50671">
        <ele>1679.9</ele>
        <time>2020-09-02T00:35:34.344Z</time>
      </trkpt>
      <trkpt lat="42.46" lon="2.50677">
        <ele>1683.2</ele>
        <time>2020-09-02T00:36:28.074Z</time>
      </trkpt>
      <trkpt lat="42.45997" lon="2.50683">
        <ele>1671.7</ele>
        <time>2020-09-02T00:36:29.990Z</time>
      </trkpt>
      <trkpt lat="42.45992" lon="2.50688">
        <ele>1671.1</ele>
        <time>2020-09-02T00:36:32.215Z</time>
      </trkpt>
      <trkpt lat="42.45986" lon="2.50692">
        <ele>1670.4</ele>
        <time>2020-09-02T00:36:34.610Z</time>
      </trkpt>
      <trkpt lat="42.45977" lon="2.50695">
        <ele>1669.3</ele>
        <time>2020-09-02T00:36:37.930Z</time>
      </trkpt>
      <trkpt lat="42.45968" lon="2.50697">
        <ele>1667.8</ele>
        <time>2020-09-02T00:36:41.197Z</time>
      </trkpt>
      <trkpt lat="42.45954" lon="2.50702">
        <ele>1665.5</ele>
        <time>2020-09-02T00:36:46.382Z</time>
      </trkpt>
      <trkpt lat="42.45942" lon="2.50707">
        <ele>1664.2</ele>
        <time>2020-09-02T00:36:50.879Z</time>
      </trkpt>
      <trkpt lat="42.45932" lon="2.50712">
        <ele>1663.6</ele>
        <time>2020-09-02T00:36:54.675Z</time>
      </trkpt>
      <trkpt lat="42.45921" lon="2.50717">
        <ele>1663.5</ele>
        <time>2020-09-02T00:37:01.473Z</time>
      </trkpt>
      <trkpt lat="42.45912" lon="2.50721">
        <ele>1648.9</ele>
        <time>2020-09-02T00:37:04.865Z</time>
      </trkpt>
      <trkpt lat="42.45903" lon="2.50724">
        <ele>1648.8</ele>
        <time>2020-09-02T00:37:10.141Z</time>
      </trkpt>
      <trkpt lat="42.45894" lon="2.50726">
        <ele>1647.9</ele>
        <time>2020-09-02T00:37:13.407Z</time>
      </trkpt>
      <trkpt lat="42.45884" lon="2.50729">
        <ele>1646.4</ele>
        <time>2020-09-02T00:37:17.076Z</time>
      </trkpt>
      <trkpt lat="42.45875" lon="2.5073">
        <ele>1645.2</ele>
        <time>2020-09-02T00:37:20.310Z</time>
      </trkpt>
      <trkpt lat="42.45866" lon="2.50731">
        <ele>1644.1</ele>
        <time>2020-09-02T00:37:23.545Z</time>
      </trkpt>
      <trkpt lat="42.45857" lon="2.50732">
        <ele>1643.6</ele>
        <time>2020-09-02T00:37:26.785Z</time>
      </trkpt>
      <trkpt lat="42.45848" lon="2.50733">
        <ele>1643.4</ele>
        <time>2020-09-02T00:37:31.258Z</time>
      </trkpt>
      <trkpt lat="42.45838" lon="2.50733">
        <ele>1643.4</ele>
        <time>2020-09-02T00:37:57.308Z</time>
      </trkpt>
      <trkpt lat="42.45829" lon="2.50734">
        <ele>1633.3</ele>
        <time>2020-09-02T00:38:00.542Z</time>
      </trkpt>
      <trkpt lat="42.45821" lon="2.50736">
        <ele>1632</ele>
        <time>2020-09-02T00:38:03.456Z</time>
      </trkpt>
      <trkpt lat="42.45813" lon="2.50739">
        <ele>1629.9</ele>
        <time>2020-09-02T00:38:06.429Z</time>
      </trkpt>
      <trkpt lat="42.45806" lon="2.50742">
        <ele>1627.9</ele>
        <time>2020-09-02T00:38:09.059Z</time>
      </trkpt>
      <trkpt lat="42.45798" lon="2.50746">
        <ele>1625.8</ele>
        <time>2020-09-02T00:38:12.113Z</time>
      </trkpt>
      <trkpt lat="42.4579" lon="2.50752">
        <ele>1638.5</ele>
        <time>2020-09-02T00:39:43.982Z</time>
      </trkpt>
      <trkpt lat="42.45782" lon="2.50759">
        <ele>1636.7</ele>
        <time>2020-09-02T00:39:47.393Z</time>
      </trkpt>
      <trkpt lat="42.45775" lon="2.50765">
        <ele>1635.5</ele>
        <time>2020-09-02T00:39:50.360Z</time>
      </trkpt>
      <trkpt lat="42.45767" lon="2.50771">
        <ele>1634.9</ele>
        <time>2020-09-02T00:39:53.384Z</time>
      </trkpt>
      <trkpt lat="42.4576" lon="2.50777">
        <ele>1635</ele>
        <time>2020-09-02T00:40:17.642Z</time>
      </trkpt>
      <trkpt lat="42.45753" lon="2.50784">
        <ele>1635.7</ele>
        <time>2020-09-02T00:41:07.150Z</time>
      </trkpt>
      <trkpt lat="42.45746" lon="2.50789">
        <ele>1621.2</ele>
        <time>2020-09-02T00:41:09.984Z</time>
      </trkpt>
      <trkpt lat="42.45738" lon="2.50794">
        <ele>1621.2</ele>
        <time>2020-09-02T00:41:32.933Z</time>
      </trkpt>
      <trkpt lat="42.4573" lon="2.50798">
        <ele>1621</ele>
        <time>2020-09-02T00:41:37.094Z</time>
      </trkpt>
      <trkpt lat="42.45723" lon="2.50801">
        <ele>1620.4</ele>
        <time>2020-09-02T00:41:39.724Z</time>
      </trkpt>
      <trkpt lat="42.45716" lon="2.50804">
        <ele>1619.7</ele>
        <time>2020-09-02T00:41:42.353Z</time>
      </trkpt>
      <trkpt lat="42.45708" lon="2.50807">
        <ele>1618.9</ele>
        <time>2020-09-02T00:41:45.326Z</time>
      </trkpt>
      <trkpt lat="42.45701" lon="2.50809">
        <ele>1618</ele>
        <time>2020-09-02T00:41:47.889Z</time>
      </trkpt>
      <trkpt lat="42.45691" lon="2.50812">
        <ele>1617.1</ele>
        <time>2020-09-02T00:41:51.557Z</time>
      </trkpt>
      <trkpt lat="42.45678" lon="2.50818">
        <ele>1616.3</ele>
        <time>2020-09-02T00:41:56.370Z</time>
      </trkpt>
      <trkpt lat="42.45671" lon="2.50822">
        <ele>1616.2</ele>
        <time>2020-09-02T00:42:00.564Z</time>
      </trkpt>
      <trkpt lat="42.45665" lon="2.50825">
        <ele>1609.3</ele>
        <time>2020-09-02T00:42:02.854Z</time>
      </trkpt>
      <trkpt lat="42.4566" lon="2.50828">
        <ele>1609.1</ele>
        <time>2020-09-02T00:42:05.179Z</time>
      </trkpt>
      <trkpt lat="42.45656" lon="2.5083">
        <ele>1607.4</ele>
        <time>2020-09-02T00:42:06.706Z</time>
      </trkpt>
      <trkpt lat="42.45645" lon="2.50835">
        <ele>1611</ele>
        <time>2020-09-02T00:44:03.283Z</time>
      </trkpt>
      <trkpt lat="42.45636" lon="2.5084">
        <ele>1609.1</ele>
        <time>2020-09-02T00:44:06.767Z</time>
      </trkpt>
      <trkpt lat="42.45627" lon="2.50844">
        <ele>1607.3</ele>
        <time>2020-09-02T00:44:10.160Z</time>
      </trkpt>
      <trkpt lat="42.45621" lon="2.50848">
        <ele>1606.1</ele>
        <time>2020-09-02T00:44:12.555Z</time>
      </trkpt>
      <trkpt lat="42.45614" lon="2.50853">
        <ele>1604.8</ele>
        <time>2020-09-02T00:44:15.389Z</time>
      </trkpt>
      <trkpt lat="42.45606" lon="2.50857">
        <ele>1603.6</ele>
        <time>2020-09-02T00:44:18.443Z</time>
      </trkpt>
      <trkpt lat="42.45597" lon="2.5086">
        <ele>1602.6</ele>
        <time>2020-09-02T00:44:21.763Z</time>
      </trkpt>
      <trkpt lat="42.4559" lon="2.50863">
        <ele>1602.1</ele>
        <time>2020-09-02T00:44:24.393Z</time>
      </trkpt>
      <trkpt lat="42.45584" lon="2.50866">
        <ele>1602.3</ele>
        <time>2020-09-02T00:44:47.741Z</time>
      </trkpt>
      <trkpt lat="42.45577" lon="2.50872">
        <ele>1581.7</ele>
        <time>2020-09-02T00:44:50.707Z</time>
      </trkpt>
      <trkpt lat="42.45571" lon="2.50878">
        <ele>1581.7</ele>
        <time>2020-09-02T00:45:10.131Z</time>
      </trkpt>
      <trkpt lat="42.45567" lon="2.50881">
        <ele>1581.6</ele>
        <time>2020-09-02T00:45:12.402Z</time>
      </trkpt>
      <trkpt lat="42.45563" lon="2.50885">
        <ele>1581.2</ele>
        <time>2020-09-02T00:45:14.183Z</time>
      </trkpt>
      <trkpt lat="42.45559" lon="2.5089">
        <ele>1581</ele>
        <time>2020-09-02T00:45:16.492Z</time>
      </trkpt>
      <trkpt lat="42.45562" lon="2.50878">
        <ele>1580</ele>
        <time>2020-09-02T00:45:19.840Z</time>
      </trkpt>
      <trkpt lat="42.45564" lon="2.50868">
        <ele>1579.5</ele>
        <time>2020-09-02T00:45:22.373Z</time>
      </trkpt>
      <trkpt lat="42.45567" lon="2.5086">
        <ele>1579.6</ele>
        <time>2020-09-02T00:45:42.390Z</time>
      </trkpt>
      <trkpt lat="42.45569" lon="2.50851">
        <ele>1580.3</ele>
        <time>2020-09-02T00:46:29.803Z</time>
      </trkpt>
      <trkpt lat="42.45571" lon="2.50844">
        <ele>1581.3</ele>
        <time>2020-09-02T00:47:25.452Z</time>
      </trkpt>
      <trkpt lat="42.45574" lon="2.50836">
        <ele>1582.9</ele>
        <time>2020-09-02T00:48:31.981Z</time>
      </trkpt>
      <trkpt lat="42.45577" lon="2.50829">
        <ele>1580.3</ele>
        <time>2020-09-02T00:48:34.120Z</time>
      </trkpt>
      <trkpt lat="42.45579" lon="2.50822">
        <ele>1578.3</ele>
        <time>2020-09-02T00:48:36.104Z</time>
      </trkpt>
      <trkpt lat="42.45582" lon="2.50814">
        <ele>1575</ele>
        <time>2020-09-02T00:48:38.475Z</time>
      </trkpt>
      <trkpt lat="42.45584" lon="2.50807">
        <ele>1588.7</ele>
        <time>2020-09-02T00:49:34.124Z</time>
      </trkpt>
      <trkpt lat="42.45585" lon="2.50799">
        <ele>1588.2</ele>
        <time>2020-09-02T00:49:36.268Z</time>
      </trkpt>
      <trkpt lat="42.45586" lon="2.5079">
        <ele>1587.1</ele>
        <time>2020-09-02T00:49:38.674Z</time>
      </trkpt>
      <trkpt lat="42.45587" lon="2.50785">
        <ele>1586.2</ele>
        <time>2020-09-02T00:49:40.043Z</time>
      </trkpt>
      <trkpt lat="42.45589" lon="2.5078">
        <ele>1585.3</ele>
        <time>2020-09-02T00:49:41.546Z</time>
      </trkpt>
      <trkpt lat="42.45591" lon="2.50776">
        <ele>1584.6</ele>
        <time>2020-09-02T00:49:42.823Z</time>
      </trkpt>
      <trkpt lat="42.45594" lon="2.5077">
        <ele>1583.2</ele>
        <time>2020-09-02T00:49:44.738Z</time>
      </trkpt>
      <trkpt lat="42.45594" lon="2.50764">
        <ele>1581.5</ele>
        <time>2020-09-02T00:49:46.324Z</time>
      </trkpt>
      <trkpt lat="42.45594" lon="2.50758">
        <ele>1579.8</ele>
        <time>2020-09-02T00:49:47.909Z</time>
      </trkpt>
      <trkpt lat="42.45594" lon="2.50751">
        <ele>1578.4</ele>
        <time>2020-09-02T00:49:49.759Z</time>
      </trkpt>
      <trkpt lat="42.45595" lon="2.50745">
        <ele>1571.4</ele>
        <time>2020-09-02T00:49:51.385Z</time>
      </trkpt>
      <trkpt lat="42.45596" lon="2.50739">
        <ele>1571.3</ele>
        <time>2020-09-02T00:49:53.635Z</time>
      </trkpt>
      <trkpt lat="42.45597" lon="2.50735">
        <ele>1571.2</ele>
        <time>2020-09-02T00:49:55.021Z</time>
      </trkpt>
      <trkpt lat="42.45599" lon="2.50731">
        <ele>1571.1</ele>
        <time>2020-09-02T00:49:56.675Z</time>
      </trkpt>
      <trkpt lat="42.45601" lon="2.50728">
        <ele>1570.9</ele>
        <time>2020-09-02T00:49:57.743Z</time>
      </trkpt>
      <trkpt lat="42.45603" lon="2.50719">
        <ele>1570.3</ele>
        <time>2020-09-02T00:50:00.227Z</time>
      </trkpt>
      <trkpt lat="42.45602" lon="2.5071">
        <ele>1569</ele>
        <time>2020-09-02T00:50:02.632Z</time>
      </trkpt>
      <trkpt lat="42.45601" lon="2.50706">
        <ele>1568.2</ele>
        <time>2020-09-02T00:50:03.748Z</time>
      </trkpt>
      <trkpt lat="42.45599" lon="2.50702">
        <ele>1567.5</ele>
        <time>2020-09-02T00:50:05.025Z</time>
      </trkpt>
      <trkpt lat="42.45597" lon="2.50699">
        <ele>1566.7</ele>
        <time>2020-09-02T00:50:06.094Z</time>
      </trkpt>
      <trkpt lat="42.45594" lon="2.50696">
        <ele>1565.7</ele>
        <time>2020-09-02T00:50:07.429Z</time>
      </trkpt>
      <trkpt lat="42.45591" lon="2.50693">
        <ele>1564.9</ele>
        <time>2020-09-02T00:50:08.765Z</time>
      </trkpt>
      <trkpt lat="42.45587" lon="2.50693">
        <ele>1564.4</ele>
        <time>2020-09-02T00:50:10.197Z</time>
      </trkpt>
      <trkpt lat="42.45584" lon="2.50693">
        <ele>1564.3</ele>
        <time>2020-09-02T00:50:11.514Z</time>
      </trkpt>
      <trkpt lat="42.4558" lon="2.50695">
        <ele>1554.7</ele>
        <time>2020-09-02T00:50:13.042Z</time>
      </trkpt>
      <trkpt lat="42.45576" lon="2.50699">
        <ele>1555</ele>
        <time>2020-09-02T00:50:37.332Z</time>
      </trkpt>
      <trkpt lat="42.45573" lon="2.50704">
        <ele>1555.3</ele>
        <time>2020-09-02T00:51:01.023Z</time>
      </trkpt>
      <trkpt lat="42.4557" lon="2.50709">
        <ele>1555.8</ele>
        <time>2020-09-02T00:51:34.938Z</time>
      </trkpt>
      <trkpt lat="42.45566" lon="2.50715">
        <ele>1556.4</ele>
        <time>2020-09-02T00:52:15.580Z</time>
      </trkpt>
      <trkpt lat="42.45562" lon="2.50722">
        <ele>1556.9</ele>
        <time>2020-09-02T00:52:51.599Z</time>
      </trkpt>
      <trkpt lat="42.45558" lon="2.50728">
        <ele>1557</ele>
        <time>2020-09-02T00:53:09.960Z</time>
      </trkpt>
      <trkpt lat="42.45554" lon="2.50733">
        <ele>1556.7</ele>
        <time>2020-09-02T00:53:11.917Z</time>
      </trkpt>
      <trkpt lat="42.45549" lon="2.50738">
        <ele>1556.1</ele>
        <time>2020-09-02T00:53:14.142Z</time>
      </trkpt>
      <trkpt lat="42.45543" lon="2.50744">
        <ele>1555.2</ele>
        <time>2020-09-02T00:53:16.813Z</time>
      </trkpt>
      <trkpt lat="42.45538" lon="2.50752">
        <ele>1560.9</ele>
        <time>2020-09-02T00:54:34.540Z</time>
      </trkpt>
      <trkpt lat="42.45534" lon="2.5076">
        <ele>1560.2</ele>
        <time>2020-09-02T00:54:37.094Z</time>
      </trkpt>
      <trkpt lat="42.4553" lon="2.50768">
        <ele>1559.8</ele>
        <time>2020-09-02T00:54:39.637Z</time>
      </trkpt>
      <trkpt lat="42.45524" lon="2.50777">
        <ele>1559.5</ele>
        <time>2020-09-02T00:54:43.559Z</time>
      </trkpt>
      <trkpt lat="42.45519" lon="2.50784">
        <ele>1559.4</ele>
        <time>2020-09-02T00:54:47.489Z</time>
      </trkpt>
      <trkpt lat="42.45513" lon="2.50792">
        <ele>1559.1</ele>
        <time>2020-09-02T00:54:51.100Z</time>
      </trkpt>
      <trkpt lat="42.45506" lon="2.50801">
        <ele>1558.6</ele>
        <time>2020-09-02T00:54:54.667Z</time>
      </trkpt>
      <trkpt lat="42.455" lon="2.50809">
        <ele>1557.6</ele>
        <time>2020-09-02T00:54:57.682Z</time>
      </trkpt>
      <trkpt lat="42.45495" lon="2.50816">
        <ele>1540.3</ele>
        <time>2020-09-02T00:55:00.257Z</time>
      </trkpt>
      <trkpt lat="42.4549" lon="2.50823">
        <ele>1541.4</ele>
        <time>2020-09-02T00:56:12.486Z</time>
      </trkpt>
      <trkpt lat="42.45486" lon="2.50828">
        <ele>1540.8</ele>
        <time>2020-09-02T00:56:14.435Z</time>
      </trkpt>
      <trkpt lat="42.45482" lon="2.50833">
        <ele>1541.5</ele>
        <time>2020-09-02T00:57:05.570Z</time>
      </trkpt>
      <trkpt lat="42.45475" lon="2.50844">
        <ele>1538.3</ele>
        <time>2020-09-02T00:57:09.409Z</time>
      </trkpt>
      <trkpt lat="42.45473" lon="2.50846">
        <ele>1537.5</ele>
        <time>2020-09-02T00:57:10.299Z</time>
      </trkpt>
      <trkpt lat="42.45472" lon="2.50845">
        <ele>1537.2</ele>
        <time>2020-09-02T00:57:10.744Z</time>
      </trkpt>
      <trkpt lat="42.45472" lon="2.5084">
        <ele>1537.6</ele>
        <time>2020-09-02T00:57:37.972Z</time>
      </trkpt>
      <trkpt lat="42.45472" lon="2.50832">
        <ele>1535.3</ele>
        <time>2020-09-02T00:57:40.086Z</time>
      </trkpt>
      <trkpt lat="42.45473" lon="2.50824">
        <ele>1535.1</ele>
        <time>2020-09-02T00:57:42.712Z</time>
      </trkpt>
      <trkpt lat="42.45474" lon="2.50806">
        <ele>1533.5</ele>
        <time>2020-09-02T00:57:47.483Z</time>
      </trkpt>
      <trkpt lat="42.45474" lon="2.50799">
        <ele>1533</ele>
        <time>2020-09-02T00:57:49.332Z</time>
      </trkpt>
      <trkpt lat="42.45474" lon="2.50793">
        <ele>1532.7</ele>
        <time>2020-09-02T00:57:50.918Z</time>
      </trkpt>
      <trkpt lat="42.45473" lon="2.50788">
        <ele>1532.4</ele>
        <time>2020-09-02T00:57:52.287Z</time>
      </trkpt>
      <trkpt lat="42.45472" lon="2.50783">
        <ele>1532.2</ele>
        <time>2020-09-02T00:57:53.694Z</time>
      </trkpt>
      <trkpt lat="42.45472" lon="2.50777">
        <ele>1532.2</ele>
        <time>2020-09-02T00:58:05.226Z</time>
      </trkpt>
      <trkpt lat="42.45472" lon="2.50771">
        <ele>1532.4</ele>
        <time>2020-09-02T00:58:24.774Z</time>
      </trkpt>
      <trkpt lat="42.45472" lon="2.50764">
        <ele>1532.9</ele>
        <time>2020-09-02T00:58:58.707Z</time>
      </trkpt>
      <trkpt lat="42.45472" lon="2.50759">
        <ele>1533.1</ele>
        <time>2020-09-02T00:59:15.988Z</time>
      </trkpt>
      <trkpt lat="42.45472" lon="2.50747">
        <ele>1531.2</ele>
        <time>2020-09-02T00:59:19.159Z</time>
      </trkpt>
      <trkpt lat="42.45472" lon="2.50736">
        <ele>1530.2</ele>
        <time>2020-09-02T00:59:22.066Z</time>
      </trkpt>
      <trkpt lat="42.45471" lon="2.50725">
        <ele>1529.3</ele>
        <time>2020-09-02T00:59:24.995Z</time>
      </trkpt>
      <trkpt lat="42.4547" lon="2.50716">
        <ele>1528.5</ele>
        <time>2020-09-02T00:59:27.400Z</time>
      </trkpt>
      <trkpt lat="42.45469" lon="2.50706">
        <ele>1528</ele>
        <time>2020-09-02T00:59:30.067Z</time>
      </trkpt>
      <trkpt lat="42.45467" lon="2.50696">
        <ele>1527.6</ele>
        <time>2020-09-02T00:59:32.881Z</time>
      </trkpt>
      <trkpt lat="42.45465" lon="2.50687">
        <ele>1527.3</ele>
        <time>2020-09-02T00:59:35.648Z</time>
      </trkpt>
      <trkpt lat="42.45464" lon="2.50681">
        <ele>1527</ele>
        <time>2020-09-02T00:59:37.143Z</time>
      </trkpt>
      <trkpt lat="42.45462" lon="2.50672">
        <ele>1526.5</ele>
        <time>2020-09-02T00:59:39.627Z</time>
      </trkpt>
      <trkpt lat="42.45457" lon="2.5067">
        <ele>1524.9</ele>
        <time>2020-09-02T00:59:41.495Z</time>
      </trkpt>
      <trkpt lat="42.45454" lon="2.50669">
        <ele>1523.9</ele>
        <time>2020-09-02T00:59:42.601Z</time>
      </trkpt>
      <trkpt lat="42.45452" lon="2.50669">
        <ele>1523.1</ele>
        <time>2020-09-02T00:59:43.318Z</time>
      </trkpt>
      <trkpt lat="42.45449" lon="2.50669">
        <ele>1522.1</ele>
        <time>2020-09-02T00:59:44.392Z</time>
      </trkpt>
      <trkpt lat="42.45445" lon="2.50669">
        <ele>1520.9</ele>
        <time>2020-09-02T00:59:45.825Z</time>
      </trkpt>
      <trkpt lat="42.45442" lon="2.50669">
        <ele>1519.9</ele>
        <time>2020-09-02T00:59:46.899Z</time>
      </trkpt>
      <trkpt lat="42.45439" lon="2.50669">
        <ele>1518.7</ele>
        <time>2020-09-02T00:59:47.974Z</time>
      </trkpt>
      <trkpt lat="42.45436" lon="2.50667">
        <ele>1517.6</ele>
        <time>2020-09-02T00:59:49.171Z</time>
      </trkpt>
      <trkpt lat="42.45434" lon="2.50664">
        <ele>1512</ele>
        <time>2020-09-02T00:59:50.240Z</time>
      </trkpt>
      <trkpt lat="42.45431" lon="2.50659">
        <ele>1511.5</ele>
        <time>2020-09-02T00:59:51.943Z</time>
      </trkpt>
      <trkpt lat="42.45429" lon="2.50651">
        <ele>1511.5</ele>
        <time>2020-09-02T01:00:08.178Z</time>
      </trkpt>
      <trkpt lat="42.45427" lon="2.50644">
        <ele>1511.5</ele>
        <time>2020-09-02T01:00:22.606Z</time>
      </trkpt>
      <trkpt lat="42.45426" lon="2.50636">
        <ele>1511.3</ele>
        <time>2020-09-02T01:00:25.232Z</time>
      </trkpt>
      <trkpt lat="42.45425" lon="2.50627">
        <ele>1510.5</ele>
        <time>2020-09-02T01:00:27.638Z</time>
      </trkpt>
      <trkpt lat="42.45424" lon="2.50618">
        <ele>1509.2</ele>
        <time>2020-09-02T01:00:30.043Z</time>
      </trkpt>
      <trkpt lat="42.45423" lon="2.5061">
        <ele>1507.5</ele>
        <time>2020-09-02T01:00:32.187Z</time>
      </trkpt>
      <trkpt lat="42.45422" lon="2.50602">
        <ele>1505.1</ele>
        <time>2020-09-02T01:00:34.332Z</time>
      </trkpt>
      <trkpt lat="42.45423" lon="2.50596">
        <ele>1503</ele>
        <time>2020-09-02T01:00:35.957Z</time>
      </trkpt>
      <trkpt lat="42.45424" lon="2.5059">
        <ele>1501.3</ele>
        <time>2020-09-02T01:00:37.583Z</time>
      </trkpt>
      <trkpt lat="42.45425" lon="2.50585">
        <ele>1500.8</ele>
        <time>2020-09-02T01:00:38.952Z</time>
      </trkpt>
      <trkpt lat="42.45429" lon="2.5058">
        <ele>1492.1</ele>
        <time>2020-09-02T01:00:40.901Z</time>
      </trkpt>
      <trkpt lat="42.45434" lon="2.50574">
        <ele>1491.2</ele>
        <time>2020-09-02T01:00:43.293Z</time>
      </trkpt>
      <trkpt lat="42.45438" lon="2.50569">
        <ele>1490.4</ele>
        <time>2020-09-02T01:00:45.242Z</time>
      </trkpt>
      <trkpt lat="42.45443" lon="2.50564">
        <ele>1489.7</ele>
        <time>2020-09-02T01:00:47.468Z</time>
      </trkpt>
      <trkpt lat="42.45448" lon="2.5056">
        <ele>1489.2</ele>
        <time>2020-09-02T01:00:49.547Z</time>
      </trkpt>
      <trkpt lat="42.45454" lon="2.50555">
        <ele>1488.7</ele>
        <time>2020-09-02T01:00:52.070Z</time>
      </trkpt>
      <trkpt lat="42.45459" lon="2.50549">
        <ele>1488</ele>
        <time>2020-09-02T01:00:54.462Z</time>
      </trkpt>
      <trkpt lat="42.45464" lon="2.50543">
        <ele>1487.1</ele>
        <time>2020-09-02T01:00:56.854Z</time>
      </trkpt>
      <trkpt lat="42.4547" lon="2.50537">
        <ele>1486</ele>
        <time>2020-09-02T01:00:59.525Z</time>
      </trkpt>
      <trkpt lat="42.45476" lon="2.50533">
        <ele>1485.3</ele>
        <time>2020-09-02T01:01:01.920Z</time>
      </trkpt>
      <trkpt lat="42.45483" lon="2.5053">
        <ele>1484.4</ele>
        <time>2020-09-02T01:01:04.549Z</time>
      </trkpt>
      <trkpt lat="42.4549" lon="2.50527">
        <ele>1483.5</ele>
        <time>2020-09-02T01:01:07.179Z</time>
      </trkpt>
      <trkpt lat="42.45497" lon="2.50525">
        <ele>1482.5</ele>
        <time>2020-09-02T01:01:09.741Z</time>
      </trkpt>
      <trkpt lat="42.45505" lon="2.50523">
        <ele>1486.3</ele>
        <time>2020-09-02T01:02:31.481Z</time>
      </trkpt>
      <trkpt lat="42.45512" lon="2.50522">
        <ele>1486.7</ele>
        <time>2020-09-02T01:03:05.045Z</time>
      </trkpt>
      <trkpt lat="42.45521" lon="2.50521">
        <ele>1487.6</ele>
        <time>2020-09-02T01:04:06.020Z</time>
      </trkpt>
      <trkpt lat="42.45528" lon="2.5052">
        <ele>1488.3</ele>
        <time>2020-09-02T01:04:53.449Z</time>
      </trkpt>
      <trkpt lat="42.45534" lon="2.50519">
        <ele>1488.7</ele>
        <time>2020-09-02T01:05:24.248Z</time>
      </trkpt>
      <trkpt lat="42.45542" lon="2.50518">
        <ele>1488.9</ele>
        <time>2020-09-02T01:05:51.359Z</time>
      </trkpt>
      <trkpt lat="42.4555" lon="2.50517">
        <ele>1488.5</ele>
        <time>2020-09-02T01:05:54.382Z</time>
      </trkpt>
      <trkpt lat="42.45558" lon="2.50515">
        <ele>1487.5</ele>
        <time>2020-09-02T01:05:57.295Z</time>
      </trkpt>
      <trkpt lat="42.45564" lon="2.50512">
        <ele>1486.1</ele>
        <time>2020-09-02T01:05:59.586Z</time>
      </trkpt>
      <trkpt lat="42.45571" lon="2.5051">
        <ele>1484</ele>
        <time>2020-09-02T01:06:02.148Z</time>
      </trkpt>
      <trkpt lat="42.45578" lon="2.50508">
        <ele>1481.4</ele>
        <time>2020-09-02T01:06:04.711Z</time>
      </trkpt>
      <trkpt lat="42.45583" lon="2.50506">
        <ele>1481.6</ele>
        <time>2020-09-02T01:06:25.649Z</time>
      </trkpt>
      <trkpt lat="42.456" lon="2.5049">
        <ele>1475.2</ele>
        <time>2020-09-02T01:06:33.063Z</time>
      </trkpt>
      <trkpt lat="42.45618" lon="2.50472">
        <ele>1475.8</ele>
        <time>2020-09-02T01:07:50.314Z</time>
      </trkpt>
      <trkpt lat="42.45646" lon="2.50446">
        <ele>1478.4</ele>
        <time>2020-09-02T01:10:57.555Z</time>
      </trkpt>
      <trkpt lat="42.4562" lon="2.50433">
        <ele>1471.2</ele>
        <time>2020-09-02T01:11:07.481Z</time>
      </trkpt>
      <trkpt lat="42.45603" lon="2.50432">
        <ele>1464.7</ele>
        <time>2020-09-02T01:11:13.576Z</time>
      </trkpt>
      <trkpt lat="42.45586" lon="2.50439">
        <ele>1462.5</ele>
        <time>2020-09-02T01:11:19.940Z</time>
      </trkpt>
      <trkpt lat="42.45571" lon="2.50444">
        <ele>1452.8</ele>
        <time>2020-09-02T01:11:25.473Z</time>
      </trkpt>
      <trkpt lat="42.45559" lon="2.50438">
        <ele>1451.6</ele>
        <time>2020-09-02T01:11:30.054Z</time>
      </trkpt>
      <trkpt lat="42.45545" lon="2.50435">
        <ele>1450.6</ele>
        <time>2020-09-02T01:11:35.131Z</time>
      </trkpt>
      <trkpt lat="42.45509" lon="2.50437">
        <ele>1445.2</ele>
        <time>2020-09-02T01:11:48.036Z</time>
      </trkpt>
      <trkpt lat="42.45471" lon="2.5044">
        <ele>1441</ele>
        <time>2020-09-02T01:12:01.670Z</time>
      </trkpt>
      <trkpt lat="42.45437" lon="2.50443">
        <ele>1438.3</ele>
        <time>2020-09-02T01:12:13.874Z</time>
      </trkpt>
      <trkpt lat="42.4541" lon="2.50441">
        <ele>1431.8</ele>
        <time>2020-09-02T01:12:23.560Z</time>
      </trkpt>
      <trkpt lat="42.45392" lon="2.50438">
        <ele>1432.8</ele>
        <time>2020-09-02T01:13:49.047Z</time>
      </trkpt>
      <trkpt lat="42.45364" lon="2.50431">
        <ele>1432.4</ele>
        <time>2020-09-02T01:14:04.588Z</time>
      </trkpt>
      <trkpt lat="42.45368" lon="2.50426">
        <ele>1431.8</ele>
        <time>2020-09-02T01:14:06.537Z</time>
      </trkpt>
      <trkpt lat="42.45399" lon="2.50418">
        <ele>1426.7</ele>
        <time>2020-09-02T01:14:17.840Z</time>
      </trkpt>
      <trkpt lat="42.45427" lon="2.50408">
        <ele>1411.8</ele>
        <time>2020-09-02T01:14:28.212Z</time>
      </trkpt>
      <trkpt lat="42.45455" lon="2.50394">
        <ele>1409.7</ele>
        <time>2020-09-02T01:14:38.902Z</time>
      </trkpt>
      <trkpt lat="42.45501" lon="2.50372">
        <ele>1426.6</ele>
        <time>2020-09-02T01:22:49.041Z</time>
      </trkpt>
      <trkpt lat="42.45517" lon="2.50361">
        <ele>1426.2</ele>
        <time>2020-09-02T01:22:57.911Z</time>
      </trkpt>
      <trkpt lat="42.45535" lon="2.50352">
        <ele>1429.9</ele>
        <time>2020-09-02T01:26:10.689Z</time>
      </trkpt>
      <trkpt lat="42.45536" lon="2.50345">
        <ele>1429.9</ele>
        <time>2020-09-02T01:26:24.393Z</time>
      </trkpt>
      <trkpt lat="42.45533" lon="2.50321">
        <ele>1430</ele>
        <time>2020-09-02T01:27:13.693Z</time>
      </trkpt>
      <trkpt lat="42.45523" lon="2.50291">
        <ele>1430.3</ele>
        <time>2020-09-02T01:28:25.037Z</time>
      </trkpt>
      <trkpt lat="42.45508" lon="2.50268">
        <ele>1424.8</ele>
        <time>2020-09-02T01:28:33.149Z</time>
      </trkpt>
      <trkpt lat="42.4549" lon="2.50238">
        <ele>1399.6</ele>
        <time>2020-09-02T01:28:43.368Z</time>
      </trkpt>
      <trkpt lat="42.45479" lon="2.50212">
        <ele>1391</ele>
        <time>2020-09-02T01:28:51.288Z</time>
      </trkpt>
      <trkpt lat="42.45471" lon="2.50192">
        <ele>1389.1</ele>
        <time>2020-09-02T01:28:57.301Z</time>
      </trkpt>
      <trkpt lat="42.45466" lon="2.50173">
        <ele>1388</ele>
        <time>2020-09-02T01:29:02.632Z</time>
      </trkpt>
      <trkpt lat="42.45465" lon="2.50145">
        <ele>1389.3</ele>
        <time>2020-09-02T01:30:45.507Z</time>
      </trkpt>
      <trkpt lat="42.45468" lon="2.50131">
        <ele>1390.7</ele>
        <time>2020-09-02T01:32:28.699Z</time>
      </trkpt>
      <trkpt lat="42.45463" lon="2.50119">
        <ele>1389.2</ele>
        <time>2020-09-02T01:32:32.341Z</time>
      </trkpt>
      <trkpt lat="42.45455" lon="2.50087">
        <ele>1386</ele>
        <time>2020-09-02T01:32:41.270Z</time>
      </trkpt>
      <trkpt lat="42.45451" lon="2.50063">
        <ele>1385.8</ele>
        <time>2020-09-02T01:32:51.572Z</time>
      </trkpt>
      <trkpt lat="42.45447" lon="2.50033">
        <ele>1385.1</ele>
        <time>2020-09-02T01:33:01.675Z</time>
      </trkpt>
      <trkpt lat="42.45446" lon="2.50006">
        <ele>1382.7</ele>
        <time>2020-09-02T01:33:08.819Z</time>
      </trkpt>
      <trkpt lat="42.45444" lon="2.49979">
        <ele>1380.7</ele>
        <time>2020-09-02T01:33:15.991Z</time>
      </trkpt>
      <trkpt lat="42.45439" lon="2.49946">
        <ele>1378.9</ele>
        <time>2020-09-02T01:33:24.894Z</time>
      </trkpt>
      <trkpt lat="42.45426" lon="2.49891">
        <ele>1372.5</ele>
        <time>2020-09-02T01:33:40.156Z</time>
      </trkpt>
      <trkpt lat="42.45416" lon="2.49856">
        <ele>1352.3</ele>
        <time>2020-09-02T01:33:50.075Z</time>
      </trkpt>
      <trkpt lat="42.45398" lon="2.4982">
        <ele>1349.2</ele>
        <time>2020-09-02T01:34:01.568Z</time>
      </trkpt>
      <trkpt lat="42.45394" lon="2.49799">
        <ele>1344.6</ele>
        <time>2020-09-02T01:34:07.299Z</time>
      </trkpt>
      <trkpt lat="42.4539" lon="2.4977">
        <ele>1342.5</ele>
        <time>2020-09-02T01:34:15.096Z</time>
      </trkpt>
      <trkpt lat="42.45389" lon="2.49745">
        <ele>1336.2</ele>
        <time>2020-09-02T01:34:21.713Z</time>
      </trkpt>
      <trkpt lat="42.45389" lon="2.49725">
        <ele>1334.1</ele>
        <time>2020-09-02T01:34:26.998Z</time>
      </trkpt>
      <trkpt lat="42.45388" lon="2.49712">
        <ele>1332.3</ele>
        <time>2020-09-02T01:34:30.453Z</time>
      </trkpt>
      <trkpt lat="42.45386" lon="2.49703">
        <ele>1331.2</ele>
        <time>2020-09-02T01:34:32.937Z</time>
      </trkpt>
      <trkpt lat="42.45378" lon="2.49685">
        <ele>1329.2</ele>
        <time>2020-09-02T01:34:38.490Z</time>
      </trkpt>
      <trkpt lat="42.45382" lon="2.4968">
        <ele>1329.3</ele>
        <time>2020-09-02T01:34:55.534Z</time>
      </trkpt>
      <trkpt lat="42.45382" lon="2.4968">
        <ele>1329.3</ele>
        <time>2020-09-02T01:34:55.534Z</time>
      </trkpt>
    </trkseg>
  </trk>
</gpx>